[[{"header":{"parameterUnit":"m.s-1","parameterCategory":1,"la1":31.0,"la2":29.5877,"lo1":-88.7671,"lo2":-86.6584,"dy":0.0162,"dx":0.0185,"nx":115,"ny":88,"refTime":"2024-02-18T06:00:00:Z","depth":0,"parameterNumber":2,"parameterNumberName":"U-component_of_WINDS"},"data":[0.0,0.0,0.0,0.0,0.0,0.0,0.0,0.0,0.0,0.0,0.0,0.0,0.0,0.0,0.0,0.0,0.0,0.0,0.0,0.0,0.0,0.0,0.0,0.0,0.0,0.0,0.0,0.0,0.0,0.0,0.0,0.0,0.0,0.0,0.0,0.0,0.0,0.0,0.0,0.0,0.0,0.0,0.0,0.0,0.0,0.0,0.0,0.0,0.0,0.0,0.0,0.0,0.0,0.0,0.0,0.0,0.0,0.0,0.0,0.0,0.0,0.0,0.0,0.0,0.0,0.0,0.0,0.0,0.0,0.0,0.0,0.0,0.0,0.0,0.0,0.0,0.0,0.0,0.0,0.0,0.0,0.0,0.0,0.0,0.0,0.0,0.0,0.0,0.0,0.0,0.0,0.0,0.0,0.0,0.0,0.0,0.0,0.0,0.0,0.0,0.0,0.0,0.0,0.0,0.0,0.0,0.0,0.0,0.0,0.0,0.0,0.0,0.0,0.0,0.0,0.0,0.0,0.0,0.0,0.0,0.0,0.0,0.0,0.0,0.0,0.0,0.0,0.0,0.0,0.0,0.0,0.0,0.0,0.0,0.0,0.0,0.0,0.0,0.0,0.0,0.0,0.0,0.0,0.0,0.0,0.0,0.0,0.0,0.0,0.0,0.0,0.0,0.0,0.0,0.0,0.0,0.0,0.0,0.0,0.0,0.0,0.0,0.0,0.0,0.0,0.0,0.0,0.0,0.0,0.0,0.0,0.0,0.0,0.0,0.0,0.0,0.0,0.0,0.0,0.0,0.0,0.0,0.0,0.0,0.0,0.0,0.0,0.0,0.0,0.0,0.0,0.0,0.0,0.0,0.0,0.0,0.0,0.0,0.0,0.0,0.0,0.0,0.0,0.0,0.0,0.0,0.0,0.0,0.0,0.0,0.0,0.0,0.0,0.0,0.0,0.0,0.0,0.0,0.0,0.0,0.0,0.0,0.0,0.0,0.0,0.0,0.0,0.0,0.0,0.0,0.0,0.0,0.0,0.0,0.0,0.0,0.0,0.0,0.0,0.0,0.0,0.0,0.0,0.0,0.0,0.0,0.0,0.0,0.0,0.0,0.0,0.0,0.0,0.0,0.0,0.0,0.0,0.0,0.0,0.0,0.0,0.0,0.0,0.0,0.0,0.0,0.0,0.0,0.0,0.0,0.0,0.0,0.0,0.0,0.0,0.0,0.0,0.0,0.0,0.0,0.0,0.0,0.0,0.0,0.0,0.0,0.0,0.0,0.0,0.0,0.0,0.0,0.0,0.0,0.0,0.0,0.0,0.0,0.0,0.0,0.0,0.0,0.0,0.0,0.0,0.0,0.0,0.0,0.0,0.0,0.0,0.0,0.0,0.0,0.0,0.0,0.0,0.0,0.0,0.0,0.0,0.0,0.0,0.0,0.0,0.0,0.0,0.0,0.0,0.0,0.0,0.0,0.0,0.0,0.0,0.0,0.0,0.0,0.0,0.0,0.0,0.0,0.0,0.0,0.0,0.0,0.0,0.0,0.0,0.0,0.0,0.0,0.0,0.0,0.0,0.0,0.0,0.0,0.0,0.0,0.0,0.0,0.0,0.0,0.0,0.0,0.0,0.0,0.0,0.0,0.0,0.0,0.0,0.0,0.0,0.0,0.0,0.0,0.0,0.0,0.0,0.0,0.0,0.0,0.0,0.0,0.0,0.0,0.0,0.0,0.0,0.0,0.0,0.0,0.0,0.0,0.0,0.0,0.0,0.0,0.0,0.0,0.0,0.0,0.0,0.0,0.0,0.0,0.0,0.0,0.0,0.0,0.0,0.0,0.0,0.0,0.0,0.0,0.0,0.0,0.0,0.0,0.0,0.0,0.0,0.0,0.0,0.0,0.0,0.0,0.0,0.0,0.0,0.0,0.0,0.0,0.0,0.0,0.0,0.0,0.0,0.0,0.0,0.0,0.0,0.0,0.0,0.0,0.0,0.0,0.0,0.0,0.0,0.0,0.0,0.0,0.0,0.0,0.0,0.0,0.0,0.0,0.0,0.0,0.0,0.0,0.0,0.0,0.0,0.0,0.0,0.0,0.0,0.0,0.0,0.0,0.0,0.0,0.0,0.0,0.0,0.0,0.0,0.0,0.0,0.0,0.0,0.0,0.0,0.0,0.0,0.0,0.0,0.0,0.0,0.0,0.0,0.0,0.0,0.0,0.0,0.0,0.0,0.0,0.0,0.0,0.0,0.0,0.0,0.0,0.0,0.0,0.0,0.0,0.0,0.0,0.0,0.0,0.0,0.0,0.0,0.0,0.0,0.0,0.0,0.0,0.0,0.0,0.0,0.0,0.0,0.0,0.0,0.0,0.0,0.0,0.0,0.0,0.0,0.0,0.0,0.0,0.0,0.0,0.0,0.0,0.0,0.0,0.0,0.0,0.0,0.0,0.0,0.0,0.0,0.0,0.0,0.0,0.0,0.0,0.0,0.0,0.0,0.0,0.0,0.0,0.0,0.0,0.0,0.0,0.0,0.0,0.0,0.0,0.0,0.0,0.0,0.0,0.0,0.0,0.0,0.0,0.0,0.0,0.0,0.0,0.0,0.0,0.0,0.0,0.0,0.0,0.0,0.0,0.0,0.0,0.0,0.0,0.0,0.0,0.0,0.0,0.0,0.0,0.0,0.0,0.0,0.0,0.0,0.0,0.0,0.0,0.0,0.0,0.0,0.0,0.0,0.0,0.0,0.0,0.0,0.0,0.0,0.0,0.0,0.0,0.0,0.0,0.0,0.0,0.0,0.0,0.0,0.0,0.0,0.0,0.0,0.0,0.0,0.0,0.0,0.0,0.0,0.0,0.0,0.0,0.0,0.0,0.0,0.0,0.0,0.0,0.0,0.0,0.0,0.0,0.0,0.0,0.0,0.0,0.0,0.0,0.0,0.0,0.0,0.0,0.0,0.0,0.0,0.0,0.0,0.0,0.0,0.0,0.0,0.0,0.0,0.0,0.0,0.0,0.0,0.0,0.0,0.0,0.0,0.0,0.0,0.0,0.0,0.0,0.0,0.0,0.0,0.0,0.0,0.0,0.0,0.0,0.0,0.0,0.0,0.0,0.0,0.0,0.0,0.0,0.0,0.0,0.0,0.0,0.0,0.0,0.0,0.0,0.0,0.0,0.0,0.0,0.0,0.0,0.0,0.0,0.0,0.0,0.0,0.0,0.0,0.0,0.0,0.0,0.0,0.0,0.0,0.0,0.0,0.0,0.0,0.0,0.0,0.0,0.0,0.0,0.0,0.0,0.0,0.0,0.0,0.0,0.0,0.0,0.0,0.0,0.0,0.0,0.0,0.0,0.0,0.0,0.0,0.0,0.0,0.0,0.0,0.0,0.0,0.0,0.0,0.0,0.0,0.0,0.0,0.0,0.0,0.0,0.0,0.0,0.0,0.0,0.0,0.0,0.0,0.0,0.0,0.0,0.0,0.0,0.0,0.0,0.0,0.0,0.0,0.0,0.0,0.0,0.0,0.0,0.0,0.0,0.0,0.0,0.0,0.0,0.0,0.0,0.0,0.0,0.0,0.0,0.0,0.0,0.0,0.0,0.0,0.0,0.0,0.0,0.0,0.0,0.0,0.0,0.0,0.0,0.0,0.0,0.0,0.0,0.0,0.0,0.0,0.0,0.0,0.0,0.0,0.0,0.0,0.0,0.0,0.0,0.0,0.0,0.0,0.0,0.0,0.0,0.0,0.0,0.0,0.0,0.0,0.0,0.0,0.0,0.0,0.0,0.0,0.0,0.0,0.0,0.0,0.0,0.0,0.0,0.0,0.0,0.0,0.0,0.0,0.0,0.0,0.0,0.0,0.0,0.0,0.0,0.0,0.0,0.0,0.0,0.0,0.0,0.0,0.0,0.0,0.0,0.0,0.0,0.0,0.0,0.0,0.0,0.0,0.0,0.0,0.0,0.0,0.0,0.0,0.0,0.0,0.0,0.0,0.0,0.0,0.0,0.0,0.0,0.0,0.0,0.0,0.0,0.0,0.0,0.0,0.0,0.0,0.0,0.0,0.0,0.0,0.0,0.0,0.0,0.0,0.0,0.0,0.0,0.0,0.0,0.0,0.0,0.0,0.0,0.0,0.0,0.0,0.0,0.0,0.0,0.0,0.0,0.0,0.0,0.0,0.0,0.0,0.0,0.0,0.0,0.0,0.0,0.0,0.0,0.0,0.0,0.0,0.0,0.0,0.0,0.0,0.0,0.0,0.0,0.0,0.0,0.0,0.0,2.0572,0.0,0.0,0.0,0.0,0.0,0.0,0.0,0.0,0.0,0.0,0.0,0.0,0.0,0.0,0.0,0.0,0.0,0.0,0.0,0.0,0.0,0.0,0.0,0.0,0.0,0.0,0.0,0.0,0.0,0.0,0.0,0.0,0.0,0.0,0.0,0.0,0.0,0.0,0.0,0.0,0.0,0.0,0.0,0.0,0.0,0.0,0.0,0.0,0.0,0.0,0.0,0.0,0.0,0.0,0.0,0.0,0.0,0.0,0.0,0.0,0.0,0.0,0.0,0.0,0.0,0.0,0.0,0.0,0.0,0.0,0.0,0.0,0.0,0.0,0.0,0.0,0.0,0.0,0.0,0.0,0.0,0.0,0.0,0.0,0.0,0.0,0.0,0.0,0.0,0.0,0.0,0.0,0.0,0.0,0.0,0.0,0.0,0.0,0.0,0.0,0.0,0.0,0.0,0.0,0.0,0.0,0.0,0.0,0.0,0.0,2.1126,2.0339,2.1933,2.2022,2.0405,0.0,0.0,0.0,0.0,0.0,0.0,0.0,0.0,0.0,0.0,0.0,0.0,0.0,0.0,0.0,0.0,0.0,0.0,0.0,0.0,0.0,0.0,0.0,0.0,0.0,0.0,0.0,0.0,0.0,0.0,0.0,0.0,0.0,0.0,0.0,0.0,0.0,0.0,0.0,0.0,0.0,0.0,0.0,0.0,0.0,0.0,0.0,0.0,0.0,0.0,0.0,0.0,0.0,0.0,0.0,0.0,0.0,0.0,0.0,0.0,0.0,0.0,0.0,0.0,0.0,0.0,0.0,0.0,0.0,0.0,0.0,0.0,0.0,0.0,0.0,0.0,0.0,0.0,0.0,0.0,0.0,0.0,0.0,0.0,0.0,0.0,0.0,0.0,0.0,0.0,0.0,0.0,0.0,0.0,0.0,0.0,0.0,0.0,0.0,0.0,0.0,0.0,0.0,0.0,0.0,0.0,0.0,0.0,0.0,0.0,0.0,0.0,2.2145,2.2196,2.0959,0.0,0.0,0.0,0.0,0.0,0.0,0.0,0.0,0.0,0.0,0.0,0.0,0.0,0.0,0.0,0.0,0.0,0.0,0.0,0.0,0.0,0.0,0.0,0.0,0.0,0.0,0.0,0.0,0.0,0.0,0.0,0.0,0.0,0.0,0.0,0.0,0.0,0.0,0.0,0.0,0.0,0.0,0.0,0.0,0.0,0.0,0.0,0.0,0.0,0.0,0.0,0.0,0.0,0.0,0.0,0.0,0.0,0.0,0.0,0.0,0.0,0.0,0.0,0.0,0.0,0.0,0.0,0.0,0.0,0.0,0.0,0.0,0.0,0.0,0.0,0.0,0.0,0.0,0.0,0.0,0.0,0.0,0.0,0.0,0.0,0.0,0.0,0.0,0.0,0.0,0.0,0.0,0.0,0.0,0.0,0.0,0.0,0.0,0.0,0.0,0.0,0.0,0.0,0.0,0.0,0.0,0.0,0.0,0.0,0.0,2.1032,2.2525,2.2714,0.0,2.2601,0.0,0.0,0.0,0.0,0.0,0.0,0.0,0.0,0.0,0.0,0.0,0.0,0.0,0.0,0.0,0.0,0.0,0.0,0.0,0.0,0.0,0.0,0.0,0.0,0.0,0.0,0.0,0.0,0.0,0.0,0.0,0.0,0.0,0.0,0.0,0.0,0.0,0.0,0.0,0.0,0.0,0.0,0.0,0.0,0.0,0.0,0.0,0.0,0.0,0.0,0.0,0.0,0.0,0.0,0.0,0.0,0.0,0.0,0.0,0.0,0.0,0.0,0.0,0.0,0.0,0.0,0.0,0.0,0.0,0.0,0.0,0.0,0.0,0.0,0.0,0.0,0.0,0.0,0.0,0.0,0.0,0.0,0.0,0.0,0.0,0.0,0.0,0.0,0.0,0.0,0.0,0.0,0.0,0.0,0.0,0.0,0.0,0.0,0.0,0.0,0.0,0.0,0.0,0.0,0.0,0.0,0.0,0.0,0.0,0.0,2.1566,2.2782,2.284,2.2639,0.0,0.0,0.0,0.0,0.0,0.0,0.0,0.0,0.0,0.0,0.0,0.0,0.0,0.0,0.0,0.0,0.0,0.0,0.0,0.0,0.0,0.0,0.0,0.0,0.0,0.0,0.0,0.0,0.0,0.0,0.0,0.0,0.0,0.0,0.0,0.0,0.0,0.0,0.0,0.0,0.0,0.0,0.0,0.0,0.0,0.0,0.0,0.0,0.0,0.0,0.0,0.0,0.0,0.0,0.0,0.0,0.0,0.0,0.0,0.0,0.0,0.0,0.0,0.0,0.0,0.0,0.0,0.0,0.0,0.0,0.0,0.0,0.0,0.0,0.0,0.0,0.0,0.0,0.0,0.0,0.0,0.0,0.0,0.0,0.0,0.0,0.0,0.0,0.0,0.0,0.0,0.0,0.0,0.0,0.0,0.0,0.0,0.0,0.0,0.0,0.0,0.0,0.0,0.0,0.0,0.0,0.0,0.0,0.0,0.0,2.1934,2.2575,2.3398,2.2883,2.2371,2.1963,0.0,0.0,0.0,0.0,0.0,0.0,0.0,0.0,0.0,0.0,0.0,0.0,0.0,0.0,0.0,0.0,0.0,0.0,0.0,0.0,0.0,0.0,0.0,0.0,0.0,0.0,0.0,0.0,0.0,0.0,0.0,0.0,0.0,0.0,0.0,0.0,0.0,0.0,0.0,0.0,0.0,0.0,0.0,0.0,0.0,0.0,0.0,0.0,0.0,0.0,0.0,0.0,0.0,0.0,0.0,0.0,0.0,0.0,0.0,0.0,0.0,0.0,0.0,0.0,0.0,0.0,0.0,0.0,0.0,0.0,0.0,0.0,0.0,0.0,0.0,0.0,0.0,0.0,0.0,0.0,0.0,0.0,0.0,0.0,0.0,0.0,0.0,0.0,0.0,0.0,0.0,0.0,0.0,0.0,0.0,0.0,0.0,0.0,0.0,0.0,0.0,0.0,0.0,0.0,0.0,0.0,0.0,0.0,2.4788,2.417,2.4251,2.5082,2.2972,2.21,0.0,0.0,0.0,0.0,0.0,0.0,0.0,0.0,0.0,0.0,0.0,0.0,0.0,0.0,0.0,0.0,0.0,0.0,0.0,0.0,0.0,0.0,0.0,0.0,0.0,0.0,0.0,0.0,0.0,0.0,0.0,0.0,0.0,0.0,0.0,0.0,0.0,0.0,0.0,0.0,0.0,0.0,0.0,0.0,0.0,0.0,0.0,0.0,0.0,0.0,0.0,0.0,0.0,0.0,0.0,0.0,0.0,0.0,0.0,0.0,0.0,0.0,0.0,0.0,0.0,0.0,0.0,0.0,0.0,0.0,0.0,0.0,0.0,0.0,0.0,0.0,0.0,0.0,0.0,0.0,0.0,0.0,0.0,0.0,0.0,0.0,0.0,0.0,0.0,0.0,0.0,0.0,0.0,0.0,0.0,0.0,0.0,0.0,0.0,0.0,0.0,0.0,0.0,0.0,0.0,0.0,0.0,0.0,0.0,2.3571,2.4408,2.5005,2.5302,2.4022,2.3168,0.0,0.0,0.0,0.0,0.0,0.0,0.0,0.0,0.0,0.0,0.0,0.0,0.0,0.0,0.0,0.0,0.0,0.0,0.0,0.0,0.0,0.0,0.0,0.0,0.0,0.0,0.0,0.0,0.0,0.0,0.0,0.0,0.0,0.0,0.0,0.0,0.0,0.0,0.0,0.0,0.0,0.0,0.0,0.0,0.0,0.0,0.0,0.0,0.0,0.0,0.0,0.0,0.0,0.0,0.0,0.0,0.0,0.0,0.0,0.0,0.0,0.0,0.0,0.0,0.0,0.0,0.0,0.0,0.0,0.0,0.0,0.0,0.0,0.0,0.0,0.0,0.0,0.0,0.0,0.0,0.0,0.0,0.0,0.0,0.0,0.0,0.0,0.0,0.0,0.0,0.0,0.0,0.0,0.0,0.0,0.0,0.0,0.0,0.0,0.0,0.0,0.0,0.0,0.0,0.0,0.0,0.0,0.0,0.0,2.4337,0.0,2.6391,2.5811,2.4756,2.3663,0.0,0.0,0.0,0.0,0.0,0.0,0.0,0.0,0.0,0.0,0.0,0.0,0.0,0.0,0.0,0.0,0.0,0.0,0.0,0.0,0.0,0.0,0.0,0.0,0.0,0.0,0.0,0.0,0.0,0.0,0.0,0.0,0.0,0.0,0.0,0.0,0.0,0.0,0.0,0.0,0.0,0.0,0.0,0.0,0.0,0.0,0.0,0.0,0.0,0.0,0.0,0.0,0.0,0.0,0.0,0.0,0.0,0.0,0.0,0.0,0.0,0.0,0.0,0.0,0.0,0.0,0.0,0.0,0.0,0.0,0.0,0.0,0.0,0.0,0.0,0.0,0.0,0.0,0.0,0.0,0.0,0.0,0.0,0.0,0.0,0.0,0.0,0.0,0.0,0.0,0.0,0.0,0.0,0.0,0.0,0.0,0.0,0.0,0.0,0.0,0.0,0.0,0.0,0.0,0.0,0.0,0.0,0.0,2.5138,2.7589,2.8563,2.8192,2.6728,2.5076,2.3431,0.0,0.0,0.0,0.0,0.0,0.0,0.0,0.0,0.0,0.0,0.0,0.0,0.0,0.0,0.0,0.0,0.0,0.0,0.0,0.0,0.0,0.0,0.0,0.0,0.0,0.0,0.0,0.0,0.0,0.0,0.0,0.0,0.0,0.0,0.0,0.0,0.0,0.0,0.0,0.0,0.0,0.0,0.0,0.0,0.0,0.0,0.0,0.0,0.0,0.0,0.0,0.0,0.0,0.0,0.0,0.0,0.0,0.0,0.0,0.0,0.0,0.0,0.0,0.0,0.0,0.0,0.0,0.0,0.0,0.0,0.0,0.0,0.0,0.0,0.0,0.0,0.0,0.0,0.0,0.0,0.0,0.0,0.0,0.0,0.0,0.0,0.0,0.0,0.0,0.0,0.0,0.0,0.0,0.0,0.0,0.0,0.0,0.0,0.0,0.0,0.0,0.0,0.0,0.0,0.0,0.0,0.0,0.0,0.0,2.6109,2.6988,2.7229,2.6685,2.5636,2.4497,0.0,0.0,0.0,0.0,0.0,0.0,0.0,0.0,0.0,0.0,0.0,0.0,0.0,0.0,0.0,0.0,0.0,0.0,0.0,0.0,0.0,0.0,0.0,0.0,0.0,0.0,0.0,0.0,0.0,0.0,0.0,0.0,0.0,0.0,0.0,0.0,0.0,0.0,0.0,0.0,0.0,0.0,0.0,0.0,0.0,0.0,0.0,0.0,0.0,0.0,0.0,0.0,0.0,0.0,0.0,0.0,0.0,0.0,0.0,0.0,0.0,0.0,0.0,0.0,0.0,0.0,0.0,0.0,0.0,0.0,0.0,0.0,0.0,0.0,0.0,0.0,0.0,0.0,0.0,0.0,0.0,0.0,0.0,0.0,0.0,0.0,0.0,0.0,0.0,0.0,0.0,0.0,0.0,0.0,0.0,0.0,0.0,0.0,0.0,0.0,0.0,0.0,0.0,0.0,0.0,0.0,0.0,0.0,0.0,2.6814,2.7653,2.7971,2.7675,2.6494,2.5473,2.4664,0.0,0.0,0.0,0.0,0.0,0.0,0.0,0.0,0.0,0.0,0.0,0.0,0.0,0.0,0.0,0.0,0.0,0.0,0.0,0.0,0.0,0.0,0.0,0.0,0.0,0.0,0.0,0.0,0.0,0.0,0.0,0.0,0.0,0.0,0.0,0.0,0.0,0.0,0.0,0.0,0.0,0.0,0.0,0.0,0.0,0.0,0.0,0.0,0.0,0.0,0.0,0.0,0.0,0.0,0.0,0.0,0.0,0.0,0.0,0.0,0.0,0.0,0.0,0.0,0.0,0.0,0.0,0.0,0.0,0.0,0.0,0.0,0.0,0.0,0.0,0.0,0.0,0.0,0.0,0.0,0.0,0.0,0.0,0.0,0.0,0.0,0.0,0.0,0.0,0.0,0.0,0.0,0.0,0.0,0.0,0.0,0.0,0.0,0.0,0.0,0.0,0.0,0.0,0.0,0.0,0.0,0.0,0.0,2.9252,3.0162,3.0211,2.9364,2.7737,2.6397,0.0,0.0,0.0,0.0,0.0,0.0,0.0,0.0,0.0,0.0,0.0,0.0,0.0,0.0,0.0,0.0,0.0,0.0,0.0,0.0,0.0,0.0,0.0,0.0,0.0,0.0,0.0,0.0,0.0,0.0,0.0,0.0,0.0,0.0,0.0,0.0,0.0,0.0,0.0,0.0,0.0,0.0,0.0,0.0,0.0,0.0,0.0,0.0,0.0,0.0,0.0,0.0,0.0,0.0,0.0,0.0,0.0,0.0,0.0,0.0,0.0,0.0,0.0,0.0,0.0,0.0,0.0,0.0,0.0,0.0,0.0,0.0,0.0,0.0,0.0,0.0,0.0,0.0,0.0,0.0,0.0,0.0,0.0,0.0,0.0,0.0,0.0,0.0,0.0,0.0,0.0,0.0,0.0,0.0,0.0,0.0,0.0,0.0,0.0,0.0,0.0,0.0,0.0,0.0,0.0,0.0,0.0,0.0,0.0,3.0086,3.16,3.1729,3.0303,2.9195,2.7911,0.0,0.0,0.0,0.0,0.0,0.0,0.0,0.0,0.0,0.0,0.0,0.0,0.0,0.0,0.0,0.0,0.0,0.0,0.0,0.0,0.0,0.0,0.0,0.0,0.0,0.0,0.0,0.0,0.0,0.0,0.0,0.0,0.0,0.0,0.0,0.0,0.0,0.0,0.0,0.0,0.0,0.0,0.0,0.0,0.0,0.0,0.0,0.0,0.0,0.0,0.0,0.0,0.0,0.0,0.0,0.0,0.0,0.0,0.0,0.0,0.0,0.0,0.0,0.0,0.0,0.0,0.0,0.0,0.0,0.0,0.0,0.0,0.0,0.0,0.0,0.0,0.0,0.0,0.0,0.0,0.0,0.0,0.0,0.0,0.0,0.0,0.0,0.0,0.0,0.0,0.0,0.0,0.0,0.0,0.0,0.0,0.0,0.0,0.0,0.0,0.0,0.0,0.0,0.0,0.0,0.0,0.0,0.0,2.978,3.1472,3.2875,3.3171,3.2247,3.1003,2.9361,0.0,0.0,0.0,0.0,0.0,0.0,0.0,0.0,0.0,0.0,0.0,0.0,0.0,0.0,0.0,0.0,0.0,0.0,0.0,0.0,0.0,0.0,0.0,0.0,0.0,0.0,0.0,0.0,0.0,0.0,0.0,0.0,0.0,0.0,0.0,0.0,0.0,0.0,0.0,0.0,0.0,0.0,0.0,0.0,0.0,0.0,0.0,0.0,0.0,0.0,0.0,0.0,0.0,0.0,0.0,0.0,0.0,0.0,0.0,0.0,0.0,0.0,0.0,0.0,0.0,0.0,0.0,0.0,0.0,0.0,0.0,0.0,0.0,0.0,0.0,0.0,0.0,0.0,0.0,0.0,0.0,0.0,0.0,0.0,0.0,0.0,0.0,0.0,0.0,0.0,0.0,0.0,0.0,0.0,0.0,0.0,0.0,0.0,0.0,0.0,0.0,0.0,0.0,0.0,0.0,0.0,0.0,0.0,3.0452,3.3044,3.3963,3.4438,3.4436,3.2764,3.0617,0.0,0.0,0.0,0.0,0.0,0.0,0.0,0.0,0.0,0.0,0.0,0.0,0.0,0.0,0.0,0.0,0.0,0.0,0.0,0.0,0.0,0.0,0.0,0.0,0.0,0.0,0.0,0.0,0.0,0.0,0.0,0.0,0.0,0.0,0.0,0.0,0.0,0.0,0.0,0.0,0.0,0.0,0.0,0.0,0.0,0.0,0.0,0.0,0.0,0.0,0.0,0.0,0.0,0.0,0.0,0.0,0.0,0.0,0.0,0.0,0.0,0.0,0.0,0.0,0.0,0.0,0.0,0.0,0.0,0.0,0.0,0.0,0.0,0.0,0.0,0.0,0.0,0.0,0.0,0.0,0.0,0.0,0.0,0.0,0.0,0.0,0.0,0.0,0.0,0.0,0.0,0.0,0.0,0.0,0.0,0.0,0.0,0.0,0.0,0.0,0.0,0.0,0.0,0.0,0.0,0.0,0.0,0.0,3.1833,3.3826,3.4757,3.5005,3.4506,3.279,3.0942,0.0,0.0,0.0,0.0,0.0,0.0,0.0,0.0,0.0,0.0,0.0,0.0,0.0,0.0,0.0,0.0,0.0,0.0,0.0,0.0,0.0,0.0,0.0,0.0,0.0,0.0,0.0,0.0,0.0,0.0,0.0,0.0,0.0,0.0,0.0,0.0,0.0,0.0,0.0,0.0,0.0,0.0,0.0,0.0,0.0,0.0,0.0,0.0,3.0798,0.0,0.0,0.0,0.0,0.0,0.0,0.0,0.0,0.0,0.0,0.0,0.0,0.0,0.0,0.0,0.0,0.0,0.0,0.0,0.0,0.0,0.0,0.0,0.0,0.0,0.0,0.0,0.0,0.0,0.0,0.0,0.0,0.0,0.0,0.0,0.0,0.0,0.0,0.0,0.0,0.0,0.0,0.0,0.0,0.0,0.0,0.0,0.0,0.0,0.0,0.0,0.0,0.0,0.0,0.0,0.0,0.0,0.0,0.0,3.2649,3.404,3.5027,3.535,3.502,3.3382,3.1426,0.0,0.0,0.0,0.0,0.0,0.0,0.0,0.0,0.0,0.0,0.0,0.0,0.0,0.0,0.0,0.0,0.0,0.0,0.0,0.0,0.0,0.0,0.0,0.0,0.0,0.0,0.0,0.0,0.0,0.0,0.0,0.0,0.0,0.0,0.0,0.0,0.0,0.0,0.0,0.0,0.0,0.0,0.0,0.0,0.0,0.0,0.0,0.0,0.0,0.0,0.0,0.0,0.0,0.0,0.0,0.0,0.0,0.0,0.0,0.0,0.0,0.0,0.0,0.0,0.0,0.0,0.0,0.0,0.0,0.0,0.0,0.0,0.0,0.0,0.0,0.0,0.0,0.0,0.0,0.0,0.0,0.0,0.0,0.0,0.0,0.0,0.0,0.0,0.0,0.0,0.0,0.0,0.0,0.0,0.0,0.0,0.0,0.0,0.0,0.0,0.0,0.0,0.0,0.0,0.0,0.0,0.0,3.1925,3.3236,3.4261,3.5185,3.5662,3.565,3.4013,3.1923,2.9516,0.0,0.0,0.0,0.0,0.0,0.0,0.0,0.0,0.0,0.0,0.0,0.0,0.0,0.0,0.0,0.0,0.0,0.0,0.0,0.0,0.0,0.0,0.0,0.0,0.0,0.0,0.0,0.0,0.0,0.0,0.0,0.0,0.0,0.0,0.0,0.0,0.0,0.0,2.8751,3.0174,0.0,0.0,0.0,0.0,0.0,0.0,0.0,0.0,3.0891,0.0,0.0,0.0,0.0,0.0,0.0,0.0,0.0,0.0,0.0,0.0,0.0,0.0,0.0,0.0,0.0,0.0,0.0,0.0,0.0,0.0,0.0,0.0,0.0,0.0,0.0,0.0,0.0,0.0,0.0,0.0,0.0,0.0,0.0,0.0,0.0,0.0,0.0,0.0,0.0,0.0,0.0,0.0,0.0,0.0,0.0,0.0,0.0,0.0,0.0,0.0,0.0,0.0,0.0,0.0,0.0,3.1936,3.2958,3.3971,3.507,3.5891,3.6084,3.5588,3.3972,3.2211,3.0356,0.0,0.0,0.0,0.0,0.0,0.0,0.0,0.0,0.0,0.0,0.0,0.0,0.0,0.0,0.0,0.0,0.0,0.0,0.0,0.0,0.0,0.0,0.0,0.0,0.0,0.0,0.0,0.0,0.0,0.0,0.0,0.0,0.0,0.0,0.0,0.0,0.0,0.0,0.0,3.2289,3.2655,0.0,0.0,0.0,0.0,0.0,0.0,0.0,0.0,3.1291,0.0,0.0,0.0,0.0,0.0,0.0,0.0,0.0,0.0,0.0,0.0,0.0,0.0,0.0,0.0,0.0,0.0,0.0,0.0,0.0,0.0,0.0,0.0,0.0,0.0,0.0,0.0,0.0,0.0,0.0,0.0,0.0,0.0,0.0,0.0,0.0,0.0,0.0,0.0,0.0,0.0,0.0,0.0,0.0,0.0,0.0,0.0,0.0,0.0,0.0,0.0,0.0,0.0,0.0,0.0,3.2883,3.4225,3.5192,3.5804,3.6288,3.6234,3.5526,3.3894,3.2204,0.0,0.0,0.0,0.0,0.0,0.0,0.0,0.0,0.0,0.0,0.0,0.0,0.0,0.0,0.0,0.0,0.0,0.0,0.0,0.0,0.0,0.0,0.0,0.0,0.0,0.0,0.0,0.0,0.0,0.0,0.0,0.0,0.0,0.0,0.0,0.0,0.0,0.0,0.0,0.0,3.3092,3.3356,3.3348,0.0,0.0,0.0,0.0,0.0,0.0,3.146,3.1607,0.0,0.0,0.0,0.0,0.0,0.0,0.0,0.0,0.0,0.0,0.0,0.0,0.0,0.0,0.0,0.0,0.0,0.0,0.0,0.0,0.0,0.0,0.0,0.0,0.0,0.0,0.0,0.0,0.0,0.0,0.0,0.0,0.0,0.0,0.0,0.0,0.0,0.0,0.0,0.0,0.0,0.0,0.0,0.0,0.0,0.0,0.0,0.0,0.0,0.0,0.0,0.0,0.0,0.0,0.0,3.3502,3.5205,3.6234,3.6539,3.6891,3.6619,3.5732,3.4205,3.2436,0.0,0.0,0.0,0.0,0.0,0.0,0.0,0.0,0.0,0.0,0.0,0.0,0.0,0.0,0.0,0.0,0.0,0.0,0.0,0.0,0.0,0.0,0.0,0.0,0.0,0.0,0.0,0.0,0.0,0.0,0.0,0.0,0.0,0.0,0.0,0.0,0.0,0.0,0.0,0.0,0.0,3.4018,3.4314,3.391,0.0,0.0,0.0,0.0,3.1648,3.2294,0.0,0.0,0.0,0.0,0.0,0.0,0.0,0.0,0.0,0.0,0.0,0.0,0.0,0.0,0.0,0.0,0.0,0.0,0.0,0.0,0.0,0.0,0.0,0.0,0.0,0.0,0.0,0.0,0.0,0.0,0.0,0.0,0.0,0.0,0.0,0.0,0.0,0.0,0.0,0.0,0.0,0.0,0.0,0.0,0.0,0.0,0.0,0.0,0.0,0.0,0.0,0.0,0.0,0.0,0.0,0.0,3.3448,3.5087,3.6398,3.7338,3.8137,3.7887,3.6504,3.5534,3.3556,0.0,0.0,0.0,0.0,0.0,0.0,0.0,0.0,0.0,0.0,0.0,0.0,0.0,0.0,0.0,0.0,0.0,0.0,0.0,0.0,0.0,0.0,0.0,0.0,0.0,0.0,0.0,0.0,0.0,0.0,0.0,0.0,0.0,0.0,0.0,0.0,0.0,0.0,0.0,0.0,0.0,3.509,3.3736,3.4077,3.4169,0.0,0.0,0.0,3.4057,3.4884,0.0,0.0,0.0,0.0,0.0,0.0,0.0,0.0,0.0,0.0,0.0,0.0,0.0,0.0,0.0,0.0,0.0,0.0,0.0,0.0,0.0,0.0,0.0,0.0,0.0,0.0,0.0,0.0,0.0,0.0,0.0,0.0,0.0,0.0,0.0,0.0,0.0,0.0,0.0,0.0,0.0,0.0,0.0,0.0,0.0,0.0,0.0,0.0,0.0,0.0,0.0,0.0,0.0,0.0,0.0,3.1925,3.4041,3.5649,3.6998,3.8029,3.8493,3.8004,3.6509,3.519,3.3402,0.0,0.0,0.0,0.0,0.0,0.0,0.0,0.0,0.0,0.0,0.0,0.0,0.0,0.0,0.0,0.0,0.0,0.0,0.0,0.0,0.0,0.0,0.0,0.0,0.0,0.0,0.0,0.0,0.0,0.0,0.0,0.0,0.0,0.0,0.0,0.0,0.0,0.0,0.0,0.0,0.0,0.0,3.4917,3.556,0.0,0.0,0.0,3.4944,3.5271,0.0,0.0,0.0,0.0,0.0,0.0,0.0,0.0,0.0,0.0,0.0,0.0,0.0,0.0,0.0,0.0,0.0,0.0,0.0,0.0,0.0,0.0,0.0,0.0,0.0,0.0,0.0,0.0,0.0,0.0,0.0,0.0,0.0,0.0,0.0,0.0,0.0,0.0,0.0,0.0,0.0,0.0,0.0,0.0,0.0,0.0,0.0,0.0,0.0,0.0,0.0,0.0,0.0,0.0,0.0,0.0,0.0,3.4473,3.6259,3.7697,3.87,3.8877,3.819,3.6691,3.545,0.0,0.0,0.0,0.0,0.0,0.0,0.0,0.0,0.0,0.0,0.0,0.0,0.0,0.0,0.0,0.0,0.0,0.0,0.0,0.0,0.0,0.0,0.0,0.0,0.0,0.0,0.0,0.0,0.0,0.0,0.0,0.0,0.0,0.0,0.0,0.0,0.0,0.0,0.0,0.0,0.0,0.0,3.6071,3.5924,3.6826,3.7267,0.0,0.0,3.6543,3.6537,3.6921,3.6454,0.0,0.0,0.0,0.0,0.0,0.0,0.0,0.0,0.0,0.0,0.0,0.0,0.0,0.0,0.0,0.0,0.0,0.0,0.0,0.0,0.0,0.0,0.0,0.0,0.0,0.0,0.0,0.0,0.0,0.0,0.0,0.0,0.0,0.0,0.0,0.0,0.0,0.0,0.0,0.0,0.0,0.0,0.0,0.0,0.0,0.0,0.0,0.0,0.0,0.0,0.0,0.0,0.0,0.0,0.0,3.4404,3.6721,3.8402,3.937,3.9552,3.8893,3.739,3.7357,3.5451,0.0,0.0,0.0,0.0,0.0,0.0,0.0,0.0,0.0,0.0,0.0,0.0,0.0,0.0,0.0,0.0,0.0,0.0,0.0,0.0,0.0,0.0,0.0,0.0,0.0,0.0,0.0,0.0,0.0,0.0,0.0,0.0,0.0,0.0,0.0,0.0,0.0,0.0,0.0,0.0,0.0,3.6732,3.5989,3.728,3.8312,0.0,0.0,3.8338,3.8325,3.9611,3.9552,3.6259,0.0,0.0,0.0,0.0,0.0,0.0,0.0,0.0,0.0,0.0,0.0,0.0,0.0,0.0,0.0,0.0,0.0,0.0,0.0,0.0,0.0,0.0,0.0,0.0,0.0,0.0,0.0,0.0,0.0,0.0,0.0,0.0,0.0,0.0,0.0,0.0,0.0,0.0,0.0,0.0,0.0,0.0,0.0,0.0,0.0,0.0,0.0,0.0,0.0,0.0,0.0,0.0,0.0,3.3054,3.4414,3.7177,3.8912,3.9483,4.0071,3.9402,3.7385,3.6955,3.5551,0.0,0.0,0.0,0.0,0.0,0.0,0.0,0.0,0.0,0.0,0.0,0.0,0.0,0.0,0.0,0.0,0.0,0.0,0.0,0.0,0.0,0.0,0.0,0.0,0.0,0.0,0.0,0.0,2.6645,2.6762,2.7353,0.0,0.0,0.0,0.0,0.0,0.0,0.0,0.0,0.0,0.0,3.7141,3.7397,3.8459,0.0,0.0,3.926,3.9487,3.9961,3.9708,3.8825,3.698,3.6103,0.0,0.0,0.0,0.0,0.0,0.0,0.0,0.0,0.0,0.0,0.0,0.0,0.0,0.0,0.0,0.0,0.0,0.0,0.0,0.0,0.0,0.0,0.0,0.0,0.0,0.0,0.0,0.0,0.0,0.0,0.0,0.0,0.0,0.0,0.0,0.0,0.0,0.0,0.0,0.0,0.0,0.0,0.0,0.0,0.0,0.0,0.0,0.0,0.0,0.0,0.0,0.0,3.3297,3.4344,3.7394,3.912,3.9399,4.0045,3.9382,3.7335,3.6799,3.5723,0.0,0.0,0.0,0.0,0.0,0.0,0.0,0.0,0.0,0.0,0.0,0.0,0.0,0.0,0.0,0.0,0.0,0.0,0.0,0.0,0.0,0.0,0.0,0.0,0.0,0.0,0.0,0.0,2.7466,2.7616,2.8538,0.0,0.0,0.0,0.0,0.0,0.0,0.0,0.0,0.0,0.0,3.7996,3.8656,3.9488,4.0046,4.0073,4.0103,4.0377,4.0921,4.002,3.8961,3.8085,0.0,0.0,0.0,0.0,0.0,0.0,0.0,0.0,0.0,0.0,0.0,0.0,0.0,0.0,0.0,0.0,0.0,0.0,0.0,0.0,0.0,0.0,0.0,0.0,0.0,0.0,0.0,0.0,0.0,0.0,2.4607,0.0,0.0,0.0,0.0,0.0,0.0,0.0,0.0,0.0,0.0,0.0,0.0,0.0,0.0,0.0,0.0,0.0,0.0,0.0,0.0,0.0,0.0,0.0,3.4234,3.7405,3.9044,3.9248,3.938,3.8758,3.7205,3.7286,3.6273,3.3946,0.0,0.0,0.0,0.0,0.0,0.0,0.0,0.0,0.0,0.0,0.0,0.0,0.0,0.0,0.0,0.0,0.0,0.0,0.0,0.0,0.0,0.0,0.0,0.0,0.0,0.0,2.7733,2.8441,2.9301,0.0,0.0,0.0,0.0,0.0,0.0,0.0,0.0,0.0,0.0,3.7881,3.9472,3.9566,4.0315,4.0878,4.0846,4.0937,4.0999,4.0996,4.0933,4.0655,0.0,0.0,0.0,0.0,0.0,0.0,0.0,0.0,0.0,0.0,0.0,0.0,0.0,0.0,0.0,0.0,0.0,0.0,0.0,0.0,0.0,0.0,0.0,0.0,0.0,0.0,0.0,2.3727,2.4038,0.0,0.0,0.0,0.0,0.0,0.0,0.0,0.0,0.0,0.0,0.0,3.0738,3.0691,0.0,0.0,0.0,0.0,0.0,0.0,0.0,0.0,0.0,0.0,0.0,0.0,3.4338,3.5884,3.895,4.0348,3.9955,4.0626,3.9993,3.7967,3.7521,3.6214,3.3913,0.0,0.0,0.0,0.0,0.0,0.0,0.0,0.0,0.0,0.0,0.0,0.0,0.0,0.0,0.0,0.0,0.0,0.0,0.0,0.0,0.0,0.0,0.0,0.0,0.0,2.7984,0.0,0.0,0.0,0.0,0.0,0.0,0.0,0.0,0.0,0.0,0.0,3.6045,3.7158,3.8574,3.97,4.0266,4.1108,4.151,0.0,0.0,0.0,0.0,0.0,0.0,0.0,0.0,0.0,0.0,0.0,0.0,0.0,0.0,3.9765,3.7194,3.6946,3.6775,3.5588,0.0,0.0,0.0,0.0,0.0,0.0,0.0,0.0,0.0,0.0,0.0,0.0,0.0,0.0,0.0,0.0,2.5042,0.0,0.0,0.0,0.0,0.0,0.0,0.0,0.0,2.9691,3.047,3.1359,3.1352,3.1352,0.0,3.1678,3.1624,0.0,0.0,0.0,0.0,0.0,0.0,0.0,0.0,3.5311,3.6562,3.9697,4.0972,4.0335,4.0989,4.0397,3.8327,3.7404,3.6062,3.4279,3.4023,3.3372,0.0,0.0,0.0,0.0,0.0,0.0,0.0,0.0,0.0,0.0,0.0,0.0,0.0,0.0,0.0,0.0,0.0,0.0,0.0,0.0,0.0,0.0,0.0,2.8842,0.0,0.0,0.0,0.0,0.0,0.0,0.0,0.0,0.0,3.4751,3.5733,3.6928,3.8311,3.9534,4.0397,4.0668,0.0,0.0,0.0,0.0,0.0,0.0,0.0,4.103,4.1057,4.0623,4.0357,4.0623,4.1831,4.2284,4.0848,0.0,0.0,3.8968,3.8213,3.7808,3.7229,3.7598,3.8074,3.8276,3.8786,3.9259,0.0,0.0,0.0,0.0,0.0,0.0,0.0,0.0,2.6248,2.6745,0.0,2.6057,0.0,0.0,0.0,0.0,0.0,0.0,0.0,0.0,3.0691,3.1378,3.1399,3.1409,3.1407,3.1503,3.2227,3.2537,3.2454,3.1254,0.0,0.0,0.0,0.0,0.0,0.0,3.6185,3.6578,3.9637,4.0929,4.0288,4.0523,3.9866,3.8259,3.6936,3.5874,3.5077,3.4331,3.3889,3.3779,3.2317,0.0,0.0,0.0,0.0,0.0,0.0,0.0,0.0,0.0,0.0,0.0,0.0,0.0,0.0,0.0,0.0,0.0,0.0,0.0,0.0,3.018,0.0,0.0,0.0,0.0,0.0,0.0,0.0,0.0,0.0,0.0,3.5649,3.6959,3.827,3.9167,0.0,0.0,0.0,0.0,4.3047,4.226,4.2869,4.3427,4.3361,4.3413,4.348,4.3525,0.0,0.0,4.2468,4.3077,4.3393,4.2498,4.2972,4.3024,4.1371,4.0399,3.9838,3.9733,3.9801,4.0073,4.0682,4.0843,4.1122,2.9144,0.0,0.0,0.0,0.0,2.6707,2.6901,2.7343,2.7469,2.7402,2.7265,2.6968,0.0,0.0,0.0,0.0,0.0,0.0,3.0574,3.2237,3.3128,3.3887,3.4527,3.4407,3.4437,3.4557,3.4222,3.3814,3.3286,3.2893,3.2727,3.2753,0.0,0.0,0.0,0.0,3.7008,3.8899,4.0977,4.1709,4.0991,4.1248,4.04,3.8327,3.7397,3.6564,3.5816,3.5022,3.4356,3.3823,3.3361,0.0,0.0,0.0,0.0,0.0,0.0,0.0,0.0,0.0,0.0,0.0,0.0,0.0,0.0,0.0,0.0,0.0,0.0,0.0,3.0066,3.1146,3.1619,0.0,0.0,0.0,0.0,0.0,0.0,0.0,0.0,0.0,3.7836,3.8424,3.8857,0.0,0.0,4.1755,4.16,4.3028,4.3844,4.3027,0.0,0.0,0.0,4.347,4.353,4.3519,4.4042,4.4184,4.3369,4.4417,4.4898,4.345,4.385,4.4084,4.3054,4.2607,4.2384,4.2374,4.2393,4.2451,4.2615,4.2651,4.2734,3.1597,3.056,2.9233,2.8602,2.8375,2.8049,2.8181,2.8601,2.8741,2.8816,2.877,2.8326,2.807,2.7933,2.7608,0.0,0.0,0.0,3.1582,3.3659,3.3984,3.4666,3.5588,3.5475,3.5508,3.567,3.5263,3.4818,3.4407,3.4484,3.4811,3.5309,0.0,0.0,3.5757,3.6807,3.8305,4.0212,4.1915,4.2423,4.1785,4.1452,4.0307,3.8394,3.76,3.6839,3.6094,3.5284,3.4661,3.4263,3.392,3.3539,0.0,0.0,0.0,0.0,0.0,0.0,0.0,0.0,0.0,0.0,0.0,2.8063,0.0,0.0,0.0,0.0,3.0567,3.0443,3.095,3.1936,0.0,0.0,0.0,0.0,0.0,0.0,0.0,3.6205,3.696,3.7827,3.8877,3.9564,4.0021,4.0093,4.1332,4.2264,4.2329,0.0,4.4684,4.3815,4.4504,4.4957,4.4471,4.4458,4.452,4.4521,4.4947,4.5148,4.4748,4.5471,4.5697,4.489,4.4948,4.5122,4.4598,4.4501,4.4248,4.3666,4.3802,4.3986,4.3956,4.4176,4.4374,3.3178,3.275,3.0446,2.9366,2.9141,2.8969,2.9225,2.9781,3.0082,3.0612,3.1135,2.9915,2.9751,3.0392,2.9656,0.0,3.1376,3.1532,3.2451,3.3882,3.3986,3.4516,3.5349,3.5366,3.5383,3.5486,3.5565,3.5645,3.5678,3.5928,3.6707,3.7913,3.5977,3.572,3.7268,3.863,3.982,4.0894,4.2463,4.3054,4.2514,4.1249,3.9885,3.8514,3.769,3.6889,3.6125,3.5296,3.4884,3.4868,3.4169,3.379,3.3771,0.0,0.0,0.0,0.0,0.0,0.0,0.0,0.0,0.0,0.0,0.0,0.0,0.0,0.0,0.0,3.2576,0.0,3.239,3.2609,0.0,0.0,0.0,3.4501,3.5369,3.6124,3.6913,3.7766,0.0,0.0,0.0,0.0,4.1395,4.1628,4.2451,4.302,4.3088,4.4592,4.5445,4.4703,4.5316,4.5887,4.5738,4.5813,4.5859,4.5911,4.6095,4.6035,4.5996,4.6036,4.6076,4.5998,4.6037,4.5958,4.5977,4.588,4.5511,4.4044,4.4365,4.4889,4.4909,4.5351,4.5743,3.2568,3.2449,3.1498,3.1185,3.1237,3.0773,3.0762,3.1045,3.1194,3.1096,3.082,3.0657,3.0354,3.0053,3.0209,3.0906,3.2039,3.3049,3.4244,3.5507,3.5902,3.6385,3.686,3.6712,3.675,3.6861,3.6328,3.6131,3.6339,3.707,3.7608,3.7934,3.8528,3.9067,3.9572,3.9932,4.0637,4.1721,4.2757,4.3039,4.2493,4.1104,4.0216,3.9835,3.8602,3.7601,3.6859,3.6076,3.5369,3.4865,3.464,3.4545,3.4526,3.3772,0.0,0.0,0.0,0.0,0.0,0.0,0.0,0.0,0.0,3.043,3.1919,0.0,3.26,0.0,3.3787,3.3556,3.2315,3.3431,0.0,0.0,3.478,3.5753,3.6007,3.6749,3.7565,3.8325,3.8651,3.9317,4.0591,4.1024,4.1724,4.2978,4.3577,4.3923,4.4034,4.4966,4.5629,4.5465,4.5626,4.5838,4.5906,4.5956,4.6014,4.6095,4.6047,4.6037,4.6093,4.6056,4.6037,4.6095,4.6037,4.6007,4.5997,4.5977,4.5869,4.549,4.5597,4.5705,4.5725,4.5817,4.5886,3.1878,3.1806,3.1603,3.1565,3.164,3.1312,3.1269,3.1406,3.1542,3.1414,3.1127,3.1218,3.1236,3.1183,3.1379,3.217,3.3429,3.4117,3.5054,3.6182,3.6539,3.6851,3.7126,3.7087,3.7126,3.7223,3.6856,3.6753,3.6916,3.7882,3.851,3.8814,4.0109,4.0899,4.1202,4.0955,4.1377,4.2505,4.3067,4.3075,4.2465,4.1385,4.0622,4.028,3.8864,3.7922,3.7566,3.6414,3.5638,3.5251,3.5254,3.5145,3.4807,3.4675,3.4636,0.0,0.0,0.0,0.0,0.0,0.0,0.0,0.0,0.0,0.0,0.0,3.359,0.0,3.4505,0.0,3.432,3.4917,3.5341,3.5306,3.6156,3.686,3.7179,3.7649,3.8244,3.8987,3.947,4.0097,4.1026,4.1718,4.2494,4.3526,4.4214,4.4631,4.4729,4.5244,4.5673,4.5687,4.5735,4.5776,4.5847,4.5919,4.5968,4.5994,4.5975,4.5975,4.6007,4.6016,4.6005,4.6005,4.6005,4.5986,4.5994,4.5964,4.5953,4.6003,4.5983,4.5964,4.5964,4.5929,4.5912,3.1472,3.1331,3.145,3.1506,3.1489,3.1421,3.1399,3.1372,3.1542,3.1617,3.1634,3.1682,3.2111,3.2762,3.277,3.3529,3.4848,3.4866,3.5386,3.6284,3.6444,3.6602,3.6771,3.6908,3.6987,3.6987,3.7182,3.7259,3.7332,3.8431,3.933,3.9893,4.0963,4.1769,4.2216,4.1791,4.206,4.3102,4.3359,4.3183,4.2551,4.1773,4.1082,4.0399,3.8924,3.8111,3.8059,3.675,3.5974,3.595,3.5995,3.576,3.5164,3.5706,3.5703,0.0,3.4216,0.0,0.0,0.0,0.0,0.0,0.0,0.0,0.0,3.4016,3.4745,3.5591,3.4913,3.5105,3.6892,3.6418,3.6314,3.7133,3.7433,3.7774,3.8361,3.8558,3.8883,3.9561,4.0376,4.0922,4.1098,4.2372,4.3359,4.3756,4.4407,4.4947,4.5118,4.5362,4.5624,4.5791,4.5957,4.6271,4.6269,4.6156,4.61,4.6087,4.5983,4.5905,4.5905,4.5949,4.596,4.5917,4.5949,4.6019,4.6108,4.6026,4.5956,4.6143,4.6169,4.608,4.5925,4.588,4.5893,3.2407,3.2467,3.251,3.2527,3.2527,3.2577,3.2167,3.1542,3.1765,3.1802,3.1815,3.2149,3.2429,3.2713,3.3684,3.4423,3.4899,3.5497,3.5968,3.6301,3.6461,3.6602,3.6725,3.6788,3.6829,3.6869,3.697,3.7105,3.7182,3.883,3.9651,3.9691,4.1319,4.2126,4.2127,0.0,0.0,0.0,4.3323,4.3391,4.3256,4.194,4.1193,4.1083,3.9676,0.0,3.8037,3.7779,3.738,3.6817,3.6785,0.0,0.0,0.0,0.0,0.0,0.0,0.0,0.0,0.0,0.0,0.0,3.5168,3.4729,3.4167,3.4242,3.467,3.5515,3.4838,3.503,3.6677,3.6241,3.6164,3.6979,3.7709,3.8163,3.8197,3.8774,3.9303,3.9369,4.0246,4.1067,4.1743,4.2592,4.3455,4.4156,4.4546,4.4726,4.487,4.5199,4.5726,4.6471,4.706,4.7687,4.7828,4.7182,4.6709,4.68,4.6274,4.5951,4.5899,4.5925,4.591,4.5905,4.5893,4.6203,4.6778,4.6402,4.6145,4.6751,4.69,4.6752,4.606,4.5867,4.5827,3.2442,0.0,3.25,3.2574,0.0,3.2829,3.2757,3.2554,3.252,3.2576,3.2588,3.2778,3.3051,3.3448,3.3846,3.4279,3.4763,3.4974,3.5263,3.5666,3.589,3.618,3.6485,3.6667,3.6766,3.6766,3.6829,3.6926,3.7058,3.8654,3.9494,3.957,4.1197,4.1959,4.1849,4.2103,4.2552,4.316,4.3251,4.3359,4.3373,4.1937,4.1172,4.1212,0.0,0.0,0.0,0.0,0.0,0.0,0.0,0.0,0.0,0.0,0.0,3.6607,3.6547,3.6314,3.5878,3.5754,3.5871,3.6155,3.604,3.5803,3.541,3.5391,3.5743,3.6575,3.5925,3.6136,3.7757,3.7331,3.7237,3.8072,3.8592,3.8788,3.876,3.9426,3.99,3.9993,4.1035,4.2025,4.2343,4.3108,4.382,4.4365,4.4496,4.4605,4.477,4.5065,4.5472,4.6014,4.6474,4.6854,4.6906,4.6651,4.641,4.6291,4.6061,4.5838,4.5805,4.617,4.6313,4.6002,4.6466,4.7061,4.6524,4.6413,4.6457,4.6506,4.6815,4.6776,4.6051,4.6457,4.7071,3.2463,3.2463,3.243,3.276,3.3259,3.3155,3.3372,3.3761,0.0,0.0,0.0,3.3397,3.3715,3.4253,3.3938,3.4143,3.4711,3.4453,3.4644,3.5112,3.5428,3.5907,3.6465,3.671,3.6922,3.7002,3.7061,3.7126,3.7242,3.8604,3.9396,3.9722,4.0971,4.1657,4.1692,4.1934,4.2351,4.2992,4.3123,4.3269,4.3358,4.2017,4.1273,4.1204,3.9768,3.898,3.8979,3.8405,3.8135,3.8197,3.8327,3.8103,3.7529,3.8121,3.8145,3.738,3.737,3.7249,3.7023,3.698,3.6914,3.6875,3.6915,3.6777,3.6546,3.6509,3.6842,3.7692,3.7072,3.7275,3.8989,3.8439,3.8335,3.9253,3.9477,3.9552,3.9481,4.0168,4.0677,4.0791,4.189,4.2869,4.2809,4.3565,4.4244,4.4373,4.443,4.4524,4.4738,4.5095,4.5456,4.5681,4.6222,4.6262,4.6187,4.6185,4.603,4.6236,4.5921,4.5665,4.5796,4.6283,4.6472,4.6136,4.7075,4.7264,4.6688,4.6793,4.6877,4.6522,4.6934,4.7227,4.6706,4.7642,4.8539,3.3609,3.3508,3.3743,3.4315,3.4987,3.4496,3.449,3.481,3.3888,3.3439,3.3532,3.3963,3.4158,3.4236,3.4767,3.5115,3.5199,3.5307,3.544,0.0,3.5822,3.6319,3.6977,3.7275,3.7707,3.8328,3.8486,3.8616,3.8703,3.9634,4.0106,4.0132,4.1006,4.1587,4.1831,4.1917,4.2169,4.2649,4.2974,4.3196,4.3376,4.2498,4.1776,4.1222,4.032,3.9522,3.8929,3.8868,3.8869,3.8915,3.9016,3.9085,3.9158,3.9233,3.8983,3.8225,3.8083,3.7759,3.7055,3.6907,3.7028,3.7544,3.8114,3.7929,3.663,3.6509,3.6842,3.7581,3.71,3.7266,3.8757,3.8442,3.8404,3.911,3.9844,4.0253,4.0262,4.0977,4.146,4.1441,4.2203,4.2846,4.2946,4.3553,4.4116,4.4285,4.4344,4.4401,4.4726,4.5433,4.6007,4.6348,4.7461,4.8334,4.8058,4.793,4.7452,4.7664,4.6432,4.5637,4.5699,4.596,4.6262,4.6687,4.6706,4.7034,4.8229,4.7822,4.7675,4.8256,4.868,4.8776,4.8471,4.9298,4.9525,3.397,3.4254,3.4322,3.4897,3.572,3.5638,3.563,3.5704,3.5622,3.5127,3.4488,3.5023,3.5048,3.4655,3.514,3.5337,3.5383,3.5756,3.6048,3.6271,3.659,3.7045,3.7558,3.7809,3.8025,3.8351,3.855,3.8684,3.8814,3.9579,4.0006,4.0137,4.085,4.138,4.1631,4.1675,4.1977,4.245,4.2783,4.3012,4.3123,4.243,4.1986,4.1739,4.0593,3.9829,3.9534,3.9102,3.8921,3.8979,3.9101,3.9183,3.9275,3.9373,3.9282,3.8933,3.8871,3.8651,3.8226,3.8032,3.8035,3.828,3.8994,3.913,3.8394,3.7934,3.7871,3.828,3.8364,3.8744,3.9571,3.97,3.9915,4.0401,4.0812,4.0999,4.1136,4.1783,4.2217,4.2333,4.2946,4.3448,4.3448,4.3782,4.4067,4.4255,4.4344,4.444,4.4542,4.4942,4.5344,4.5613,4.6654,4.7391,4.764,4.7379,4.7114,4.7136,4.6185,4.5726,4.6033,4.6472,4.6833,4.6971,4.7453,4.8049,4.8375,4.8221,4.8375,4.8395,4.9047,4.9105,4.8854,4.9239,4.9548,3.4277,3.459,3.4711,3.5256,3.6077,3.6596,3.6684,3.6505,3.7186,3.6771,3.5723,3.622,3.6072,3.5477,3.5682,3.5793,3.587,3.6248,3.6661,3.6971,3.7331,3.7786,3.8231,3.8376,3.8525,3.8662,3.8836,3.8992,3.9124,3.9698,4.0084,4.029,4.0799,4.1169,4.1426,4.1515,4.1762,4.2205,4.249,4.2709,4.2862,4.2487,4.2212,4.2079,4.1064,4.0373,4.0252,3.9657,3.9374,3.9416,3.9515,3.9527,3.9398,3.9713,3.9757,3.9485,3.956,3.9581,3.9435,3.9256,3.9202,3.9344,3.9871,4.0175,4.012,3.9625,3.9252,3.9387,3.9878,4.0277,4.0473,4.0868,4.136,4.1512,4.164,4.1725,4.1869,4.2539,4.3008,4.3089,4.3602,4.3942,4.3974,4.3974,4.4085,4.4255,4.4383,4.4468,4.4515,4.4496,4.4605,4.4915,4.5609,4.6404,4.6516,4.6701,4.6824,4.6862,4.6418,4.6328,4.6793,4.7453,4.7761,4.747,4.8311,4.8696,4.7583,4.7986,4.856,4.8462,4.8999,4.9286,4.8884,4.9154,4.9677,3.5006,3.4485,3.5181,3.5796,3.6319,3.7171,3.7373,3.7152,3.7798,3.7682,3.697,3.7137,3.7087,3.6903,3.692,3.6904,3.697,3.7234,3.7414,3.7498,3.7756,3.8241,3.8885,3.9033,3.9455,4.0014,4.026,4.0353,4.0371,4.0634,4.0797,4.0832,4.0901,4.1076,4.1398,4.1426,4.1622,4.1987,4.2139,4.2351,4.2783,4.2939,4.2668,4.2064,4.2056,4.1735,4.102,4.0974,4.0964,4.0983,4.1003,4.0799,4.0344,4.094,4.0774,3.957,4.0047,4.0309,4.0148,3.997,4.0191,4.0891,4.0942,4.0983,4.1001,4.0946,4.0873,4.091,4.0993,4.1075,4.1125,4.1285,4.1446,4.1601,4.2062,4.243,4.2539,4.3185,4.3707,4.3717,4.3758,4.3851,4.3897,4.3929,4.4042,4.4255,4.4373,4.444,4.4487,4.4515,4.4542,4.4737,4.5375,4.6248,4.6973,4.729,4.7587,4.8275,4.7929,4.7537,4.756,4.7758,4.7917,4.8261,4.7876,4.7818,4.828,4.849,4.8296,4.8923,4.9472,5.0021,5.0007,5.0015,5.0218,3.5514,3.5568,3.5925,3.6501,3.7263,3.7864,3.7861,3.7538,3.8457,3.8444,3.7864,3.8247,3.7965,3.7168,3.7549,3.7748,3.7798,3.8488,3.8773,3.8841,3.9092,3.936,3.9614,3.9697,3.9917,4.0171,4.0387,4.0436,4.0502,4.0697,4.1047,4.144,4.1112,4.1237,4.1806,4.1441,4.137,4.1622,4.1736,4.1934,4.2246,4.2667,4.2792,4.2504,4.232,4.2093,4.1656,4.1317,4.1126,4.1158,4.1204,4.1119,4.0849,4.1225,4.1144,4.0603,4.0796,4.094,4.08,4.0738,4.0822,4.1126,4.1534,4.1809,4.1846,4.2249,4.2525,4.247,4.2117,4.1875,4.1958,4.2312,4.264,4.2775,4.3028,4.319,4.3272,4.3586,4.3796,4.3789,4.3804,4.3837,4.3915,4.4011,4.4123,4.4244,4.4362,4.4505,4.4458,4.4487,4.4496,4.4617,4.5237,4.6139,4.7068,4.7718,4.817,4.8439,4.801,4.7562,4.8256,4.837,4.8571,4.8919,4.8533,4.83,4.881,4.9229,4.9325,4.97,4.9758,5.0158,5.0158,5.0174,5.0225,3.6064,3.6379,3.6611,3.7281,3.8059,3.8303,3.8362,3.8224,3.8987,3.8974,3.8576,3.9056,3.8709,3.7864,3.8278,3.851,3.8629,3.9287,3.9677,3.9729,3.9918,4.007,4.0087,4.0087,4.0087,4.0138,4.0238,4.0457,4.0677,4.094,4.1481,4.2112,4.1767,4.1778,4.2068,4.1648,4.1377,4.1398,4.1515,4.1631,4.1866,4.2369,4.2667,4.2673,4.2559,4.2428,4.2321,4.1965,4.1754,4.1772,4.1801,4.1724,4.1553,4.177,4.182,4.1612,4.1409,4.1378,4.1517,4.1503,4.1581,4.1772,4.2323,4.2635,4.2727,4.3167,4.3461,4.3406,4.2965,4.265,4.2739,4.3164,4.3548,4.3686,4.3603,4.3618,4.3679,4.371,4.3713,4.3708,4.3686,4.3863,4.4165,4.4586,4.4904,4.4948,4.5002,4.4897,4.4757,4.4815,4.4843,4.4843,4.5547,4.6318,4.709,4.7815,4.8391,4.8749,4.8418,4.8397,4.8913,4.9007,4.9053,4.9288,4.9462,4.9246,4.8776,4.9181,4.9644,4.9917,5.0031,5.0057,5.0082,5.0106,5.0111,3.6739,3.6389,3.7266,3.787,3.8391,3.8528,3.8843,3.9086,3.9255,3.9255,3.9172,3.9239,3.9239,3.9106,3.9123,3.9222,3.9276,3.9398,3.959,3.9729,3.9833,3.9986,4.0087,4.0087,4.0087,4.0138,4.0188,4.0728,4.1608,4.1808,4.2354,4.3061,4.2992,4.2731,4.2379,4.2189,4.1898,4.1492,4.1603,4.1666,4.178,4.2121,4.2351,4.2436,4.2865,4.3087,4.3105,4.3265,4.3332,4.3369,4.3277,4.3018,4.2496,4.303,4.3115,4.2465,4.1678,4.159,4.222,4.2283,4.2525,4.3167,4.3277,4.3406,4.3314,4.3406,4.3479,4.3479,4.3387,4.3332,4.3367,4.3406,4.3497,4.3532,4.3513,4.3513,4.3513,4.3532,4.3497,4.355,4.3605,4.4057,4.4857,4.5697,4.6038,4.6225,4.64,4.6203,4.5653,4.5563,4.5573,4.58,4.6336,4.7003,4.7203,4.7993,4.8757,4.9116,4.9258,4.9438,4.957,4.9655,4.9627,4.9363,4.8777,4.8409,4.8287,4.8428,4.8767,4.9153,4.9757,4.9925,4.9952,5.0057,5.0063,3.7263,3.7058,3.7531,3.7817,3.7992,3.8415,3.8694,3.886,3.9164,3.9288,3.9288,3.9288,3.9288,3.9288,3.9288,3.9325,3.9432,3.959,3.9694,3.9833,3.9986,4.002,4.007,4.0087,4.0087,4.0121,4.0138,4.0662,4.1477,4.1579,4.2296,4.334,4.3219,4.3098,4.3286,4.3042,4.2518,4.1873,4.1911,4.1795,4.1488,4.1719,4.1952,4.2181,4.2709,4.2995,4.3013,4.3286,4.3446,4.3428,4.3463,4.3385,4.3164,4.3367,4.3403,4.3094,4.2815,4.2797,4.2986,4.3057,4.3167,4.3424,4.3479,4.3479,4.3479,4.3479,4.3479,4.3479,4.3479,4.3479,4.3479,4.3479,4.3479,4.3479,4.3497,4.3516,4.3479,4.3479,4.3479,4.3552,4.3936,4.4685,4.5473,4.6039,4.6255,4.639,4.6475,4.6462,4.6333,4.6326,4.6368,4.651,4.7151,4.7763,4.7792,4.8555,4.9213,4.9435,4.9577,4.9569,4.9673,4.9663,4.9636,4.9589,4.8749,4.8494,4.8739,4.8909,4.9013,4.9211,4.9759,4.9788,4.9807,4.9879,4.9887,3.7607,3.7856,3.8093,3.8211,3.8328,3.8869,3.9093,3.9221,3.9511,3.9557,3.9355,3.952,3.9557,3.9305,3.9288,3.9379,3.9484,3.9573,3.9677,3.9833,3.9935,4.002,4.007,4.0087,4.0087,4.0138,4.0121,4.0713,4.1648,4.1801,4.267,4.4107,4.3785,4.3717,4.3923,4.3666,4.3011,4.2233,4.2106,4.1868,4.1348,4.1698,4.1956,4.2058,4.2665,4.2982,4.2899,4.3196,4.334,4.334,4.3393,4.341,4.3428,4.341,4.3393,4.334,4.3375,4.3393,4.3411,4.3446,4.3463,4.3479,4.3479,4.3479,4.3479,4.3479,4.3479,4.3479,4.3479,4.3479,4.3479,4.3479,4.3479,4.3534,4.3718,4.3754,4.3552,4.3754,4.3883,4.4048,4.4652,4.5513,4.6322,4.6726,4.7036,4.712,4.7188,4.7218,4.7052,4.7074,4.7149,4.7236,4.7672,4.8239,4.8495,4.9058,4.9321,4.9495,4.9563,4.9593,4.9623,4.9642,4.9642,4.9596,4.9493,4.9313,4.9313,4.9483,4.9577,4.9663,4.9663,4.9692,4.9702,4.9722,4.975,3.777,3.8537,3.9017,3.9285,3.9476,3.9919,4.0183,4.0244,4.0365,4.0017,3.9553,4.0067,4.0001,3.9454,3.9404,3.9445,3.9548,3.9495,3.9601,3.9847,3.9763,3.9951,4.029,4.024,4.0273,4.0358,4.034,4.1138,4.243,4.2636,4.3422,4.4687,4.4824,4.4448,4.3936,4.4026,4.3426,4.2494,4.2365,4.2007,4.1418,4.2188,4.2386,4.1956,4.2725,4.3095,4.282,4.3031,4.316,4.3214,4.3196,4.3214,4.3214,4.3251,4.3196,4.3214,4.3196,4.3251,4.334,4.3376,4.3393,4.3463,4.3479,4.3444,4.3479,4.3497,4.3479,4.3479,4.3479,4.3516,4.3571,4.3534,4.3479,4.3571,4.4121,4.4233,4.3846,4.4196,4.471,4.4819,4.5424,4.625,4.7132,4.7776,4.82,4.8382,4.8472,4.8338,4.788,4.7816,4.79,4.8047,4.8228,4.859,4.9052,4.9509,4.949,4.949,4.9521,4.9521,4.9551,4.957,4.957,4.9525,4.9262,4.9111,4.9149,4.9318,4.9506,4.9593,4.9593,4.9604,4.9634,4.9644,4.9692,3.9043,3.9556,3.9831,4.013,4.0424,4.0754,4.0661,4.0282,4.0806,4.0696,4.0266,4.0796,4.068,4.0166,4.0034,4.0088,4.0088,4.0105,4.0234,4.0486,4.0118,4.0508,4.1339,4.1068,4.1119,4.1525,4.1662,4.2136,4.2932,4.3155,4.3769,4.4567,4.4831,4.4766,4.4528,4.4619,4.4266,4.358,4.3477,4.3024,4.2042,4.2335,4.2258,4.1816,4.2225,4.2501,4.253,4.2824,4.2975,4.3013,4.3123,4.3214,4.3214,4.3214,4.3178,4.3123,4.3178,4.3178,4.3215,4.3233,4.3286,4.3286,4.3268,4.3358,4.3411,4.3411,4.3428,4.3497,4.3497,4.3663,4.4103,4.3809,4.3589,4.3497,4.4213,4.4471,4.3959,4.4271,4.4893,4.5516,4.6232,4.704,4.7756,4.8307,4.842,4.8569,4.8642,4.8547,4.8524,4.8531,4.871,4.8795,4.888,4.8814,4.9158,4.9409,4.9409,4.9459,4.949,4.9509,4.9509,4.9509,4.9509,4.9415,4.9152,4.9039,4.9077,4.9189,4.9427,4.9521,4.9551,4.9551,4.9551,4.9582,4.9612,3.9786,4.0274,4.0614,4.0917,4.114,4.1493,4.142,4.1073,4.1567,4.1425,4.1011,4.1524,4.1425,4.0878,4.0763,4.0835,4.089,4.0873,4.1188,4.156,4.1009,4.1264,4.2202,4.1847,4.1813,4.2202,4.2286,4.2675,4.3386,4.3436,4.3809,4.4507,4.4737,4.4776,4.4831,4.4961,4.4763,4.4198,4.4096,4.3648,4.2866,4.2992,4.2957,4.2496,4.2732,4.2992,4.3167,4.299,4.2824,4.29,4.3032,4.3087,4.3087,4.3087,4.305,4.3031,4.3068,4.3068,4.3104,4.3123,4.3178,4.3214,4.3214,4.3269,4.3305,4.334,4.3376,4.3446,4.3775,4.4123,4.4525,4.4599,4.4378,4.4397,4.4856,4.504,4.4839,4.4985,4.548,4.6214,4.6801,4.748,4.8067,4.8324,4.8363,4.8457,4.855,4.8642,4.8787,4.889,4.9015,4.9068,4.9061,4.9104,4.9206,4.9295,4.9327,4.9377,4.944,4.949,4.9509,4.9509,4.9509,4.9509,4.9321,4.9283,4.9321,4.9358,4.949,4.9509,4.9509,4.9521,4.9521,4.9521,4.9521,4.0024,4.0737,4.1383,4.1675,4.1813,4.2334,4.2427,4.2394,4.2568,4.217,4.174,4.2253,4.217,4.1607,4.1491,4.1548,4.1716,4.1733,4.2155,4.2624,4.2323,4.2286,4.2402,4.2523,4.2642,4.2608,4.2591,4.2895,4.3589,4.3606,4.3842,4.4558,4.4737,4.4776,4.4831,4.5032,4.4814,4.4353,4.432,4.4027,4.3352,4.4103,4.4185,4.3485,4.3856,4.4156,4.4102,4.3453,4.2961,4.2971,4.3029,4.2974,4.2955,4.2936,4.292,4.2938,4.29,4.2994,4.3049,4.3049,4.3105,4.3123,4.3287,4.3233,4.3215,4.347,4.3652,4.3669,4.4272,4.4748,4.504,4.5333,4.57,4.5902,4.581,4.6049,4.6764,4.6287,4.6342,4.6856,4.713,4.7462,4.8233,4.8306,4.8363,4.8438,4.855,4.8624,4.8732,4.8839,4.8927,4.9015,4.9049,4.9135,4.9164,4.9197,4.923,4.9308,4.939,4.944,4.949,4.9509,4.9509,4.9509,4.9509,4.9509,4.9509,4.9509,4.9509,4.9509,4.9509,4.9509,4.9509,4.9509,4.9509,4.1454,4.2075,4.2248,4.2574,4.2911,4.3211,4.2897,4.2475,4.3056,4.2866,4.2502,4.3015,4.2899,4.2286,4.2237,4.2237,4.2294,4.2294,4.2865,4.3695,4.3645,4.3345,4.3314,4.3707,4.3927,4.3893,4.3826,4.4079,4.4248,4.4215,4.4367,4.4553,4.4643,4.4682,4.4682,4.4831,4.4855,4.4776,4.4885,4.4664,4.4198,4.4418,4.4289,4.3659,4.3957,4.4233,4.4396,4.4317,4.4093,4.3751,4.3172,4.3208,4.3643,4.3262,4.2973,4.2973,4.29,4.2938,4.2956,4.2974,4.2994,4.303,4.3594,4.3648,4.3214,4.4271,4.4601,4.4602,4.5077,4.5792,4.625,4.6159,4.625,4.6617,4.6361,4.614,4.6361,4.6599,4.6911,4.7131,4.7627,4.8031,4.8214,4.8324,4.8306,4.8363,4.8476,4.855,4.8642,4.8787,4.8911,4.8909,4.8943,4.9049,4.9083,4.9116,4.9164,4.9257,4.934,4.9409,4.9459,4.9509,4.9509,4.9509,4.9509,4.9509,4.9509,4.9509,4.9509,4.9509,4.9509,4.9509,4.9509,4.9509,4.9509,4.19,4.2412,4.2555,4.2867,4.3312,4.3509,4.332,4.3013,4.3353,4.3413,4.3131,4.3413,4.338,4.3015,4.2982,4.2999,4.3041,4.3115,4.3406,4.3881,4.4006,4.3984,4.4024,4.4434,4.457,4.457,4.457,4.4553,4.4553,4.457,4.457,4.4626,4.4682,4.4737,4.4776,4.4869,4.5032,4.514,4.5247,4.5112,4.4803,4.5025,4.4935,4.4513,4.4576,4.4558,4.4485,4.5022,4.5137,4.4654,4.4186,4.4114,4.444,4.3824,4.3407,4.3389,4.3099,4.29,4.2973,4.3172,4.3389,4.3534,4.4132,4.4352,4.4263,4.5033,4.531,4.5168,4.5865,4.6544,4.6966,4.6948,4.6985,4.704,4.6985,4.6893,4.6893,4.737,4.7572,4.7737,4.7994,4.8324,4.8324,4.8324,4.8324,4.8363,4.8458,4.8532,4.8605,4.8751,4.8841,4.8874,4.889,4.8943,4.8996,4.8996,4.9083,4.9179,4.9289,4.9358,4.944,4.9509,4.9509,4.9509,4.9509,4.9509,4.9509,4.9509,4.9509,4.9509,4.9509,4.9509,4.9509,4.9509,4.9509,4.1851,4.2174,4.2492,4.2805,4.3174,4.3432,4.3552,4.3552,4.3552,4.3611,4.3578,4.3611,4.3535,4.3645,4.3495,4.3654,4.3789,4.3706,4.3756,4.3939,4.4056,4.4202,4.4412,4.4502,4.457,4.457,4.457,4.457,4.457,4.457,4.457,4.4626,4.4737,4.4831,4.4886,4.5032,4.5247,4.5264,4.5318,4.5353,4.5355,4.5545,4.5561,4.554,4.5435,4.5176,4.5133,4.5569,4.596,4.5558,4.5359,4.5236,4.5236,4.4657,4.4168,4.3951,4.3462,4.3118,4.3136,4.3679,4.4132,4.4295,4.4965,4.5345,4.5312,4.5685,4.6002,4.5805,4.6594,4.7129,4.7314,4.7792,4.7719,4.7462,4.781,4.8067,4.8306,4.8324,4.8324,4.8324,4.8306,4.8306,4.8306,4.8306,4.8306,4.8401,4.8495,4.855,4.8642,4.8751,4.8822,4.8874,4.889,4.889,4.889,4.889,4.903,4.9131,4.9244,4.934,4.9459,4.9509,4.9509,4.9509,4.9509,4.9509,4.9509,4.9509,4.9509,4.9509,4.9509,4.9509,4.9509,4.9509,4.9509,4.1916,4.2492,4.2601,4.2851,4.3312,4.3509,4.3568,4.3432,4.3552,4.3645,4.3645,4.3645,4.3645,4.3645,4.3645,4.3628,4.3687,4.3687,4.3763,4.3956,4.4155,4.4253,4.444,4.453,4.4604,4.4621,4.4587,4.4604,4.4621,4.4705,4.4587,4.4677,4.4812,4.4699,4.4788,4.5043,4.5049,4.5103,4.5282,4.5371,4.5476,4.5684,4.5838,4.5854,4.593,4.6051,4.6165,4.6486,4.6713,4.6582,4.5965,4.5667,4.5938,4.549,4.4816,4.4288,4.402,4.3821,4.3837,4.4056,4.4403,4.5055,4.5725,4.6037,4.5591,4.6728,4.7065,4.6996,4.7496,4.7882,4.7957,4.759,4.7682,4.7829,4.7682,4.772,4.8141,4.8324,4.8324,4.8324,4.8324,4.8324,4.8324,4.8419,4.8457,4.8457,4.855,4.8642,4.8732,4.8787,4.8857,4.8909,4.889,4.889,4.889,4.889,4.8978,4.9064,4.9179,4.9308,4.9409,4.9509,4.9509,4.9509,4.9509,4.9509,4.9509,4.9509,4.9509,4.9509,4.9509,4.9509,4.9509,4.9509,4.9509,4.2238,4.2759,4.2743,4.3052,4.3449,4.3552,4.3552,4.3492,4.3552,4.3645,4.3645,4.3645,4.3645,4.3645,4.3645,4.3645,4.3645,4.3687,4.3822,4.3998,4.4196,4.4367,4.4575,4.4868,4.5094,4.506,4.4722,4.4891,4.5348,4.5263,4.5145,4.5179,4.5415,4.5506,4.5258,4.5375,4.5503,4.5545,4.5365,4.53,4.5423,4.5684,4.5889,4.5972,4.6122,4.627,4.6381,4.6572,4.6824,4.6838,4.6529,4.6416,4.6729,4.6241,4.5549,4.5188,4.478,4.4711,4.4672,4.4997,4.5475,4.5914,4.6712,4.6844,4.6873,4.7649,4.7834,4.7748,4.7954,4.8306,4.8288,4.8031,4.7994,4.8086,4.7921,4.7865,4.8196,4.8324,4.8324,4.8324,4.8363,4.8419,4.8419,4.8494,4.8513,4.8532,4.8624,4.8732,4.8768,4.8822,4.8857,4.8909,4.889,4.889,4.889,4.889,4.8978,4.9064,4.9164,4.9244,4.9358,4.944,4.9509,4.9509,4.9509,4.9509,4.9509,4.9509,4.9509,4.9509,4.9509,4.9509,4.9509,4.9509,4.9509,4.2634,4.2916,4.2899,4.3207,4.3568,4.3645,4.3568,4.3568,4.3645,4.3645,4.3645,4.3645,4.3645,4.3645,4.3645,4.3628,4.3687,4.3822,4.3998,4.4039,4.4414,4.4596,4.4896,4.5426,4.5974,4.5923,4.5432,4.5754,4.6227,4.6227,4.5889,4.5974,4.6413,4.637,4.6112,4.6068,4.6096,4.6075,4.5912,4.5731,4.5717,4.5927,4.6166,4.6122,4.6172,4.6189,4.627,4.6464,4.6655,4.6778,4.7098,4.7276,4.7263,4.6952,4.6374,4.6284,4.568,4.5486,4.5522,4.5997,4.6472,4.6807,4.7448,4.7834,4.7937,4.798,4.8114,4.8172,4.8286,4.8324,4.8324,4.8233,4.8233,4.8306,4.8306,4.8306,4.8306,4.8344,4.8344,4.8363,4.8401,4.8457,4.8532,4.8606,4.8605,4.8642,4.8732,4.8822,4.8822,4.8839,4.8874,4.8909,4.889,4.889,4.889,4.8909,4.8943,4.9046,4.9131,4.923,4.9308,4.9409,4.949,4.9509,4.9509,4.9509,4.9509,4.9509,4.9509,4.9509,4.9509,4.9509,4.9509,4.9509,4.9509,4.268,4.2916,4.3007,4.3251,4.3568,4.3645,4.3645,4.3645,4.3645,4.3645,4.3645,4.3645,4.3645,4.3628,4.3628,4.3704,4.3822,4.3998,4.4031,4.424,4.4749,4.5134,4.5387,4.6186,4.687,4.7225,4.6819,4.6684,4.6819,4.665,4.6633,4.6633,4.6819,4.6827,4.6743,4.6741,4.6635,4.6544,4.6644,4.6691,4.6527,4.6638,4.6655,4.6505,4.652,4.6467,4.6362,4.642,4.6542,4.6778,4.6824,4.7043,4.7285,4.7403,4.7012,4.6501,4.6248,4.6163,4.6277,4.639,4.6884,4.736,4.7816,4.7951,4.8032,4.813,4.8208,4.8286,4.8286,4.8324,4.8324,4.8324,4.8324,4.8324,4.8324,4.8363,4.8401,4.8458,4.8458,4.8476,4.8476,4.8532,4.8587,4.866,4.8732,4.875,4.8804,4.8839,4.8874,4.8874,4.8909,4.889,4.889,4.889,4.889,4.8909,4.8943,4.903,4.9131,4.9211,4.9295,4.9409,4.949,4.949,4.9509,4.9509,4.9509,4.9509,4.9509,4.9509,4.9509,4.9509,4.9509,4.9509,4.9509,4.3052,4.3129,4.3251,4.3372,4.3568,4.3645,4.3645,4.3645,4.3645,4.3645,4.3645,4.3645,4.3645,4.3628,4.3687,4.3881,4.3998,4.4155,4.4315,4.4683,4.5211,4.5732,4.5967,4.687,4.7419,4.7851,4.7868,4.7885,4.7885,4.7547,4.7411,4.7479,4.7699,4.7767,4.7445,4.742,4.7403,4.7316,4.7335,4.7335,4.7231,4.7417,4.7405,4.7367,4.7448,4.7533,4.76,4.7682,4.7877,4.798,4.7772,4.7686,4.7689,4.7561,4.7288,4.6884,4.6855,4.6916,4.7018,4.7096,4.7379,4.7738,4.797,4.8072,4.8151,4.819,4.8265,4.8286,4.8324,4.8324,4.8324,4.8324,4.8324,4.8324,4.8361,4.8418,4.8438,4.8513,4.8532,4.8569,4.8624,4.8679,4.8697,4.8768,4.8857,4.8892,4.8874,4.8909,4.889,4.889,4.889,4.889,4.889,4.889,4.889,4.8909,4.8909,4.8996,4.9098,4.9197,4.9276,4.9358,4.944,4.949,4.9509,4.9509,4.9509,4.9509,4.9509,4.9509,4.9509,4.9509,4.9509,4.9509,4.9509,4.3432,4.3372,4.3432,4.3492,4.3568,4.3645,4.3645,4.3645,4.3645,4.3645,4.3645,4.3645,4.3645,4.3645,4.3763,4.3956,4.4056,4.4212,4.4598,4.5144,4.5715,4.6195,4.6844,4.7561,4.8189,4.8308,4.8578,4.9001,4.8748,4.8376,4.8173,4.8223,4.8748,4.8748,4.8223,4.8122,4.8318,4.8116,4.8038,4.786,4.7989,4.8179,4.8276,4.8312,4.8641,4.8673,4.8584,4.8717,4.8706,4.8621,4.836,4.8115,4.8066,4.7572,4.7294,4.732,4.7425,4.7529,4.7675,4.7935,4.8013,4.8229,4.8466,4.8623,4.8684,4.8779,4.8545,4.8379,4.8324,4.8324,4.8324,4.8324,4.8324,4.8361,4.8416,4.8491,4.8513,4.8569,4.8658,4.8695,4.8768,4.8822,4.8804,4.8839,4.8874,4.8874,4.8909,4.8909,4.889,4.889,4.889,4.889,4.889,4.889,4.889,4.889,4.889,4.8943,4.9064,4.9164,4.9244,4.9321,4.939,4.949,4.9509,4.9509,4.9509,4.9509,4.9509,4.9509,4.9509,4.9509,4.9509,4.9509,4.9509,4.3509,4.3372,4.3509,4.3552,4.3645,4.3645,4.3645,4.3645,4.3645,4.3645,4.3628,4.3628,4.3628,4.3721,4.3889,4.3931,4.3998,4.4188,4.4707,4.5362,4.6136,4.6912,4.7585,4.8467,4.8714,4.8748,4.8917,4.9001,4.8968,4.8866,4.8832,4.8866,4.8866,4.8917,4.8765,4.8697,4.8666,4.8567,4.8941,4.909,4.8877,4.9035,4.8868,4.868,4.8748,4.9041,4.9162,4.9263,4.9146,4.8567,4.8283,4.7796,4.7283,4.7114,4.7143,4.7214,4.7363,4.7425,4.7838,4.8279,4.8756,4.895,4.9536,5.0081,4.9775,4.9438,4.9003,4.8343,4.8324,4.8324,4.8324,4.8324,4.8361,4.8436,4.8491,4.8586,4.8661,4.866,4.8731,4.8767,4.8839,4.8839,4.8855,4.8855,4.889,4.889,4.889,4.889,4.889,4.889,4.889,4.889,4.889,4.889,4.889,4.889,4.8909,4.8909,4.9012,4.9164,4.9244,4.9289,4.939,4.949,4.949,4.9509,4.9509,4.9509,4.9509,4.9509,4.9509,4.9509,4.9509,4.9509,4.9509,4.3568,4.3492,4.3568,4.3645,4.3645,4.3645,4.3645,4.3645,4.3645,4.3645,4.3628,4.3763,4.3822,4.3931,4.4382,4.4424,4.414,4.4229,4.4867,4.574,4.654,4.7368,4.8253,4.8787,4.9001,4.9018,4.9018,4.9001,4.9018,4.9018,4.9018,4.9018,4.9018,4.9001,4.9001,4.9063,4.911,4.9189,4.9453,4.9688,4.9677,4.9781,4.9791,4.9606,4.996,5.0167,5.027,5.0406,5.045,5.0102,4.9786,4.9371,4.8912,4.8386,4.7823,4.7958,4.8091,4.8215,4.8417,4.8768,4.9173,4.9579,5.0095,5.0107,4.9898,4.9695,4.9224,4.8379,4.8324,4.8324,4.8324,4.8324,4.8379,4.8473,4.8567,4.8587,4.8714,4.8805,4.8839,4.8839,4.8874,4.8855,4.889,4.889,4.889,4.889,4.889,4.889,4.889,4.889,4.889,4.889,4.889,4.889,4.889,4.889,4.8962,4.9015,4.9049,4.915,4.9244,4.9327,4.9409,4.9459,4.949,4.9509,4.9509,4.9509,4.9509,4.9509,4.9509,4.9509,4.9509,4.9509,4.9509,4.3645,4.3645,4.3645,4.3645,4.3645,4.3645,4.3645,4.3645,4.3645,4.3645,4.3645,4.378,4.3881,4.4081,4.4432,4.4457,4.4089,4.438,4.5295,4.6135,4.6928,4.7791,4.8489,4.8956,4.9018,4.9018,4.9018,4.9018,4.9018,4.9018,4.9018,4.9018,4.9018,4.9018,4.9063,4.9124,4.9256,4.9471,4.9784,4.9901,4.9982,5.025,5.0439,5.0642,5.1035,5.1384,5.1454,5.1536,5.1651,5.1066,5.0704,5.0235,4.9901,4.9177,4.8739,4.8839,4.8928,4.9216,4.9448,4.9727,4.9898,5.0275,5.0489,5.0508,4.9944,4.9716,4.9224,4.8379,4.8324,4.8324,4.8324,4.8324,4.8436,4.8511,4.8624,4.8641,4.8672,4.8783,4.8892,4.8874,4.8874,4.889,4.889,4.889,4.889,4.889,4.889,4.889,4.889,4.889,4.889,4.889,4.889,4.889,4.889,4.8909,4.9015,4.9068,4.9101,4.915,4.9244,4.9327,4.9427,4.9459,4.9509,4.9509,4.9509,4.9509,4.9509,4.9509,4.9509,4.9509,4.9509,4.9509,4.9509,4.3645,4.3645,4.3645,4.3645,4.3645,4.3645,4.3645,4.3645,4.3645,4.3628,4.3645,4.3661,4.3787,4.383,4.4064,4.4173,4.3989,4.4859,4.5681,4.6498,4.7376,4.8146,4.8737,4.9018,4.9018,4.9018,4.9018,4.9018,4.9018,4.9018,4.9018,4.9018,4.9018,4.9018,4.9063,4.9168,4.9428,4.9683,4.9935,4.9993,5.0092,5.0341,5.0602,5.0766,5.1105,5.1454,5.135,5.1538,5.1494,5.0873,5.086,5.0653,5.0271,4.9862,4.9685,4.9758,4.9803,5.0145,5.0534,5.0741,5.1049,5.1248,5.1344,5.1268,5.0662,4.9994,4.926,4.8581,4.8434,4.8324,4.8363,4.8401,4.8474,4.855,4.8661,4.8715,4.8765,4.8818,4.8874,4.8909,4.8909,4.889,4.889,4.889,4.889,4.889,4.889,4.889,4.889,4.889,4.889,4.889,4.889,4.889,4.889,4.8943,4.8996,4.9064,4.9131,4.9197,4.9308,4.9358,4.9459,4.9459,4.9509,4.9509,4.9509,4.9509,4.9509,4.9509,4.9509,4.9509,4.9509,4.9509,4.9509,4.3645,4.3645,4.3645,4.3645,4.3645,4.3645,4.3645,4.3645,4.3628,4.3704,4.378,4.4238,4.4221,4.414,4.4465,4.444,4.4206,4.4984,4.5858,4.6608,4.7426,4.8308,4.8781,4.9018,4.9018,4.9018,4.9018,4.9018,4.9018,4.9001,4.9001,4.9018,4.9114,4.9063,4.9185,4.9367,4.9607,4.9801,4.9935,5.0051,5.0206,5.0453,5.0712,5.0963,5.1228,5.1505,5.1538,5.164,5.1494,5.1365,5.1357,5.1185,5.0958,5.0728,5.0623,5.0633,5.0724,5.0968,5.123,5.1375,5.152,5.21,5.2261,5.2114,5.1381,5.0707,4.9976,4.9297,4.8563,4.8343,4.8324,4.8363,4.8419,4.8532,4.8679,4.8787,4.8804,4.8874,4.889,4.8909,4.889,4.889,4.889,4.889,4.889,4.889,4.889,4.889,4.889,4.889,4.889,4.889,4.889,4.889,4.889,4.8943,4.8978,4.9046,4.9127,4.9188,4.9233,4.9409,4.949,4.9509,4.9509,4.9509,4.9509,4.9509,4.9509,4.9509,4.9509,4.9509,4.9509,4.9509,4.9509,4.3645,4.3645,4.3645,4.3645,4.3645,4.3645,4.3645,4.3645,4.3645,4.3687,4.3872,4.4537,4.4547,4.4399,4.5085,4.5144,4.5052,4.569,4.6406,4.7157,4.7892,4.8494,4.8849,4.9018,4.9018,4.9018,4.9018,4.9001,4.9063,4.9063,4.9124,4.9253,4.9345,4.9501,4.9229,4.9547,4.9801,4.9935,5.0051,5.0092,5.0246,5.0564,5.0838,5.1105,5.1402,5.1556,5.1658,5.1708,5.174,5.1786,5.1884,5.2018,5.1934,5.1795,5.1581,5.1555,5.1601,5.1647,5.1647,5.1747,5.201,5.2563,5.2423,5.2242,5.1852,5.1014,4.9921,4.9572,4.882,4.8398,4.8508,4.8621,4.8733,4.8919,4.8752,4.8804,4.8857,4.8892,4.8874,4.889,4.889,4.889,4.889,4.889,4.889,4.889,4.889,4.889,4.889,4.889,4.889,4.889,4.889,4.889,4.889,4.8649,4.8516,4.8934,4.9015,4.9057,4.9171,4.9365,4.949,4.9509,4.9509,4.9509,4.9509,4.9509,4.9509,4.9509,4.9509,4.9509,4.9509,4.9509,4.9509,4.3645,4.3645,4.3645,4.3645,4.3645,4.3645,4.3645,4.3645,4.3645,4.3628,4.3711,4.4417,4.4477,4.444,4.557,4.5807,4.5841,4.6887,4.7656,4.7825,4.8409,4.8866,4.8968,4.9018,4.9018,4.9018,4.9001,4.9063,4.9168,4.9168,4.9229,4.9752,5.0127,5.0195,4.9392,4.9513,4.9784,4.9993,5.0092,5.0189,5.0341,5.0747,5.0998,5.1211,5.1454,5.1658,5.1658,5.1758,5.1858,5.1907,5.2102,5.2216,5.2239,5.2315,5.2253,5.2317,5.2353,5.2389,5.2472,5.2509,5.268,5.2769,5.2517,5.2053,5.1669,5.0762,4.9866,4.9756,4.9022,4.8912,4.9007,4.9157,4.9324,4.9307,4.9176,4.9173,4.9228,4.9134,4.9206,4.9169,4.9002,4.889,4.889,4.889,4.889,4.889,4.889,4.889,4.889,4.889,4.889,4.889,4.889,4.889,4.8779,4.824,4.8144,4.8598,4.8907,4.9024,4.9158,4.9334,4.9421,4.949,4.9509,4.9509,4.9509,4.9509,4.9509,4.9509,4.9509,4.9509,4.9509,4.9509,4.9509,4.3645,4.3645,4.3645,4.3645,4.3645,4.3645,4.3645,4.3645,4.3645,4.3645,4.3794,4.4511,4.4923,4.5143,4.5814,4.6464,4.6583,4.7233,4.7936,4.8054,4.868,4.8917,4.9018,4.9018,4.9018,4.9018,4.9001,4.9046,4.9168,4.9297,4.9742,5.0256,5.096,5.1011,5.0412,5.0162,4.9935,4.9993,5.0149,5.0246,5.0397,5.0801,5.1158,5.1264,5.1556,5.1708,5.1708,5.1858,5.1956,5.2054,5.2264,5.2358,5.2405,5.2498,5.2498,5.2498,5.248,5.2572,5.2708,5.2806,5.2886,5.2791,5.245,5.2064,5.1871,5.049,5.0068,5.0086,4.963,4.9722,5.0131,5.0262,5.0339,5.0028,4.9917,5.0027,5.0045,4.9873,4.9759,4.9612,4.9429,4.9132,4.9039,4.9113,4.9132,4.8927,4.889,4.889,4.889,4.889,4.889,4.889,4.889,4.889,4.8723,4.8259,4.8274,4.877,4.9005,4.9108,4.9225,4.9371,4.9421,4.949,4.949,4.9509,4.9509,4.9509,4.9509,4.9509,4.9509,4.9509,4.9509,4.9509,4.9509,4.3645,4.3645,4.3645,4.3645,4.3645,4.3645,4.3645,4.3678,4.3936,4.4069,4.4344,4.5324,4.5745,4.5999,4.6723,4.7113,4.731,4.7953,4.8308,4.8359,4.8748,4.8968,4.9018,4.9018,4.9018,4.9018,4.9001,4.9046,4.9324,4.9562,5.0478,5.1483,5.1871,5.1915,5.158,5.1279,5.0707,5.072,5.0719,5.0658,5.0745,5.091,5.1264,5.1402,5.1607,5.1758,5.1858,5.1956,5.2071,5.2264,5.2358,5.2405,5.2452,5.2498,5.2498,5.248,5.2508,5.2599,5.2779,5.2912,5.2992,5.3035,5.259,5.2454,5.2242,5.132,5.1004,5.0839,5.042,5.068,5.1127,5.1259,5.108,5.075,5.0824,5.0934,5.0749,5.0525,5.0542,5.0339,5.0135,4.9763,4.9355,4.9317,4.941,4.915,4.889,4.889,4.889,4.889,4.889,4.889,4.889,4.889,4.8742,4.8389,4.8516,4.8959,4.9008,4.9015,4.923,4.934,4.9421,4.9471,4.949,4.9509,4.9509,4.9509,4.9509,4.9509,4.9509,4.9509,4.9509,4.9565,4.9621,4.3645,4.3645,4.3645,4.3645,4.3645,4.3645,4.3628,4.3694,4.4571,4.4913,4.5073,4.6547,4.6904,4.6858,4.8029,4.8371,4.8122,4.8646,4.8798,4.89,4.8968,4.9018,4.9018,4.9018,4.9018,4.9018,4.9063,4.9124,4.9556,5.0351,5.163,5.2681,5.2726,5.2863,5.2829,5.2675,5.1983,5.1564,5.1476,5.142,5.1362,5.1317,5.1528,5.1649,5.1714,5.1826,5.1907,5.2005,5.2168,5.2311,5.2405,5.2452,5.2498,5.2498,5.2498,5.2526,5.2536,5.2672,5.2824,5.2955,5.306,5.314,5.3127,5.3151,5.2692,5.1867,5.1518,5.1467,5.125,5.1603,5.1996,5.1893,5.173,5.1714,5.1769,5.1658,5.1436,5.1343,5.1417,5.1324,5.1175,5.0822,5.0283,5.0098,4.98,4.9392,4.9132,4.889,4.889,4.889,4.889,4.889,4.889,4.889,4.8704,4.85,4.8609,4.903,4.8762,4.8735,4.9019,4.9327,4.9409,4.9459,4.949,4.9509,4.9509,4.9509,4.9509,4.9509,4.9621,4.9828,4.994,4.9878,4.9972,4.3645,4.3645,4.3645,4.3645,4.3645,4.3645,4.3687,4.3939,4.4647,4.5007,4.5286,4.6864,4.7524,4.7501,4.8456,4.872,4.8849,4.8883,4.8951,4.9018,4.9018,4.9018,4.9018,4.9018,4.9018,4.9018,4.9063,4.9202,4.9778,5.0815,5.2148,5.3166,5.3546,5.3891,5.4022,5.4067,5.3186,5.256,5.2474,5.2298,5.2155,5.2129,5.2166,5.2111,5.1874,5.1951,5.2023,5.2102,5.2198,5.2405,5.2452,5.2498,5.2498,5.2498,5.2498,5.2526,5.2645,5.2761,5.2824,5.3017,5.3146,5.3164,5.3206,5.2784,5.2325,5.194,5.1665,5.1834,5.2007,5.2309,5.2665,5.271,5.2528,5.2456,5.2531,5.2549,5.2326,5.2196,5.2233,5.2197,5.2067,5.1658,5.1138,5.0636,5.0283,4.98,4.9392,4.9113,4.889,4.889,4.889,4.889,4.889,4.889,4.889,4.8742,4.8832,4.8956,4.8762,4.873,4.9089,4.9358,4.9427,4.9459,4.9521,4.9521,4.9509,4.9509,4.9539,4.9753,4.9903,5.0166,5.0353,5.0422,5.0629,4.3645,4.3645,4.3645,4.3645,4.3645,4.3687,4.3839,4.4123,4.5066,4.5621,4.5924,4.7518,4.8219,4.8253,4.8737,4.8984,4.8984,4.8984,4.9018,4.9018,4.9018,4.9018,4.9018,4.9018,4.9018,4.9018,4.9063,4.9185,4.9915,5.1296,5.2684,5.3856,5.4391,5.4523,5.4586,5.4572,5.4365,5.3808,5.3515,5.3317,5.3159,5.2994,5.2838,5.2625,5.2315,5.2265,5.2186,5.215,5.2293,5.2452,5.2498,5.2498,5.2498,5.2498,5.2498,5.2526,5.2708,5.2761,5.2868,5.306,5.3164,5.3206,5.3206,5.2986,5.2692,5.238,5.2403,5.25,5.2677,5.2887,5.3281,5.3602,5.3365,5.3125,5.3311,5.3497,5.331,5.3125,5.305,5.3014,5.2735,5.2345,5.1862,5.1323,5.0729,5.0135,4.967,4.9373,4.9076,4.889,4.889,4.889,4.889,4.889,4.889,4.8909,4.8978,4.9046,4.9057,4.9099,4.9327,4.9409,4.9509,4.9551,4.9593,4.9563,4.9532,4.957,4.9608,4.9878,5.026,5.0654,5.1029,5.1349,5.1668,4.3645,4.3628,4.3628,4.3645,4.3671,4.3822,4.4015,4.4281,4.5604,4.6378,4.6733,4.8203,4.8855,4.8787,4.8984,4.9018,4.9018,4.9018,4.9018,4.9018,4.9018,4.9018,4.9018,4.9018,4.9018,4.9018,4.9148,4.9389,5.012,5.1434,5.2959,5.4425,5.4557,5.4637,5.478,5.4739,5.4635,5.4737,5.4279,5.4015,5.3929,5.3723,5.3549,5.3205,5.3017,5.2848,5.245,5.2311,5.2358,5.2452,5.2498,5.2498,5.2498,5.2526,5.2526,5.2572,5.2735,5.2824,5.2912,5.306,5.3164,5.3206,5.3206,5.3133,5.2931,5.2821,5.2881,5.2964,5.3064,5.3204,5.3563,5.3697,5.357,5.3497,5.359,5.3683,5.3608,5.3459,5.3478,5.3441,5.3348,5.2977,5.2717,5.2197,5.1658,5.0766,5.0209,4.9912,4.9485,4.9187,4.9076,4.9039,4.8909,4.8927,4.8962,4.8996,4.9012,4.9098,4.9202,4.9295,4.9421,4.9521,4.9608,4.9642,4.9644,4.9634,4.9604,4.9762,4.9958,5.0065,5.0504,5.1123,5.1644,5.2113,5.2696,4.3645,4.3645,4.3763,4.3881,4.3981,4.4056,4.4097,4.4404,4.5714,4.6455,4.6937,4.8118,4.8894,4.9001,4.9001,4.9018,4.9018,4.9018,4.9018,4.9018,4.9018,4.9018,4.9018,4.9018,4.9018,4.9018,4.9215,4.9797,5.094,5.2001,5.2977,5.4339,5.4592,5.4717,5.4807,5.4661,5.472,5.5172,5.4875,5.4798,5.5044,5.4737,5.442,5.3883,5.3537,5.3019,5.2624,5.2329,5.2423,5.2452,5.2498,5.2498,5.2498,5.2536,5.2563,5.2627,5.2824,5.2912,5.2974,5.3103,5.3164,5.3206,5.3206,5.3206,5.3188,5.3206,5.323,5.3336,5.3418,5.3558,5.3695,5.3736,5.3813,5.3813,5.3813,5.3813,5.3813,5.3813,5.3813,5.3813,5.3813,5.3627,5.3385,5.3014,5.2494,5.1918,5.1361,5.0878,5.0265,4.9856,4.9577,4.9447,4.902,4.8964,4.9164,4.9381,4.9564,4.9459,4.9501,4.9521,4.9582,4.9811,5.0051,4.9768,4.9683,5.0004,5.0296,5.0338,5.0466,5.0667,5.108,5.1813,5.2409,5.2911,5.3569,4.3628,4.3747,4.3956,4.4056,4.4097,4.4155,4.4253,4.4522,4.5757,4.6346,4.6558,4.7966,4.8894,4.9001,4.9001,4.9001,4.9001,4.9018,4.9018,4.9018,4.9018,4.9018,4.9018,4.9018,4.9018,4.9035,4.9627,5.0475,5.1685,5.2568,5.3442,5.4356,5.4717,5.4824,5.4817,5.4695,5.4787,5.542,5.512,5.5433,5.5936,5.5664,5.5366,5.4825,5.4205,5.358,5.3008,5.2676,5.2452,5.2498,5.2498,5.2526,5.2554,5.2563,5.2635,5.2717,5.2868,5.2999,5.306,5.3121,5.3206,5.3206,5.3206,5.3206,5.3206,5.3206,5.329,5.3396,5.3459,5.3558,5.3716,5.3813,5.3813,5.3813,5.3813,5.3813,5.3813,5.3813,5.3813,5.3813,5.3813,5.3775,5.359,5.3553,5.3014,5.2457,5.1992,5.1621,5.1045,5.0691,5.0375,5.0131,4.987,4.9961,5.0493,5.049,5.0374,5.0193,4.9802,4.9833,4.9887,5.026,5.0459,5.0468,5.0666,5.1074,5.1263,5.122,5.155,5.1907,5.2239,5.2648,5.315,5.3559,5.3987,4.3763,4.3956,4.4114,4.4155,4.4155,4.4253,4.4367,4.4619,4.5841,4.617,4.6085,4.7905,4.8742,4.8821,4.8883,4.8951,4.8984,4.9001,4.9018,4.9018,4.9018,4.9018,4.9018,4.9018,4.9001,4.9379,4.9971,5.0871,5.1867,5.2767,5.3598,5.4385,5.4683,5.4834,5.4948,5.5042,5.5133,5.5331,5.5398,5.5836,5.6164,5.642,5.6062,5.5623,5.5144,5.4466,5.37,5.315,5.2715,5.2498,5.2498,5.2554,5.2581,5.2654,5.2761,5.285,5.2955,5.3042,5.3042,5.3164,5.3164,5.3206,5.3206,5.3206,5.3206,5.3248,5.3355,5.3437,5.3499,5.3579,5.3736,5.3813,5.3813,5.3813,5.3813,5.3813,5.3813,5.3813,5.3813,5.3813,5.3813,5.3813,5.3794,5.3775,5.3478,5.2921,5.2549,5.2159,5.1825,5.1693,5.1469,5.1318,5.1202,5.1423,5.1604,5.1335,5.0993,5.0547,5.0172,5.015,5.0239,5.0629,5.1063,5.1505,5.1752,5.1963,5.2144,5.2178,5.2586,5.2836,5.3263,5.3446,5.3522,5.3893,5.4201,4.3981,4.4196,4.4253,4.4384,4.4514,4.4497,4.457,4.475,4.59,4.6187,4.6304,4.768,4.8608,4.8139,4.8139,4.8392,4.9001,4.9018,4.9018,4.9018,4.9018,4.9018,4.9001,4.9063,4.9063,4.9586,5.0298,5.1087,5.2152,5.3025,5.3832,5.4665,5.4869,5.4791,5.4353,5.4607,5.4979,5.5168,5.5375,5.5704,5.633,5.6438,5.6257,5.5944,5.5749,5.484,5.4055,5.3603,5.3096,5.2715,5.2552,5.2645,5.2699,5.2771,5.2806,5.2955,5.306,5.3103,5.3164,5.3164,5.3206,5.3206,5.3206,5.3188,5.323,5.3254,5.3378,5.3459,5.3539,5.3619,5.3736,5.3774,5.3813,5.3813,5.3813,5.3813,5.3813,5.3813,5.3813,5.3813,5.3813,5.3813,5.3813,5.3794,5.3775,5.3404,5.3385,5.2995,5.2587,5.2493,5.2473,5.2468,5.2407,5.2068,5.1911,5.1621,5.1292,5.0811,5.0614,5.0751,5.0894,5.1035,5.1486,5.2239,5.2467,5.2585,5.276,5.3167,5.2953,5.322,5.3924,5.4277,5.4219,5.4243,5.45]},{"header":{"parameterUnit":"m.s-1","parameterCategory":1,"la1":31.0,"la2":29.5877,"lo1":-88.7671,"lo2":-86.6584,"dy":0.0162,"dx":0.0185,"nx":115,"ny":88,"refTime":"2024-02-18T06:00:00:Z","depth":0,"parameterNumber":3,"parameterNumberName":"V-component_of_WINDS"},"data":[0.0,0.0,0.0,0.0,0.0,0.0,0.0,0.0,0.0,0.0,0.0,0.0,0.0,0.0,0.0,0.0,0.0,0.0,0.0,0.0,0.0,0.0,0.0,0.0,0.0,0.0,0.0,0.0,0.0,0.0,0.0,0.0,0.0,0.0,0.0,0.0,0.0,0.0,0.0,0.0,0.0,0.0,0.0,0.0,0.0,0.0,0.0,0.0,0.0,0.0,0.0,0.0,0.0,0.0,0.0,0.0,0.0,0.0,0.0,0.0,0.0,0.0,0.0,0.0,0.0,0.0,0.0,0.0,0.0,0.0,0.0,0.0,0.0,0.0,0.0,0.0,0.0,0.0,0.0,0.0,0.0,0.0,0.0,0.0,0.0,0.0,0.0,0.0,0.0,0.0,0.0,0.0,0.0,0.0,0.0,0.0,0.0,0.0,0.0,0.0,0.0,0.0,0.0,0.0,0.0,0.0,0.0,0.0,0.0,0.0,0.0,0.0,0.0,0.0,0.0,0.0,0.0,0.0,0.0,0.0,0.0,0.0,0.0,0.0,0.0,0.0,0.0,0.0,0.0,0.0,0.0,0.0,0.0,0.0,0.0,0.0,0.0,0.0,0.0,0.0,0.0,0.0,0.0,0.0,0.0,0.0,0.0,0.0,0.0,0.0,0.0,0.0,0.0,0.0,0.0,0.0,0.0,0.0,0.0,0.0,0.0,0.0,0.0,0.0,0.0,0.0,0.0,0.0,0.0,0.0,0.0,0.0,0.0,0.0,0.0,0.0,0.0,0.0,0.0,0.0,0.0,0.0,0.0,0.0,0.0,0.0,0.0,0.0,0.0,0.0,0.0,0.0,0.0,0.0,0.0,0.0,0.0,0.0,0.0,0.0,0.0,0.0,0.0,0.0,0.0,0.0,0.0,0.0,0.0,0.0,0.0,0.0,0.0,0.0,0.0,0.0,0.0,0.0,0.0,0.0,0.0,0.0,0.0,0.0,0.0,0.0,0.0,0.0,0.0,0.0,0.0,0.0,0.0,0.0,0.0,0.0,0.0,0.0,0.0,0.0,0.0,0.0,0.0,0.0,0.0,0.0,0.0,0.0,0.0,0.0,0.0,0.0,0.0,0.0,0.0,0.0,0.0,0.0,0.0,0.0,0.0,0.0,0.0,0.0,0.0,0.0,0.0,0.0,0.0,0.0,0.0,0.0,0.0,0.0,0.0,0.0,0.0,0.0,0.0,0.0,0.0,0.0,0.0,0.0,0.0,0.0,0.0,0.0,0.0,0.0,0.0,0.0,0.0,0.0,0.0,0.0,0.0,0.0,0.0,0.0,0.0,0.0,0.0,0.0,0.0,0.0,0.0,0.0,0.0,0.0,0.0,0.0,0.0,0.0,0.0,0.0,0.0,0.0,0.0,0.0,0.0,0.0,0.0,0.0,0.0,0.0,0.0,0.0,0.0,0.0,0.0,0.0,0.0,0.0,0.0,0.0,0.0,0.0,0.0,0.0,0.0,0.0,0.0,0.0,0.0,0.0,0.0,0.0,0.0,0.0,0.0,0.0,0.0,0.0,0.0,0.0,0.0,0.0,0.0,0.0,0.0,0.0,0.0,0.0,0.0,0.0,0.0,0.0,0.0,0.0,0.0,0.0,0.0,0.0,0.0,0.0,0.0,0.0,0.0,0.0,0.0,0.0,0.0,0.0,0.0,0.0,0.0,0.0,0.0,0.0,0.0,0.0,0.0,0.0,0.0,0.0,0.0,0.0,0.0,0.0,0.0,0.0,0.0,0.0,0.0,0.0,0.0,0.0,0.0,0.0,0.0,0.0,0.0,0.0,0.0,0.0,0.0,0.0,0.0,0.0,0.0,0.0,0.0,0.0,0.0,0.0,0.0,0.0,0.0,0.0,0.0,0.0,0.0,0.0,0.0,0.0,0.0,0.0,0.0,0.0,0.0,0.0,0.0,0.0,0.0,0.0,0.0,0.0,0.0,0.0,0.0,0.0,0.0,0.0,0.0,0.0,0.0,0.0,0.0,0.0,0.0,0.0,0.0,0.0,0.0,0.0,0.0,0.0,0.0,0.0,0.0,0.0,0.0,0.0,0.0,0.0,0.0,0.0,0.0,0.0,0.0,0.0,0.0,0.0,0.0,0.0,0.0,0.0,0.0,0.0,0.0,0.0,0.0,0.0,0.0,0.0,0.0,0.0,0.0,0.0,0.0,0.0,0.0,0.0,0.0,0.0,0.0,0.0,0.0,0.0,0.0,0.0,0.0,0.0,0.0,0.0,0.0,0.0,0.0,0.0,0.0,0.0,0.0,0.0,0.0,0.0,0.0,0.0,0.0,0.0,0.0,0.0,0.0,0.0,0.0,0.0,0.0,0.0,0.0,0.0,0.0,0.0,0.0,0.0,0.0,0.0,0.0,0.0,0.0,0.0,0.0,0.0,0.0,0.0,0.0,0.0,0.0,0.0,0.0,0.0,0.0,0.0,0.0,0.0,0.0,0.0,0.0,0.0,0.0,0.0,0.0,0.0,0.0,0.0,0.0,0.0,0.0,0.0,0.0,0.0,0.0,0.0,0.0,0.0,0.0,0.0,0.0,0.0,0.0,0.0,0.0,0.0,0.0,0.0,0.0,0.0,0.0,0.0,0.0,0.0,0.0,0.0,0.0,0.0,0.0,0.0,0.0,0.0,0.0,0.0,0.0,0.0,0.0,0.0,0.0,0.0,0.0,0.0,0.0,0.0,0.0,0.0,0.0,0.0,0.0,0.0,0.0,0.0,0.0,0.0,0.0,0.0,0.0,0.0,0.0,0.0,0.0,0.0,0.0,0.0,0.0,0.0,0.0,0.0,0.0,0.0,0.0,0.0,0.0,0.0,0.0,0.0,0.0,0.0,0.0,0.0,0.0,0.0,0.0,0.0,0.0,0.0,0.0,0.0,0.0,0.0,0.0,0.0,0.0,0.0,0.0,0.0,0.0,0.0,0.0,0.0,0.0,0.0,0.0,0.0,0.0,0.0,0.0,0.0,0.0,0.0,0.0,0.0,0.0,0.0,0.0,0.0,0.0,0.0,0.0,0.0,0.0,0.0,0.0,0.0,0.0,0.0,0.0,0.0,0.0,0.0,0.0,0.0,0.0,0.0,0.0,0.0,0.0,0.0,0.0,0.0,0.0,0.0,0.0,0.0,0.0,0.0,0.0,0.0,0.0,0.0,0.0,0.0,0.0,0.0,0.0,0.0,0.0,0.0,0.0,0.0,0.0,0.0,0.0,0.0,0.0,0.0,0.0,0.0,0.0,0.0,0.0,0.0,0.0,0.0,0.0,0.0,0.0,0.0,0.0,0.0,0.0,0.0,0.0,0.0,0.0,0.0,0.0,0.0,0.0,0.0,0.0,0.0,0.0,0.0,0.0,0.0,0.0,0.0,0.0,0.0,0.0,0.0,0.0,0.0,0.0,0.0,0.0,0.0,0.0,0.0,0.0,0.0,0.0,0.0,0.0,0.0,0.0,0.0,0.0,0.0,0.0,0.0,0.0,0.0,0.0,0.0,0.0,0.0,0.0,0.0,0.0,0.0,0.0,0.0,0.0,0.0,0.0,0.0,0.0,0.0,0.0,0.0,0.0,0.0,0.0,0.0,0.0,0.0,0.0,0.0,0.0,0.0,0.0,0.0,0.0,0.0,0.0,0.0,0.0,0.0,0.0,0.0,0.0,0.0,0.0,0.0,0.0,0.0,0.0,0.0,0.0,0.0,0.0,0.0,0.0,0.0,0.0,0.0,0.0,0.0,0.0,0.0,0.0,0.0,0.0,0.0,0.0,0.0,0.0,0.0,0.0,0.0,0.0,0.0,0.0,0.0,0.0,0.0,0.0,0.0,0.0,0.0,0.0,0.0,0.0,0.0,0.0,0.0,0.0,0.0,0.0,0.0,0.0,0.0,0.0,0.0,0.0,0.0,0.0,0.0,0.0,0.0,0.0,0.0,0.0,0.0,0.0,0.0,0.0,0.0,0.0,0.0,0.0,0.0,0.0,0.0,0.0,0.0,0.0,0.0,0.0,0.0,0.0,0.0,0.0,0.0,0.0,0.0,0.0,0.0,0.0,0.0,0.0,0.0,0.0,0.0,0.0,0.0,0.0,0.0,0.0,0.0,0.0,0.0,0.0,0.0,0.0,0.0,0.0,0.0,0.0,0.0,0.0,0.0,0.0,0.0,0.0,0.0,0.0,0.0,0.0,0.0,0.0,0.0,0.0,0.0,0.0,0.0,0.0,0.0,0.3075,0.0,0.0,0.0,0.0,0.0,0.0,0.0,0.0,0.0,0.0,0.0,0.0,0.0,0.0,0.0,0.0,0.0,0.0,0.0,0.0,0.0,0.0,0.0,0.0,0.0,0.0,0.0,0.0,0.0,0.0,0.0,0.0,0.0,0.0,0.0,0.0,0.0,0.0,0.0,0.0,0.0,0.0,0.0,0.0,0.0,0.0,0.0,0.0,0.0,0.0,0.0,0.0,0.0,0.0,0.0,0.0,0.0,0.0,0.0,0.0,0.0,0.0,0.0,0.0,0.0,0.0,0.0,0.0,0.0,0.0,0.0,0.0,0.0,0.0,0.0,0.0,0.0,0.0,0.0,0.0,0.0,0.0,0.0,0.0,0.0,0.0,0.0,0.0,0.0,0.0,0.0,0.0,0.0,0.0,0.0,0.0,0.0,0.0,0.0,0.0,0.0,0.0,0.0,0.0,0.0,0.0,0.0,0.0,0.0,0.0,0.4011,0.3541,0.372,0.3537,0.3004,0.0,0.0,0.0,0.0,0.0,0.0,0.0,0.0,0.0,0.0,0.0,0.0,0.0,0.0,0.0,0.0,0.0,0.0,0.0,0.0,0.0,0.0,0.0,0.0,0.0,0.0,0.0,0.0,0.0,0.0,0.0,0.0,0.0,0.0,0.0,0.0,0.0,0.0,0.0,0.0,0.0,0.0,0.0,0.0,0.0,0.0,0.0,0.0,0.0,0.0,0.0,0.0,0.0,0.0,0.0,0.0,0.0,0.0,0.0,0.0,0.0,0.0,0.0,0.0,0.0,0.0,0.0,0.0,0.0,0.0,0.0,0.0,0.0,0.0,0.0,0.0,0.0,0.0,0.0,0.0,0.0,0.0,0.0,0.0,0.0,0.0,0.0,0.0,0.0,0.0,0.0,0.0,0.0,0.0,0.0,0.0,0.0,0.0,0.0,0.0,0.0,0.0,0.0,0.0,0.0,0.0,0.0,0.0,0.0,0.0,0.0,0.0,0.3755,0.3565,0.3132,0.0,0.0,0.0,0.0,0.0,0.0,0.0,0.0,0.0,0.0,0.0,0.0,0.0,0.0,0.0,0.0,0.0,0.0,0.0,0.0,0.0,0.0,0.0,0.0,0.0,0.0,0.0,0.0,0.0,0.0,0.0,0.0,0.0,0.0,0.0,0.0,0.0,0.0,0.0,0.0,0.0,0.0,0.0,0.0,0.0,0.0,0.0,0.0,0.0,0.0,0.0,0.0,0.0,0.0,0.0,0.0,0.0,0.0,0.0,0.0,0.0,0.0,0.0,0.0,0.0,0.0,0.0,0.0,0.0,0.0,0.0,0.0,0.0,0.0,0.0,0.0,0.0,0.0,0.0,0.0,0.0,0.0,0.0,0.0,0.0,0.0,0.0,0.0,0.0,0.0,0.0,0.0,0.0,0.0,0.0,0.0,0.0,0.0,0.0,0.0,0.0,0.0,0.0,0.0,0.0,0.0,0.0,0.0,0.0,0.0,0.4088,0.4073,0.3903,0.0,0.3378,0.0,0.0,0.0,0.0,0.0,0.0,0.0,0.0,0.0,0.0,0.0,0.0,0.0,0.0,0.0,0.0,0.0,0.0,0.0,0.0,0.0,0.0,0.0,0.0,0.0,0.0,0.0,0.0,0.0,0.0,0.0,0.0,0.0,0.0,0.0,0.0,0.0,0.0,0.0,0.0,0.0,0.0,0.0,0.0,0.0,0.0,0.0,0.0,0.0,0.0,0.0,0.0,0.0,0.0,0.0,0.0,0.0,0.0,0.0,0.0,0.0,0.0,0.0,0.0,0.0,0.0,0.0,0.0,0.0,0.0,0.0,0.0,0.0,0.0,0.0,0.0,0.0,0.0,0.0,0.0,0.0,0.0,0.0,0.0,0.0,0.0,0.0,0.0,0.0,0.0,0.0,0.0,0.0,0.0,0.0,0.0,0.0,0.0,0.0,0.0,0.0,0.0,0.0,0.0,0.0,0.0,0.0,0.0,0.0,0.0,0.3997,0.3966,0.3618,0.3383,0.0,0.0,0.0,0.0,0.0,0.0,0.0,0.0,0.0,0.0,0.0,0.0,0.0,0.0,0.0,0.0,0.0,0.0,0.0,0.0,0.0,0.0,0.0,0.0,0.0,0.0,0.0,0.0,0.0,0.0,0.0,0.0,0.0,0.0,0.0,0.0,0.0,0.0,0.0,0.0,0.0,0.0,0.0,0.0,0.0,0.0,0.0,0.0,0.0,0.0,0.0,0.0,0.0,0.0,0.0,0.0,0.0,0.0,0.0,0.0,0.0,0.0,0.0,0.0,0.0,0.0,0.0,0.0,0.0,0.0,0.0,0.0,0.0,0.0,0.0,0.0,0.0,0.0,0.0,0.0,0.0,0.0,0.0,0.0,0.0,0.0,0.0,0.0,0.0,0.0,0.0,0.0,0.0,0.0,0.0,0.0,0.0,0.0,0.0,0.0,0.0,0.0,0.0,0.0,0.0,0.0,0.0,0.0,0.0,0.0,0.4363,0.4235,0.4073,0.3471,0.3194,0.3282,0.0,0.0,0.0,0.0,0.0,0.0,0.0,0.0,0.0,0.0,0.0,0.0,0.0,0.0,0.0,0.0,0.0,0.0,0.0,0.0,0.0,0.0,0.0,0.0,0.0,0.0,0.0,0.0,0.0,0.0,0.0,0.0,0.0,0.0,0.0,0.0,0.0,0.0,0.0,0.0,0.0,0.0,0.0,0.0,0.0,0.0,0.0,0.0,0.0,0.0,0.0,0.0,0.0,0.0,0.0,0.0,0.0,0.0,0.0,0.0,0.0,0.0,0.0,0.0,0.0,0.0,0.0,0.0,0.0,0.0,0.0,0.0,0.0,0.0,0.0,0.0,0.0,0.0,0.0,0.0,0.0,0.0,0.0,0.0,0.0,0.0,0.0,0.0,0.0,0.0,0.0,0.0,0.0,0.0,0.0,0.0,0.0,0.0,0.0,0.0,0.0,0.0,0.0,0.0,0.0,0.0,0.0,0.0,0.4931,0.5027,0.4824,0.4423,0.3536,0.3155,0.0,0.0,0.0,0.0,0.0,0.0,0.0,0.0,0.0,0.0,0.0,0.0,0.0,0.0,0.0,0.0,0.0,0.0,0.0,0.0,0.0,0.0,0.0,0.0,0.0,0.0,0.0,0.0,0.0,0.0,0.0,0.0,0.0,0.0,0.0,0.0,0.0,0.0,0.0,0.0,0.0,0.0,0.0,0.0,0.0,0.0,0.0,0.0,0.0,0.0,0.0,0.0,0.0,0.0,0.0,0.0,0.0,0.0,0.0,0.0,0.0,0.0,0.0,0.0,0.0,0.0,0.0,0.0,0.0,0.0,0.0,0.0,0.0,0.0,0.0,0.0,0.0,0.0,0.0,0.0,0.0,0.0,0.0,0.0,0.0,0.0,0.0,0.0,0.0,0.0,0.0,0.0,0.0,0.0,0.0,0.0,0.0,0.0,0.0,0.0,0.0,0.0,0.0,0.0,0.0,0.0,0.0,0.0,0.0,0.4742,0.4634,0.4409,0.4177,0.3644,0.3411,0.0,0.0,0.0,0.0,0.0,0.0,0.0,0.0,0.0,0.0,0.0,0.0,0.0,0.0,0.0,0.0,0.0,0.0,0.0,0.0,0.0,0.0,0.0,0.0,0.0,0.0,0.0,0.0,0.0,0.0,0.0,0.0,0.0,0.0,0.0,0.0,0.0,0.0,0.0,0.0,0.0,0.0,0.0,0.0,0.0,0.0,0.0,0.0,0.0,0.0,0.0,0.0,0.0,0.0,0.0,0.0,0.0,0.0,0.0,0.0,0.0,0.0,0.0,0.0,0.0,0.0,0.0,0.0,0.0,0.0,0.0,0.0,0.0,0.0,0.0,0.0,0.0,0.0,0.0,0.0,0.0,0.0,0.0,0.0,0.0,0.0,0.0,0.0,0.0,0.0,0.0,0.0,0.0,0.0,0.0,0.0,0.0,0.0,0.0,0.0,0.0,0.0,0.0,0.0,0.0,0.0,0.0,0.0,0.0,0.4896,0.0,0.4298,0.4088,0.3755,0.3536,0.0,0.0,0.0,0.0,0.0,0.0,0.0,0.0,0.0,0.0,0.0,0.0,0.0,0.0,0.0,0.0,0.0,0.0,0.0,0.0,0.0,0.0,0.0,0.0,0.0,0.0,0.0,0.0,0.0,0.0,0.0,0.0,0.0,0.0,0.0,0.0,0.0,0.0,0.0,0.0,0.0,0.0,0.0,0.0,0.0,0.0,0.0,0.0,0.0,0.0,0.0,0.0,0.0,0.0,0.0,0.0,0.0,0.0,0.0,0.0,0.0,0.0,0.0,0.0,0.0,0.0,0.0,0.0,0.0,0.0,0.0,0.0,0.0,0.0,0.0,0.0,0.0,0.0,0.0,0.0,0.0,0.0,0.0,0.0,0.0,0.0,0.0,0.0,0.0,0.0,0.0,0.0,0.0,0.0,0.0,0.0,0.0,0.0,0.0,0.0,0.0,0.0,0.0,0.0,0.0,0.0,0.0,0.0,0.5171,0.5363,0.5036,0.4655,0.4293,0.386,0.3502,0.0,0.0,0.0,0.0,0.0,0.0,0.0,0.0,0.0,0.0,0.0,0.0,0.0,0.0,0.0,0.0,0.0,0.0,0.0,0.0,0.0,0.0,0.0,0.0,0.0,0.0,0.0,0.0,0.0,0.0,0.0,0.0,0.0,0.0,0.0,0.0,0.0,0.0,0.0,0.0,0.0,0.0,0.0,0.0,0.0,0.0,0.0,0.0,0.0,0.0,0.0,0.0,0.0,0.0,0.0,0.0,0.0,0.0,0.0,0.0,0.0,0.0,0.0,0.0,0.0,0.0,0.0,0.0,0.0,0.0,0.0,0.0,0.0,0.0,0.0,0.0,0.0,0.0,0.0,0.0,0.0,0.0,0.0,0.0,0.0,0.0,0.0,0.0,0.0,0.0,0.0,0.0,0.0,0.0,0.0,0.0,0.0,0.0,0.0,0.0,0.0,0.0,0.0,0.0,0.0,0.0,0.0,0.0,0.0,0.478,0.4516,0.4252,0.3929,0.3946,0.377,0.0,0.0,0.0,0.0,0.0,0.0,0.0,0.0,0.0,0.0,0.0,0.0,0.0,0.0,0.0,0.0,0.0,0.0,0.0,0.0,0.0,0.0,0.0,0.0,0.0,0.0,0.0,0.0,0.0,0.0,0.0,0.0,0.0,0.0,0.0,0.0,0.0,0.0,0.0,0.0,0.0,0.0,0.0,0.0,0.0,0.0,0.0,0.0,0.0,0.0,0.0,0.0,0.0,0.0,0.0,0.0,0.0,0.0,0.0,0.0,0.0,0.0,0.0,0.0,0.0,0.0,0.0,0.0,0.0,0.0,0.0,0.0,0.0,0.0,0.0,0.0,0.0,0.0,0.0,0.0,0.0,0.0,0.0,0.0,0.0,0.0,0.0,0.0,0.0,0.0,0.0,0.0,0.0,0.0,0.0,0.0,0.0,0.0,0.0,0.0,0.0,0.0,0.0,0.0,0.0,0.0,0.0,0.0,0.0,0.4607,0.4442,0.418,0.3766,0.4019,0.3978,0.3576,0.0,0.0,0.0,0.0,0.0,0.0,0.0,0.0,0.0,0.0,0.0,0.0,0.0,0.0,0.0,0.0,0.0,0.0,0.0,0.0,0.0,0.0,0.0,0.0,0.0,0.0,0.0,0.0,0.0,0.0,0.0,0.0,0.0,0.0,0.0,0.0,0.0,0.0,0.0,0.0,0.0,0.0,0.0,0.0,0.0,0.0,0.0,0.0,0.0,0.0,0.0,0.0,0.0,0.0,0.0,0.0,0.0,0.0,0.0,0.0,0.0,0.0,0.0,0.0,0.0,0.0,0.0,0.0,0.0,0.0,0.0,0.0,0.0,0.0,0.0,0.0,0.0,0.0,0.0,0.0,0.0,0.0,0.0,0.0,0.0,0.0,0.0,0.0,0.0,0.0,0.0,0.0,0.0,0.0,0.0,0.0,0.0,0.0,0.0,0.0,0.0,0.0,0.0,0.0,0.0,0.0,0.0,0.0,0.483,0.471,0.438,0.3801,0.4022,0.4004,0.0,0.0,0.0,0.0,0.0,0.0,0.0,0.0,0.0,0.0,0.0,0.0,0.0,0.0,0.0,0.0,0.0,0.0,0.0,0.0,0.0,0.0,0.0,0.0,0.0,0.0,0.0,0.0,0.0,0.0,0.0,0.0,0.0,0.0,0.0,0.0,0.0,0.0,0.0,0.0,0.0,0.0,0.0,0.0,0.0,0.0,0.0,0.0,0.0,0.0,0.0,0.0,0.0,0.0,0.0,0.0,0.0,0.0,0.0,0.0,0.0,0.0,0.0,0.0,0.0,0.0,0.0,0.0,0.0,0.0,0.0,0.0,0.0,0.0,0.0,0.0,0.0,0.0,0.0,0.0,0.0,0.0,0.0,0.0,0.0,0.0,0.0,0.0,0.0,0.0,0.0,0.0,0.0,0.0,0.0,0.0,0.0,0.0,0.0,0.0,0.0,0.0,0.0,0.0,0.0,0.0,0.0,0.0,0.0,0.517,0.4864,0.4389,0.3855,0.4038,0.4047,0.0,0.0,0.0,0.0,0.0,0.0,0.0,0.0,0.0,0.0,0.0,0.0,0.0,0.0,0.0,0.0,0.0,0.0,0.0,0.0,0.0,0.0,0.0,0.0,0.0,0.0,0.0,0.0,0.0,0.0,0.0,0.0,0.0,0.0,0.0,0.0,0.0,0.0,0.0,0.0,0.0,0.0,0.0,0.0,0.0,0.0,0.0,0.0,0.0,0.0,0.0,0.0,0.0,0.0,0.0,0.0,0.0,0.0,0.0,0.0,0.0,0.0,0.0,0.0,0.0,0.0,0.0,0.0,0.0,0.0,0.0,0.0,0.0,0.0,0.0,0.0,0.0,0.0,0.0,0.0,0.0,0.0,0.0,0.0,0.0,0.0,0.0,0.0,0.0,0.0,0.0,0.0,0.0,0.0,0.0,0.0,0.0,0.0,0.0,0.0,0.0,0.0,0.0,0.0,0.0,0.0,0.0,0.0,0.5654,0.5408,0.506,0.4514,0.3888,0.4219,0.4257,0.0,0.0,0.0,0.0,0.0,0.0,0.0,0.0,0.0,0.0,0.0,0.0,0.0,0.0,0.0,0.0,0.0,0.0,0.0,0.0,0.0,0.0,0.0,0.0,0.0,0.0,0.0,0.0,0.0,0.0,0.0,0.0,0.0,0.0,0.0,0.0,0.0,0.0,0.0,0.0,0.0,0.0,0.0,0.0,0.0,0.0,0.0,0.0,0.0,0.0,0.0,0.0,0.0,0.0,0.0,0.0,0.0,0.0,0.0,0.0,0.0,0.0,0.0,0.0,0.0,0.0,0.0,0.0,0.0,0.0,0.0,0.0,0.0,0.0,0.0,0.0,0.0,0.0,0.0,0.0,0.0,0.0,0.0,0.0,0.0,0.0,0.0,0.0,0.0,0.0,0.0,0.0,0.0,0.0,0.0,0.0,0.0,0.0,0.0,0.0,0.0,0.0,0.0,0.0,0.0,0.0,0.0,0.0,0.5988,0.5604,0.5303,0.4763,0.4,0.4313,0.4439,0.0,0.0,0.0,0.0,0.0,0.0,0.0,0.0,0.0,0.0,0.0,0.0,0.0,0.0,0.0,0.0,0.0,0.0,0.0,0.0,0.0,0.0,0.0,0.0,0.0,0.0,0.0,0.0,0.0,0.0,0.0,0.0,0.0,0.0,0.0,0.0,0.0,0.0,0.0,0.0,0.0,0.0,0.0,0.0,0.0,0.0,0.0,0.0,0.0,0.0,0.0,0.0,0.0,0.0,0.0,0.0,0.0,0.0,0.0,0.0,0.0,0.0,0.0,0.0,0.0,0.0,0.0,0.0,0.0,0.0,0.0,0.0,0.0,0.0,0.0,0.0,0.0,0.0,0.0,0.0,0.0,0.0,0.0,0.0,0.0,0.0,0.0,0.0,0.0,0.0,0.0,0.0,0.0,0.0,0.0,0.0,0.0,0.0,0.0,0.0,0.0,0.0,0.0,0.0,0.0,0.0,0.0,0.0,0.6549,0.6117,0.5661,0.5075,0.4237,0.3953,0.3936,0.0,0.0,0.0,0.0,0.0,0.0,0.0,0.0,0.0,0.0,0.0,0.0,0.0,0.0,0.0,0.0,0.0,0.0,0.0,0.0,0.0,0.0,0.0,0.0,0.0,0.0,0.0,0.0,0.0,0.0,0.0,0.0,0.0,0.0,0.0,0.0,0.0,0.0,0.0,0.0,0.0,0.0,0.0,0.0,0.0,0.0,0.0,0.0,0.1951,0.0,0.0,0.0,0.0,0.0,0.0,0.0,0.0,0.0,0.0,0.0,0.0,0.0,0.0,0.0,0.0,0.0,0.0,0.0,0.0,0.0,0.0,0.0,0.0,0.0,0.0,0.0,0.0,0.0,0.0,0.0,0.0,0.0,0.0,0.0,0.0,0.0,0.0,0.0,0.0,0.0,0.0,0.0,0.0,0.0,0.0,0.0,0.0,0.0,0.0,0.0,0.0,0.0,0.0,0.0,0.0,0.0,0.0,0.0,0.694,0.6463,0.594,0.5283,0.4378,0.4099,0.3998,0.0,0.0,0.0,0.0,0.0,0.0,0.0,0.0,0.0,0.0,0.0,0.0,0.0,0.0,0.0,0.0,0.0,0.0,0.0,0.0,0.0,0.0,0.0,0.0,0.0,0.0,0.0,0.0,0.0,0.0,0.0,0.0,0.0,0.0,0.0,0.0,0.0,0.0,0.0,0.0,0.0,0.0,0.0,0.0,0.0,0.0,0.0,0.0,0.0,0.0,0.0,0.0,0.0,0.0,0.0,0.0,0.0,0.0,0.0,0.0,0.0,0.0,0.0,0.0,0.0,0.0,0.0,0.0,0.0,0.0,0.0,0.0,0.0,0.0,0.0,0.0,0.0,0.0,0.0,0.0,0.0,0.0,0.0,0.0,0.0,0.0,0.0,0.0,0.0,0.0,0.0,0.0,0.0,0.0,0.0,0.0,0.0,0.0,0.0,0.0,0.0,0.0,0.0,0.0,0.0,0.0,0.0,0.7664,0.7368,0.666,0.6283,0.5569,0.4535,0.4402,0.4415,0.4411,0.0,0.0,0.0,0.0,0.0,0.0,0.0,0.0,0.0,0.0,0.0,0.0,0.0,0.0,0.0,0.0,0.0,0.0,0.0,0.0,0.0,0.0,0.0,0.0,0.0,0.0,0.0,0.0,0.0,0.0,0.0,0.0,0.0,0.0,0.0,0.0,0.0,0.0,0.1821,0.1912,0.0,0.0,0.0,0.0,0.0,0.0,0.0,0.0,0.2296,0.0,0.0,0.0,0.0,0.0,0.0,0.0,0.0,0.0,0.0,0.0,0.0,0.0,0.0,0.0,0.0,0.0,0.0,0.0,0.0,0.0,0.0,0.0,0.0,0.0,0.0,0.0,0.0,0.0,0.0,0.0,0.0,0.0,0.0,0.0,0.0,0.0,0.0,0.0,0.0,0.0,0.0,0.0,0.0,0.0,0.0,0.0,0.0,0.0,0.0,0.0,0.0,0.0,0.0,0.0,0.0,0.8185,0.837,0.7921,0.6896,0.6976,0.6363,0.5002,0.485,0.4742,0.4604,0.0,0.0,0.0,0.0,0.0,0.0,0.0,0.0,0.0,0.0,0.0,0.0,0.0,0.0,0.0,0.0,0.0,0.0,0.0,0.0,0.0,0.0,0.0,0.0,0.0,0.0,0.0,0.0,0.0,0.0,0.0,0.0,0.0,0.0,0.0,0.0,0.0,0.0,0.0,0.2187,0.2283,0.0,0.0,0.0,0.0,0.0,0.0,0.0,0.0,0.2188,0.0,0.0,0.0,0.0,0.0,0.0,0.0,0.0,0.0,0.0,0.0,0.0,0.0,0.0,0.0,0.0,0.0,0.0,0.0,0.0,0.0,0.0,0.0,0.0,0.0,0.0,0.0,0.0,0.0,0.0,0.0,0.0,0.0,0.0,0.0,0.0,0.0,0.0,0.0,0.0,0.0,0.0,0.0,0.0,0.0,0.0,0.0,0.0,0.0,0.0,0.0,0.0,0.0,0.0,0.0,0.8811,0.8931,0.8611,0.7692,0.7383,0.6634,0.5547,0.5368,0.5173,0.0,0.0,0.0,0.0,0.0,0.0,0.0,0.0,0.0,0.0,0.0,0.0,0.0,0.0,0.0,0.0,0.0,0.0,0.0,0.0,0.0,0.0,0.0,0.0,0.0,0.0,0.0,0.0,0.0,0.0,0.0,0.0,0.0,0.0,0.0,0.0,0.0,0.0,0.0,0.0,0.2459,0.2332,0.2698,0.0,0.0,0.0,0.0,0.0,0.0,0.1993,0.2141,0.0,0.0,0.0,0.0,0.0,0.0,0.0,0.0,0.0,0.0,0.0,0.0,0.0,0.0,0.0,0.0,0.0,0.0,0.0,0.0,0.0,0.0,0.0,0.0,0.0,0.0,0.0,0.0,0.0,0.0,0.0,0.0,0.0,0.0,0.0,0.0,0.0,0.0,0.0,0.0,0.0,0.0,0.0,0.0,0.0,0.0,0.0,0.0,0.0,0.0,0.0,0.0,0.0,0.0,0.0,0.9212,0.9351,0.9118,0.852,0.7841,0.7118,0.622,0.6108,0.5792,0.0,0.0,0.0,0.0,0.0,0.0,0.0,0.0,0.0,0.0,0.0,0.0,0.0,0.0,0.0,0.0,0.0,0.0,0.0,0.0,0.0,0.0,0.0,0.0,0.0,0.0,0.0,0.0,0.0,0.0,0.0,0.0,0.0,0.0,0.0,0.0,0.0,0.0,0.0,0.0,0.0,0.2379,0.2625,0.252,0.0,0.0,0.0,0.0,0.1797,0.2117,0.0,0.0,0.0,0.0,0.0,0.0,0.0,0.0,0.0,0.0,0.0,0.0,0.0,0.0,0.0,0.0,0.0,0.0,0.0,0.0,0.0,0.0,0.0,0.0,0.0,0.0,0.0,0.0,0.0,0.0,0.0,0.0,0.0,0.0,0.0,0.0,0.0,0.0,0.0,0.0,0.0,0.0,0.0,0.0,0.0,0.0,0.0,0.0,0.0,0.0,0.0,0.0,0.0,0.0,0.0,0.0,0.9041,0.9566,0.9498,0.8792,0.8805,0.8226,0.7096,0.7068,0.6599,0.0,0.0,0.0,0.0,0.0,0.0,0.0,0.0,0.0,0.0,0.0,0.0,0.0,0.0,0.0,0.0,0.0,0.0,0.0,0.0,0.0,0.0,0.0,0.0,0.0,0.0,0.0,0.0,0.0,0.0,0.0,0.0,0.0,0.0,0.0,0.0,0.0,0.0,0.0,0.0,0.0,0.2454,0.2211,0.2383,0.2464,0.0,0.0,0.0,0.2382,0.2592,0.0,0.0,0.0,0.0,0.0,0.0,0.0,0.0,0.0,0.0,0.0,0.0,0.0,0.0,0.0,0.0,0.0,0.0,0.0,0.0,0.0,0.0,0.0,0.0,0.0,0.0,0.0,0.0,0.0,0.0,0.0,0.0,0.0,0.0,0.0,0.0,0.0,0.0,0.0,0.0,0.0,0.0,0.0,0.0,0.0,0.0,0.0,0.0,0.0,0.0,0.0,0.0,0.0,0.0,0.0,0.9608,0.9681,1.0307,1.0347,0.9746,0.9419,0.8774,0.776,0.748,0.6872,0.0,0.0,0.0,0.0,0.0,0.0,0.0,0.0,0.0,0.0,0.0,0.0,0.0,0.0,0.0,0.0,0.0,0.0,0.0,0.0,0.0,0.0,0.0,0.0,0.0,0.0,0.0,0.0,0.0,0.0,0.0,0.0,0.0,0.0,0.0,0.0,0.0,0.0,0.0,0.0,0.0,0.0,0.2671,0.2721,0.0,0.0,0.0,0.229,0.2389,0.0,0.0,0.0,0.0,0.0,0.0,0.0,0.0,0.0,0.0,0.0,0.0,0.0,0.0,0.0,0.0,0.0,0.0,0.0,0.0,0.0,0.0,0.0,0.0,0.0,0.0,0.0,0.0,0.0,0.0,0.0,0.0,0.0,0.0,0.0,0.0,0.0,0.0,0.0,0.0,0.0,0.0,0.0,0.0,0.0,0.0,0.0,0.0,0.0,0.0,0.0,0.0,0.0,0.0,0.0,0.0,0.0,1.0293,1.0999,1.1166,1.0642,1.0054,0.9345,0.8471,0.794,0.0,0.0,0.0,0.0,0.0,0.0,0.0,0.0,0.0,0.0,0.0,0.0,0.0,0.0,0.0,0.0,0.0,0.0,0.0,0.0,0.0,0.0,0.0,0.0,0.0,0.0,0.0,0.0,0.0,0.0,0.0,0.0,0.0,0.0,0.0,0.0,0.0,0.0,0.0,0.0,0.0,0.0,0.3394,0.3064,0.306,0.2933,0.0,0.0,0.2395,0.2475,0.2582,0.2549,0.0,0.0,0.0,0.0,0.0,0.0,0.0,0.0,0.0,0.0,0.0,0.0,0.0,0.0,0.0,0.0,0.0,0.0,0.0,0.0,0.0,0.0,0.0,0.0,0.0,0.0,0.0,0.0,0.0,0.0,0.0,0.0,0.0,0.0,0.0,0.0,0.0,0.0,0.0,0.0,0.0,0.0,0.0,0.0,0.0,0.0,0.0,0.0,0.0,0.0,0.0,0.0,0.0,0.0,0.0,1.0519,1.149,1.1741,1.1289,1.0783,1.0149,0.9322,0.8882,0.8022,0.0,0.0,0.0,0.0,0.0,0.0,0.0,0.0,0.0,0.0,0.0,0.0,0.0,0.0,0.0,0.0,0.0,0.0,0.0,0.0,0.0,0.0,0.0,0.0,0.0,0.0,0.0,0.0,0.0,0.0,0.0,0.0,0.0,0.0,0.0,0.0,0.0,0.0,0.0,0.0,0.0,0.3456,0.299,0.3016,0.3099,0.0,0.0,0.2765,0.2932,0.303,0.3026,0.2535,0.0,0.0,0.0,0.0,0.0,0.0,0.0,0.0,0.0,0.0,0.0,0.0,0.0,0.0,0.0,0.0,0.0,0.0,0.0,0.0,0.0,0.0,0.0,0.0,0.0,0.0,0.0,0.0,0.0,0.0,0.0,0.0,0.0,0.0,0.0,0.0,0.0,0.0,0.0,0.0,0.0,0.0,0.0,0.0,0.0,0.0,0.0,0.0,0.0,0.0,0.0,0.0,0.0,1.09,1.0686,1.199,1.2269,1.1602,1.1396,1.0742,0.9582,0.9214,0.8371,0.0,0.0,0.0,0.0,0.0,0.0,0.0,0.0,0.0,0.0,0.0,0.0,0.0,0.0,0.0,0.0,0.0,0.0,0.0,0.0,0.0,0.0,0.0,0.0,0.0,0.0,0.0,0.0,0.4998,0.49,0.47,0.0,0.0,0.0,0.0,0.0,0.0,0.0,0.0,0.0,0.0,0.4068,0.3683,0.3449,0.0,0.0,0.3004,0.2848,0.3057,0.3038,0.28,0.2586,0.2525,0.0,0.0,0.0,0.0,0.0,0.0,0.0,0.0,0.0,0.0,0.0,0.0,0.0,0.0,0.0,0.0,0.0,0.0,0.0,0.0,0.0,0.0,0.0,0.0,0.0,0.0,0.0,0.0,0.0,0.0,0.0,0.0,0.0,0.0,0.0,0.0,0.0,0.0,0.0,0.0,0.0,0.0,0.0,0.0,0.0,0.0,0.0,0.0,0.0,0.0,0.0,0.0,1.1222,1.0911,1.2331,1.2711,1.1952,1.1767,1.1107,1.0004,0.9431,0.8659,0.0,0.0,0.0,0.0,0.0,0.0,0.0,0.0,0.0,0.0,0.0,0.0,0.0,0.0,0.0,0.0,0.0,0.0,0.0,0.0,0.0,0.0,0.0,0.0,0.0,0.0,0.0,0.0,0.5277,0.5118,0.484,0.0,0.0,0.0,0.0,0.0,0.0,0.0,0.0,0.0,0.0,0.4665,0.4404,0.3976,0.368,0.3594,0.3244,0.3001,0.331,0.3062,0.281,0.2747,0.0,0.0,0.0,0.0,0.0,0.0,0.0,0.0,0.0,0.0,0.0,0.0,0.0,0.0,0.0,0.0,0.0,0.0,0.0,0.0,0.0,0.0,0.0,0.0,0.0,0.0,0.0,0.0,0.0,0.0,0.7289,0.0,0.0,0.0,0.0,0.0,0.0,0.0,0.0,0.0,0.0,0.0,0.0,0.0,0.0,0.0,0.0,0.0,0.0,0.0,0.0,0.0,0.0,0.0,1.1123,1.2606,1.3064,1.2375,1.1946,1.1297,1.0405,0.973,0.8876,0.7681,0.0,0.0,0.0,0.0,0.0,0.0,0.0,0.0,0.0,0.0,0.0,0.0,0.0,0.0,0.0,0.0,0.0,0.0,0.0,0.0,0.0,0.0,0.0,0.0,0.0,0.0,0.5832,0.5786,0.5563,0.0,0.0,0.0,0.0,0.0,0.0,0.0,0.0,0.0,0.0,0.524,0.5284,0.4858,0.4504,0.4206,0.3933,0.3582,0.3317,0.3587,0.3401,0.32,0.0,0.0,0.0,0.0,0.0,0.0,0.0,0.0,0.0,0.0,0.0,0.0,0.0,0.0,0.0,0.0,0.0,0.0,0.0,0.0,0.0,0.0,0.0,0.0,0.0,0.0,0.0,0.7939,0.7868,0.0,0.0,0.0,0.0,0.0,0.0,0.0,0.0,0.0,0.0,0.0,1.0734,1.0868,0.0,0.0,0.0,0.0,0.0,0.0,0.0,0.0,0.0,0.0,0.0,0.0,1.174,1.192,1.3222,1.3598,1.2982,1.2615,1.1942,1.0797,1.0141,0.9197,0.7829,0.0,0.0,0.0,0.0,0.0,0.0,0.0,0.0,0.0,0.0,0.0,0.0,0.0,0.0,0.0,0.0,0.0,0.0,0.0,0.0,0.0,0.0,0.0,0.0,0.0,0.5376,0.0,0.0,0.0,0.0,0.0,0.0,0.0,0.0,0.0,0.0,0.0,0.5387,0.547,0.5507,0.5491,0.539,0.4956,0.4546,0.0,0.0,0.0,0.0,0.0,0.0,0.0,0.0,0.0,0.0,0.0,0.0,0.0,0.0,0.3304,0.3336,0.3476,0.3622,0.3898,0.0,0.0,0.0,0.0,0.0,0.0,0.0,0.0,0.0,0.0,0.0,0.0,0.0,0.0,0.0,0.0,0.8379,0.0,0.0,0.0,0.0,0.0,0.0,0.0,0.0,1.0296,1.079,1.1491,1.1567,1.1567,0.0,1.153,1.1276,0.0,0.0,0.0,0.0,0.0,0.0,0.0,0.0,1.2331,1.2234,1.3572,1.4008,1.3203,1.2826,1.2158,1.1171,1.0198,0.9159,0.8151,0.7699,0.7475,0.0,0.0,0.0,0.0,0.0,0.0,0.0,0.0,0.0,0.0,0.0,0.0,0.0,0.0,0.0,0.0,0.0,0.0,0.0,0.0,0.0,0.0,0.0,0.5672,0.0,0.0,0.0,0.0,0.0,0.0,0.0,0.0,0.0,0.5194,0.574,0.618,0.6068,0.6085,0.6128,0.5897,0.0,0.0,0.0,0.0,0.0,0.0,0.0,0.3409,0.3321,0.3108,0.2999,0.2841,0.32,0.3421,0.3484,0.0,0.0,0.3666,0.3764,0.389,0.4159,0.4201,0.4338,0.4785,0.5106,0.5256,0.0,0.0,0.0,0.0,0.0,0.0,0.0,0.0,1.0738,1.0602,0.0,0.9613,0.0,0.0,0.0,0.0,0.0,0.0,0.0,0.0,1.1551,1.1888,1.2053,1.2135,1.1977,1.1778,1.2129,1.2246,1.2134,1.0915,0.0,0.0,0.0,0.0,0.0,0.0,1.3081,1.2062,1.3745,1.4193,1.3285,1.268,1.2093,1.1333,0.9983,0.8944,0.8421,0.7926,0.7668,0.7799,0.7091,0.0,0.0,0.0,0.0,0.0,0.0,0.0,0.0,0.0,0.0,0.0,0.0,0.0,0.0,0.0,0.0,0.0,0.0,0.0,0.0,0.6622,0.0,0.0,0.0,0.0,0.0,0.0,0.0,0.0,0.0,0.0,0.6126,0.6683,0.7007,0.6642,0.0,0.0,0.0,0.0,0.5954,0.5657,0.5359,0.514,0.5036,0.4563,0.4091,0.3808,0.0,0.0,0.3063,0.3296,0.351,0.3438,0.3854,0.4143,0.3984,0.389,0.4011,0.4439,0.4359,0.4389,0.4905,0.5196,0.5323,1.0321,0.0,0.0,0.0,0.0,1.2739,1.2831,1.2533,1.2158,1.1773,1.1294,1.0623,0.0,0.0,0.0,0.0,0.0,0.0,1.1584,1.2213,1.3049,1.352,1.3601,1.3901,1.3826,1.3525,1.3308,1.3065,1.2694,1.2298,1.2074,1.2002,0.0,0.0,0.0,0.0,1.3561,1.3489,1.441,1.4566,1.4014,1.3303,1.2352,1.1171,1.0371,0.9712,0.9096,0.8651,0.8248,0.8042,0.7702,0.0,0.0,0.0,0.0,0.0,0.0,0.0,0.0,0.0,0.0,0.0,0.0,0.0,0.0,0.0,0.0,0.0,0.0,0.0,0.6597,0.7048,0.7082,0.0,0.0,0.0,0.0,0.0,0.0,0.0,0.0,0.0,0.7612,0.7556,0.7377,0.0,0.0,0.7269,0.6775,0.6623,0.6455,0.6239,0.0,0.0,0.0,0.4761,0.4383,0.4095,0.395,0.3671,0.3318,0.3691,0.4027,0.3992,0.4319,0.4536,0.443,0.4384,0.4455,0.4547,0.4549,0.4555,0.4855,0.5048,0.5342,1.1971,1.1731,1.2258,1.2734,1.3232,1.3909,1.4127,1.4027,1.3555,1.3208,1.2885,1.2097,1.1699,1.157,1.1436,0.0,0.0,0.0,1.3324,1.4028,1.4513,1.4804,1.4832,1.515,1.5072,1.4684,1.4337,1.3979,1.364,1.3497,1.3625,1.3908,0.0,0.0,1.3726,1.4313,1.4608,1.4636,1.5153,1.5127,1.4286,1.3369,1.2323,1.1009,1.0516,1.0043,0.9503,0.9125,0.8803,0.8463,0.8222,0.8052,0.0,0.0,0.0,0.0,0.0,0.0,0.0,0.0,0.0,0.0,0.0,0.6932,0.0,0.0,0.0,0.0,0.7127,0.7309,0.7288,0.7446,0.0,0.0,0.0,0.0,0.0,0.0,0.0,0.7202,0.7604,0.804,0.8264,0.8319,0.8233,0.7975,0.7847,0.7643,0.7273,0.0,0.6778,0.6646,0.6255,0.5819,0.546,0.5065,0.4679,0.4287,0.413,0.3851,0.3718,0.3978,0.4299,0.4322,0.4526,0.4743,0.4687,0.4677,0.4651,0.4589,0.4604,0.472,0.4814,0.5131,0.5448,1.3658,1.407,1.3635,1.3694,1.4213,1.4602,1.5132,1.5586,1.4998,1.4848,1.4934,1.395,1.3558,1.3611,1.3437,0.0,1.4882,1.4872,1.5305,1.598,1.5848,1.5821,1.5923,1.5931,1.5846,1.5614,1.5188,1.4947,1.4869,1.4516,1.4831,1.5801,1.481,1.4613,1.5057,1.5804,1.5988,1.5493,1.5982,1.5564,1.4328,1.3105,1.2099,1.1226,1.063,1.023,0.9764,0.954,0.9266,0.9018,0.8678,0.8503,0.8498,0.0,0.0,0.0,0.0,0.0,0.0,0.0,0.0,0.0,0.0,0.0,0.0,0.0,0.0,0.0,0.8047,0.0,0.8226,0.7829,0.0,0.0,0.0,0.655,0.6795,0.7596,0.8015,0.7855,0.0,0.0,0.0,0.0,0.9367,0.9038,0.8637,0.8168,0.7695,0.7362,0.7096,0.6781,0.6369,0.5939,0.5717,0.5422,0.5022,0.4522,0.4236,0.4028,0.4024,0.423,0.4437,0.4429,0.4636,0.483,0.4832,0.4822,0.4783,0.4726,0.4663,0.4718,0.472,0.5167,0.5515,1.51,1.5217,1.579,1.589,1.583,1.6796,1.714,1.7032,1.6674,1.6274,1.5788,1.5201,1.4887,1.4658,1.5309,1.5663,1.58,1.6749,1.698,1.6746,1.7414,1.7355,1.6798,1.7119,1.7039,1.6702,1.6365,1.5992,1.5612,1.564,1.5771,1.6004,1.6255,1.6382,1.6391,1.6541,1.6522,1.612,1.6199,1.5665,1.4631,1.3554,1.2873,1.2655,1.1618,1.0871,1.0482,1.009,0.9643,0.9261,0.912,0.9095,0.909,0.8734,0.0,0.0,0.0,0.0,0.0,0.0,0.0,0.0,0.0,0.8154,0.8329,0.0,0.8583,0.0,0.9132,0.9385,0.9038,0.8802,0.0,0.0,0.7711,0.7926,0.8479,0.8823,0.9019,0.9201,0.9012,0.9077,0.9464,0.9754,1.0017,1.0318,0.9263,0.8438,0.8062,0.7727,0.7431,0.7099,0.6819,0.6442,0.5942,0.5541,0.5039,0.4438,0.4535,0.4433,0.4033,0.4435,0.4636,0.4438,0.4636,0.4734,0.4834,0.4832,0.4922,0.4982,0.4893,0.4804,0.4806,0.522,0.5634,1.6507,1.6645,1.707,1.7139,1.7001,1.7716,1.7872,1.7588,1.7304,1.6968,1.6551,1.6338,1.626,1.6319,1.6949,1.7376,1.7588,1.8332,1.8443,1.804,1.8417,1.8273,1.7708,1.7789,1.7708,1.7456,1.7088,1.6846,1.6533,1.6472,1.6545,1.6877,1.7129,1.7466,1.7702,1.7384,1.7033,1.6743,1.6317,1.5678,1.483,1.3948,1.3395,1.3185,1.2161,1.1504,1.1128,1.0614,1.0135,0.9776,0.9694,0.9499,0.9327,0.9291,0.9362,0.0,0.0,0.0,0.0,0.0,0.0,0.0,0.0,0.0,0.0,0.0,0.9552,0.0,0.9976,0.0,0.9841,0.9519,0.914,0.8721,0.8181,0.8256,0.9442,1.0264,1.0606,1.0174,1.0024,1.009,1.0324,1.0692,1.0891,1.0953,1.0005,0.9283,0.8796,0.8283,0.7643,0.7441,0.7141,0.6739,0.6239,0.5842,0.5441,0.5037,0.5035,0.5035,0.4734,0.4836,0.4937,0.4937,0.4937,0.4935,0.5037,0.5135,0.5236,0.514,0.5138,0.5135,0.5135,0.5436,0.5739,1.7988,1.8272,1.8066,1.8007,1.7997,1.8233,1.8037,1.7569,1.7304,1.7166,1.7176,1.7292,1.7525,1.7881,1.8352,1.8874,1.9317,1.9526,1.9514,1.9292,1.9073,1.8851,1.8434,1.8201,1.804,1.804,1.7635,1.7473,1.7408,1.7211,1.7305,1.7866,1.7811,1.8162,1.8796,1.8063,1.7529,1.7196,1.6319,1.5611,1.5173,1.4383,1.3746,1.3322,1.2553,1.2016,1.1727,1.1061,1.0656,1.0393,1.0236,0.9917,0.9504,0.9818,0.9901,0.0,0.9489,0.0,0.0,0.0,0.0,0.0,0.0,0.0,0.0,1.0319,1.054,1.0712,1.0591,1.0565,1.0579,1.01,0.9815,0.9776,0.8556,0.8374,1.01,1.1696,1.2167,1.0971,1.1103,1.1253,1.1204,1.1651,1.1821,1.1316,1.0969,1.048,0.9899,0.8817,0.8045,0.7766,0.7485,0.7122,0.6606,0.6282,0.5967,0.5761,0.5646,0.5636,0.5636,0.5438,0.5338,0.5536,0.5438,0.5345,0.5253,0.5448,0.5541,0.5461,0.5567,0.5658,0.5639,0.5837,0.6042,1.9859,1.9798,1.9728,1.9738,1.9738,1.9768,1.8853,1.7304,1.689,1.6821,1.7005,1.782,1.8161,1.8133,1.9155,1.9476,1.9345,1.9676,1.9631,1.9301,1.9082,1.8851,1.8612,1.8442,1.8362,1.8282,1.8031,1.7797,1.7635,1.7798,1.807,1.8403,1.8505,1.8756,1.9088,0.0,0.0,0.0,1.6414,1.6008,1.5637,1.4852,1.4385,1.4046,1.3083,0.0,1.1993,1.164,1.1339,1.0906,1.0809,0.0,0.0,0.0,0.0,0.0,0.0,0.0,0.0,0.0,0.0,0.0,1.1089,1.1117,1.0691,1.0714,1.0848,1.1028,1.0901,1.0877,1.1301,1.0649,1.0284,1.0342,0.9577,0.9692,1.1405,1.2318,1.2392,1.1849,1.1636,1.1679,1.1871,1.2314,1.2563,1.2453,1.2145,1.1775,1.1292,0.971,0.8578,0.8194,0.7875,0.7553,0.7148,0.6841,0.6564,0.6473,0.5989,0.5744,0.5839,0.5639,0.5434,0.5636,0.5737,0.5775,0.5744,0.5595,0.5768,0.6259,0.6174,0.5948,0.5655,0.5937,0.6237,2.0868,0.0,2.0705,2.0552,0.0,2.0216,1.9392,1.8138,1.8119,1.8057,1.8157,1.8734,1.9082,1.9214,1.9345,1.9493,1.9468,1.9088,1.9047,1.9164,1.8783,1.8734,1.8993,1.8683,1.8531,1.8531,1.8362,1.821,1.8074,1.8541,1.8732,1.8662,1.9101,1.9455,1.9737,1.9188,1.8172,1.6784,1.6602,1.6319,1.6001,1.5264,1.4681,1.4392,0.0,0.0,0.0,0.0,0.0,0.0,0.0,0.0,0.0,0.0,0.0,1.0152,1.0221,1.0327,1.0288,1.0506,1.0796,1.14,1.1884,1.1979,1.1676,1.167,1.1786,1.1884,1.1673,1.1654,1.1905,1.1502,1.1207,1.1277,1.0884,1.1122,1.2035,1.2715,1.2964,1.261,1.2546,1.2648,1.2945,1.318,1.3188,1.2931,1.2759,1.237,1.1683,1.0404,0.9458,0.884,0.8509,0.8156,0.7849,0.7598,0.7247,0.7125,0.6679,0.6442,0.6539,0.6181,0.5994,0.6261,0.6324,0.63,0.6332,0.642,0.6529,0.6743,0.6788,0.6782,0.6472,0.6529,0.6511,2.1691,2.1691,2.1669,2.1275,2.0783,2.0617,2.0151,1.9492,0.0,0.0,0.0,1.9574,1.9959,2.0277,1.9693,1.9613,1.9839,1.8901,1.8713,1.9363,1.8738,1.8792,1.9491,1.911,1.8914,1.9057,1.8985,1.8815,1.867,1.9353,1.9428,1.916,1.9762,2.0093,2.011,1.9554,1.8635,1.7261,1.6878,1.6501,1.6211,1.5501,1.492,1.4591,1.4082,1.3613,1.3137,1.2757,1.2391,1.2135,1.1718,1.1377,1.1117,1.1111,1.1028,1.0719,1.0539,1.0681,1.0967,1.1042,1.1462,1.216,1.2531,1.2753,1.2584,1.2571,1.2686,1.2795,1.2494,1.2382,1.248,1.2212,1.2087,1.2095,1.2164,1.2187,1.2543,1.3148,1.3413,1.3254,1.3409,1.3619,1.3806,1.3945,1.3738,1.3249,1.3055,1.2662,1.1883,1.1035,1.0181,0.9606,0.9299,0.9097,0.8769,0.8456,0.822,0.7945,0.7582,0.7335,0.7253,0.6917,0.6842,0.7101,0.7035,0.6958,0.6978,0.7202,0.7425,0.716,0.7434,0.7586,0.7502,0.7333,0.7146,2.3099,2.3245,2.2867,2.2821,2.2938,2.2295,2.1761,2.1019,1.9664,1.9112,1.9068,1.9807,2.0322,2.0571,2.0787,2.0891,2.0941,2.0487,2.0256,0.0,1.9856,1.9925,2.0391,1.9924,1.9944,2.0272,1.9928,1.9676,1.972,1.9869,2.0105,2.0228,2.0445,2.0283,1.9729,1.9546,1.8996,1.7994,1.7254,1.669,1.6218,1.5889,1.5308,1.4597,1.4278,1.3898,1.3404,1.3099,1.2911,1.2644,1.2395,1.2043,1.1599,1.1621,1.1363,1.0961,1.11,1.1095,1.1064,1.1284,1.1942,1.2745,1.331,1.3246,1.2702,1.2571,1.2686,1.294,1.2594,1.2469,1.2874,1.2583,1.2386,1.2613,1.2563,1.2692,1.2985,1.3314,1.3471,1.3465,1.3713,1.3818,1.3954,1.4046,1.4016,1.3539,1.3346,1.3152,1.2299,1.1538,1.0833,1.0487,1.0522,1.0274,0.9778,0.9425,0.9116,0.9049,0.8187,0.7739,0.7955,0.7588,0.7431,0.7499,0.7502,0.7555,0.7747,0.7574,0.7871,0.8184,0.8255,0.8272,0.8656,0.8582,0.8177,2.3676,2.3985,2.3921,2.3984,2.4093,2.3477,2.2699,2.188,2.1298,2.0795,2.0416,2.1044,2.1268,2.1237,2.1115,2.1128,2.1051,2.0333,2.0292,2.0731,2.0282,2.0429,2.1034,2.0743,2.0754,2.0931,2.0605,2.0352,2.0313,2.0494,2.0604,2.0561,2.0927,2.0744,2.0192,2.0102,1.9463,1.8458,1.7721,1.716,1.677,1.6288,1.5698,1.5295,1.4674,1.4202,1.3806,1.356,1.3307,1.3137,1.2705,1.2448,1.2289,1.2037,1.1729,1.1533,1.1606,1.1725,1.1778,1.2266,1.2819,1.3368,1.3809,1.3953,1.369,1.3526,1.3411,1.3368,1.3304,1.3341,1.3336,1.338,1.3355,1.3127,1.2868,1.2927,1.3267,1.3677,1.3921,1.3755,1.3954,1.4117,1.4117,1.4226,1.4106,1.3636,1.3346,1.2953,1.2667,1.2253,1.1727,1.1056,1.0985,1.0832,1.0344,1.0071,0.9907,0.9804,0.9187,0.8785,0.874,0.8299,0.8047,0.8282,0.8581,0.8689,0.8639,0.8611,0.8748,0.886,0.909,0.9101,0.9275,0.9237,0.8848,2.4224,2.4559,2.4759,2.4801,2.4679,2.4223,2.337,2.248,2.29,2.2644,2.1998,2.2196,2.2213,2.2061,2.1653,2.1507,2.134,2.0613,2.0636,2.1238,2.0799,2.0945,2.163,2.1492,2.1465,2.1541,2.1306,2.1061,2.1022,2.1108,2.1089,2.0862,2.1239,2.1203,2.0654,2.0473,1.992,1.9012,1.8365,1.78,1.7426,1.6629,1.6204,1.5837,1.5149,1.4595,1.4353,1.4043,1.3847,1.3668,1.3318,1.3034,1.2801,1.2522,1.225,1.2072,1.2095,1.229,1.2623,1.323,1.369,1.3932,1.4315,1.4623,1.4603,1.4422,1.419,1.4045,1.4122,1.4164,1.3837,1.4072,1.4141,1.3689,1.3229,1.3156,1.3604,1.413,1.439,1.4209,1.4272,1.449,1.4394,1.4394,1.4112,1.3636,1.3147,1.2856,1.2764,1.2759,1.237,1.1825,1.1477,1.1355,1.106,1.0782,1.0595,1.0604,1.0078,0.9847,0.9627,0.9009,0.8744,0.9335,0.961,0.9576,0.9465,0.9545,0.9659,0.975,0.9858,0.9915,0.9834,0.9777,0.9544,2.5085,2.494,2.521,2.4949,2.4497,2.4487,2.3924,2.3215,2.3619,2.3546,2.2989,2.2869,2.295,2.306,2.2959,2.2948,2.2878,2.2483,2.2259,2.2309,2.1909,2.1967,2.2337,2.2196,2.2323,2.2524,2.2202,2.191,2.1919,2.1719,2.1578,2.1596,2.1633,2.1383,2.0753,2.0654,2.03,1.9579,1.9204,1.8635,1.7721,1.7131,1.67,1.6042,1.562,1.519,1.493,1.4711,1.4506,1.4513,1.4219,1.3849,1.3303,1.3302,1.3052,1.2192,1.2435,1.2903,1.3336,1.386,1.4232,1.448,1.4801,1.4917,1.4923,1.4903,1.4877,1.489,1.4718,1.4545,1.4462,1.4417,1.4372,1.4223,1.3768,1.3582,1.413,1.4659,1.4943,1.4734,1.4854,1.4885,1.4688,1.4592,1.431,1.3636,1.3249,1.2953,1.2861,1.2764,1.2667,1.2407,1.2371,1.2284,1.1821,1.1681,1.1534,1.1256,1.0845,1.0539,1.0435,1.026,1.0076,1.0148,1.0176,1.0164,1.0152,1.0196,1.0266,1.051,1.0741,1.0975,1.0858,1.0631,1.0331,2.5684,2.5842,2.5982,2.5916,2.561,2.542,2.4823,2.403,2.4148,2.4022,2.366,2.3784,2.3608,2.3225,2.3463,2.3588,2.3619,2.3355,2.3297,2.3223,2.2798,2.2725,2.2871,2.2804,2.2814,2.296,2.2618,2.253,2.2451,2.2097,2.194,2.2034,2.186,2.1581,2.1416,2.1229,2.0852,2.03,2.0019,1.9554,1.892,1.8001,1.7289,1.6957,1.6139,1.5633,1.5575,1.514,1.4867,1.4777,1.4591,1.436,1.4066,1.3994,1.3866,1.3389,1.3551,1.3798,1.4148,1.4326,1.4556,1.4867,1.5117,1.5217,1.5231,1.5378,1.5478,1.5458,1.5226,1.5035,1.4858,1.5088,1.51,1.4833,1.4816,1.4766,1.4584,1.5114,1.5402,1.5185,1.5083,1.4987,1.4694,1.4406,1.4124,1.3738,1.3352,1.3077,1.2958,1.2861,1.2759,1.2689,1.2865,1.2687,1.2392,1.2452,1.2345,1.2077,1.1859,1.1638,1.1252,1.1278,1.1102,1.1069,1.1093,1.1151,1.0933,1.1027,1.1048,1.1246,1.1259,1.135,1.135,1.1008,1.0676,2.6322,2.6553,2.66,2.647,2.6279,2.5957,2.5271,2.4587,2.448,2.4353,2.4105,2.4405,2.4188,2.366,2.3919,2.4064,2.4021,2.3957,2.3841,2.3754,2.3396,2.3135,2.3144,2.3144,2.3144,2.3057,2.2882,2.2773,2.278,2.2344,2.2288,2.2392,2.2208,2.198,2.2016,2.168,2.1311,2.0753,2.0473,2.0192,1.9745,1.8643,1.8001,1.7785,1.6657,1.6075,1.6246,1.5586,1.5197,1.5204,1.5008,1.4878,1.4715,1.4689,1.4604,1.443,1.4359,1.445,1.4702,1.4799,1.4929,1.5204,1.5404,1.5518,1.5551,1.5712,1.5818,1.5798,1.5638,1.5418,1.5345,1.5604,1.5635,1.5363,1.5655,1.5553,1.5146,1.5586,1.5695,1.5478,1.5363,1.521,1.4992,1.4595,1.4374,1.4172,1.3866,1.3406,1.3258,1.3062,1.2964,1.2964,1.306,1.3063,1.2838,1.2924,1.2966,1.2834,1.2634,1.2404,1.2195,1.2219,1.2117,1.2061,1.2332,1.2393,1.1935,1.1921,1.1918,1.1869,1.1896,1.1787,1.1678,1.1223,1.1109,2.7185,2.6804,2.6827,2.6517,2.5895,2.5622,2.5105,2.4542,2.4529,2.4529,2.4478,2.4519,2.4519,2.4436,2.4447,2.4509,2.4423,2.4262,2.4024,2.3754,2.358,2.3319,2.3144,2.3144,2.3144,2.3057,2.2969,2.2809,2.2709,2.2464,2.252,2.2896,2.2859,2.2601,2.2179,2.2079,2.1579,2.0914,2.0516,2.0209,1.9928,1.9196,1.8635,1.8342,1.721,1.6539,1.6546,1.6069,1.5772,1.5785,1.5752,1.5551,1.5153,1.5343,1.5162,1.483,1.4657,1.4728,1.5055,1.5285,1.5478,1.5712,1.5752,1.5798,1.5765,1.5798,1.5825,1.5825,1.5792,1.5772,1.5677,1.5798,1.5832,1.5737,1.573,1.573,1.573,1.5737,1.5832,1.5743,1.5763,1.5602,1.5445,1.5401,1.5181,1.4797,1.463,1.4346,1.374,1.3496,1.3391,1.3241,1.3287,1.3367,1.309,1.331,1.3407,1.3276,1.3199,1.3131,1.3166,1.3073,1.295,1.2881,1.2728,1.2745,1.2825,1.275,1.2612,1.2598,1.2521,1.2332,1.2223,1.1787,1.1673,2.7197,2.7048,2.6894,2.6727,2.6479,2.579,2.5369,2.5115,2.4711,2.455,2.455,2.455,2.455,2.455,2.455,2.4454,2.4282,2.4024,2.3851,2.358,2.3319,2.3222,2.3135,2.3144,2.3144,2.3047,2.3057,2.3005,2.3109,2.3047,2.3324,2.3654,2.3344,2.3157,2.3137,2.2765,2.2251,2.1798,2.147,2.1181,2.0572,2.0011,1.9563,1.9112,1.78,1.7044,1.7052,1.64,1.6028,1.6021,1.5927,1.5684,1.5604,1.5677,1.569,1.5685,1.5478,1.5471,1.5752,1.5671,1.5712,1.5805,1.5825,1.5825,1.5825,1.5825,1.5825,1.5825,1.5825,1.5825,1.5825,1.5825,1.5825,1.5825,1.5832,1.5838,1.5825,1.5825,1.5825,1.5852,1.5883,1.5934,1.5991,1.5852,1.5702,1.5297,1.5101,1.4761,1.4387,1.3943,1.3735,1.3667,1.3632,1.3696,1.3591,1.3694,1.3879,1.3593,1.3516,1.3398,1.331,1.3423,1.33,1.3171,1.3062,1.3107,1.3174,1.322,1.3133,1.3071,1.2985,1.2876,1.2881,1.2436,1.2323,2.7323,2.7378,2.7047,2.688,2.6713,2.5849,2.5509,2.5349,2.493,2.4598,2.4592,2.4695,2.4598,2.456,2.455,2.4368,2.4196,2.4013,2.3841,2.358,2.3406,2.3222,2.3135,2.3144,2.3144,2.3057,2.3047,2.3152,2.3563,2.353,2.3897,2.4449,2.4021,2.386,2.3972,2.3463,2.299,2.2456,2.2153,2.1679,2.1068,2.0676,2.0237,1.9612,1.8551,1.7804,1.7441,1.669,1.6312,1.6312,1.6116,1.6015,1.6021,1.6015,1.6116,1.6312,1.6109,1.6116,1.6123,1.6028,1.5927,1.5825,1.5825,1.5825,1.5825,1.5825,1.5825,1.5825,1.5825,1.5825,1.5825,1.5825,1.5825,1.5845,1.5912,1.5925,1.5852,1.5925,1.5972,1.6032,1.6142,1.6229,1.6403,1.6432,1.6196,1.5766,1.556,1.5342,1.4836,1.4504,1.419,1.4104,1.4008,1.3946,1.3906,1.4067,1.4143,1.3959,1.3862,1.3753,1.3645,1.365,1.365,1.3521,1.3378,1.3444,1.3444,1.3491,1.3516,1.3423,1.3423,1.3315,1.3202,1.2975,1.2866,2.7694,2.787,2.7193,2.6874,2.6627,2.5923,2.5476,2.5269,2.5223,2.5006,2.4716,2.5037,2.4995,2.4654,2.4623,2.4409,2.4354,2.444,2.4268,2.3824,2.3774,2.3533,2.3262,2.3232,2.3252,2.3183,2.294,2.3275,2.4006,2.3877,2.4193,2.4771,2.4846,2.4638,2.4354,2.4029,2.3456,2.2714,2.2289,2.1751,2.1103,2.0919,2.0559,2.0012,1.9471,1.8738,1.7736,1.7059,1.6676,1.6588,1.6581,1.6588,1.6588,1.6494,1.6581,1.6588,1.6581,1.6494,1.6312,1.6218,1.6116,1.5927,1.5825,1.592,1.5825,1.5832,1.5825,1.5825,1.5825,1.5838,1.5858,1.5845,1.5825,1.5858,1.6059,1.6209,1.5959,1.6195,1.6384,1.6313,1.6533,1.672,1.6806,1.6918,1.6832,1.6424,1.6218,1.594,1.5327,1.5076,1.4873,1.446,1.44,1.4278,1.4297,1.4196,1.4191,1.4191,1.4083,1.4083,1.3975,1.398,1.398,1.3851,1.3777,1.3735,1.3746,1.3793,1.3846,1.3753,1.3753,1.364,1.3532,1.3418,1.3315,2.8236,2.7955,2.7631,2.7195,2.6756,2.6214,2.5779,2.5539,2.5622,2.543,2.5161,2.5492,2.542,2.5099,2.5016,2.4928,2.4928,2.4939,2.4655,2.4087,2.375,2.3742,2.3867,2.3711,2.374,2.3975,2.3933,2.4205,2.4662,2.4665,2.489,2.5344,2.5235,2.507,2.4937,2.4733,2.416,2.3539,2.3361,2.2756,2.1769,2.1454,2.0954,2.0169,1.9578,1.8923,1.8272,1.752,1.7145,1.7052,1.677,1.6588,1.6588,1.6588,1.6683,1.6878,1.6683,1.6683,1.6697,1.6595,1.64,1.64,1.6393,1.6211,1.6123,1.6123,1.6021,1.5832,1.5832,1.5892,1.6052,1.5945,1.5865,1.5832,1.6092,1.6296,1.6217,1.6332,1.6451,1.6567,1.6827,1.7121,1.7264,1.7463,1.7265,1.6961,1.6749,1.6362,1.6001,1.5535,1.5358,1.5151,1.4944,1.4691,1.4561,1.4401,1.4401,1.4299,1.4191,1.4196,1.4196,1.4196,1.4196,1.4169,1.4094,1.4062,1.4073,1.4105,1.4056,1.4083,1.3975,1.3975,1.3975,1.3867,1.3759,2.8642,2.8463,2.8044,2.7599,2.723,2.6689,2.626,2.6041,2.61,2.5885,2.5627,2.5947,2.5885,2.5544,2.5471,2.5393,2.5303,2.5293,2.5117,2.4726,2.4277,2.4306,2.4365,2.416,2.4141,2.4365,2.4414,2.4639,2.5049,2.5078,2.5293,2.5567,2.544,2.5333,2.5235,2.4922,2.4431,2.3998,2.3818,2.333,2.2553,2.2142,2.1652,2.0957,2.0154,1.9593,1.9107,1.8138,1.752,1.7333,1.6951,1.6864,1.6864,1.6864,1.6958,1.7059,1.6965,1.6965,1.6979,1.6878,1.6683,1.6588,1.6588,1.6501,1.6407,1.6312,1.6218,1.6028,1.6041,1.6169,1.6206,1.6233,1.6152,1.6159,1.6326,1.6505,1.6653,1.6596,1.6666,1.682,1.7034,1.7281,1.7495,1.7589,1.7483,1.7279,1.6955,1.663,1.6324,1.5885,1.569,1.5589,1.5351,1.5013,1.4809,1.4719,1.4611,1.4509,1.4293,1.4191,1.4196,1.4196,1.4196,1.4196,1.4143,1.4132,1.4143,1.4153,1.4191,1.4196,1.4196,1.4083,1.4083,1.4083,1.4083,2.9079,2.9327,2.8442,2.7978,2.7807,2.697,2.664,2.662,2.6599,2.6351,2.6082,2.6403,2.6351,2.5999,2.5927,2.5836,2.5564,2.5574,2.5706,2.5611,2.543,2.5033,2.4604,2.4551,2.4619,2.46,2.459,2.4766,2.5166,2.5176,2.5312,2.5596,2.544,2.5333,2.5235,2.4833,2.4459,2.4082,2.3814,2.3409,2.293,2.2715,2.2513,2.2037,2.1154,2.0473,1.9982,1.8894,1.7905,1.7471,1.7276,1.7254,1.7355,1.7347,1.7232,1.7239,1.7333,1.7153,1.7066,1.7066,1.6871,1.677,1.6725,1.6595,1.6697,1.6686,1.6538,1.6327,1.6443,1.6619,1.6505,1.65,1.6633,1.6707,1.6673,1.676,1.7021,1.6847,1.6867,1.7054,1.7271,1.7275,1.7555,1.7582,1.7483,1.7272,1.6955,1.6743,1.6424,1.6105,1.5897,1.569,1.5583,1.5374,1.5148,1.5041,1.4934,1.4606,1.4396,1.4293,1.4191,1.4196,1.4196,1.4196,1.4196,1.4196,1.4196,1.4196,1.4196,1.4196,1.4196,1.4196,1.4196,1.4196,1.4196,2.9432,2.8918,2.8631,2.8179,2.7734,2.7264,2.7066,2.693,2.7035,2.6786,2.6558,2.6879,2.6806,2.6423,2.6392,2.6392,2.63,2.63,2.6268,2.6255,2.6225,2.566,2.5134,2.5234,2.5361,2.5342,2.5303,2.5449,2.5547,2.5527,2.5615,2.5723,2.5645,2.5538,2.5538,2.5235,2.4992,2.4692,2.437,2.3874,2.3377,2.3,2.2566,2.2125,2.1439,2.0862,2.0467,1.95,1.849,1.7677,1.7443,1.7457,1.7633,1.7479,1.7362,1.7362,1.7333,1.7239,1.7246,1.7254,1.7153,1.7167,1.7282,1.7304,1.6914,1.7105,1.7009,1.6676,1.663,1.678,1.6834,1.68,1.6834,1.6967,1.6874,1.6794,1.6874,1.6961,1.7074,1.7154,1.7335,1.7482,1.7549,1.7589,1.7582,1.7483,1.7166,1.6955,1.663,1.6324,1.601,1.5891,1.5785,1.5583,1.5476,1.5369,1.5148,1.4708,1.4498,1.4401,1.4299,1.4196,1.4196,1.4196,1.4196,1.4196,1.4196,1.4196,1.4196,1.4196,1.4196,1.4196,1.4196,1.4196,1.4196,2.9749,2.9013,2.8839,2.8373,2.7726,2.7452,2.7201,2.7139,2.7222,2.7127,2.6951,2.7127,2.7107,2.6879,2.6858,2.6868,2.6764,2.6681,2.673,2.6628,2.6572,2.6038,2.5545,2.5654,2.5732,2.5732,2.5732,2.5723,2.5723,2.5732,2.5732,2.5635,2.5538,2.544,2.5333,2.5128,2.4833,2.4637,2.444,2.4113,2.3822,2.3314,2.3019,2.2558,2.1862,2.1134,2.0508,1.9693,1.8928,1.8155,1.7852,1.7823,1.7955,1.7706,1.7538,1.753,1.7413,1.7333,1.7362,1.7443,1.753,1.7589,1.783,1.7807,1.7659,1.7626,1.7506,1.7112,1.7034,1.7056,1.7094,1.7088,1.7101,1.7121,1.7101,1.7068,1.7068,1.7241,1.7315,1.7375,1.7468,1.7589,1.7589,1.7589,1.7589,1.7483,1.716,1.6948,1.6736,1.643,1.6223,1.5998,1.5885,1.5785,1.5684,1.5684,1.5476,1.5035,1.46,1.4504,1.4293,1.4196,1.4196,1.4196,1.4196,1.4196,1.4196,1.4196,1.4196,1.4196,1.4196,1.4196,1.4196,1.4196,1.4196,2.9852,2.9393,2.8932,2.8466,2.7904,2.7536,2.7347,2.7347,2.7347,2.7251,2.7231,2.7251,2.7336,2.7272,2.7179,2.7146,2.6965,2.6914,2.6945,2.6794,2.6602,2.6167,2.5771,2.5693,2.5732,2.5732,2.5732,2.5732,2.5732,2.5732,2.5732,2.5635,2.544,2.5235,2.5137,2.4833,2.444,2.4449,2.435,2.4242,2.3989,2.3583,2.334,2.3079,2.2283,2.1427,2.0687,2.0051,1.9391,1.8522,1.8442,1.8277,1.8277,1.8043,1.7845,1.7757,1.756,1.7421,1.7428,1.7647,1.783,1.7896,1.8167,1.8321,1.8192,1.7996,1.7774,1.7468,1.7537,1.7387,1.7338,1.7395,1.7368,1.7275,1.7402,1.7495,1.7582,1.7589,1.7589,1.7589,1.7582,1.7582,1.7582,1.7582,1.7582,1.7378,1.7054,1.6836,1.663,1.643,1.6217,1.5998,1.5885,1.5885,1.5885,1.5885,1.5577,1.5256,1.4821,1.4498,1.4299,1.4196,1.4196,1.4196,1.4196,1.4196,1.4196,1.4196,1.4196,1.4196,1.4196,1.4196,1.4196,1.4196,1.4196,2.976,2.8932,2.8735,2.8362,2.7726,2.7452,2.7357,2.7536,2.7347,2.7272,2.7272,2.7272,2.7272,2.7272,2.7272,2.7262,2.7167,2.7167,2.7081,2.6805,2.64,2.6197,2.5917,2.5839,2.5752,2.5762,2.5742,2.5752,2.5762,2.581,2.5742,2.5664,2.5742,2.5547,2.5469,2.5096,2.4843,2.4745,2.4458,2.4251,2.4053,2.3655,2.3356,2.3238,2.265,2.2088,2.1527,2.1063,2.0554,1.9773,1.8922,1.8567,1.8677,1.8379,1.8221,1.8119,1.7897,1.7816,1.7934,1.7912,1.794,1.8203,1.8474,1.8484,1.8074,1.8171,1.7949,1.7688,1.7522,1.7546,1.7455,1.7321,1.7355,1.7408,1.7355,1.7251,1.7522,1.7589,1.7589,1.7589,1.7589,1.7589,1.7589,1.7384,1.7279,1.7279,1.6955,1.663,1.6424,1.6324,1.6111,1.5891,1.5885,1.5885,1.5885,1.5885,1.5678,1.547,1.5035,1.4606,1.4401,1.4196,1.4196,1.4196,1.4196,1.4196,1.4196,1.4196,1.4196,1.4196,1.4196,1.4196,1.4196,1.4196,1.4196,2.9301,2.8571,2.856,2.8092,2.7547,2.7347,2.7347,2.7441,2.7347,2.7272,2.7272,2.7272,2.7272,2.7272,2.7272,2.7272,2.7272,2.7167,2.6986,2.6699,2.6294,2.6004,2.5995,2.6035,2.6035,2.6016,2.582,2.5918,2.6182,2.6133,2.6064,2.6084,2.6221,2.6141,2.5867,2.5542,2.5353,2.5116,2.4631,2.4341,2.4152,2.3655,2.3256,2.3046,2.2745,2.2443,2.2123,2.1717,2.1216,2.0609,1.975,1.9108,1.9117,1.8918,1.8751,1.8602,1.8206,1.8064,1.8162,1.8294,1.8258,1.8318,1.8636,1.857,1.8228,1.8171,1.8123,1.7852,1.7691,1.7582,1.7575,1.7482,1.7468,1.7502,1.7442,1.7422,1.7542,1.7589,1.7589,1.7589,1.7483,1.7384,1.7384,1.7173,1.706,1.6948,1.6743,1.6424,1.6318,1.6217,1.6111,1.5891,1.5885,1.5885,1.5885,1.5885,1.5678,1.547,1.5148,1.4821,1.4504,1.4293,1.4196,1.4196,1.4196,1.4196,1.4196,1.4196,1.4196,1.4196,1.4196,1.4196,1.4196,1.4196,1.4196,2.8757,2.8405,2.8395,2.7925,2.7357,2.7272,2.7357,2.7357,2.7272,2.7272,2.7272,2.7272,2.7272,2.7272,2.7272,2.7262,2.7167,2.6986,2.6699,2.6592,2.6423,2.6269,2.6182,2.6359,2.6543,2.6514,2.623,2.6416,2.6689,2.6689,2.6494,2.6543,2.6797,2.6637,2.6222,2.6064,2.5815,2.5409,2.5058,2.4572,2.4308,2.3781,2.327,2.2745,2.2644,2.2653,2.2443,2.2038,2.1632,2.1318,2.0601,2.0189,1.9819,1.9448,1.9209,1.9171,1.8688,1.8493,1.8508,1.8584,1.8658,1.8556,1.869,1.8722,1.8401,1.8178,1.7989,1.7891,1.7694,1.7589,1.7589,1.7555,1.7555,1.7582,1.7582,1.7582,1.7582,1.7477,1.7477,1.7483,1.7378,1.7279,1.7067,1.6855,1.6736,1.663,1.6424,1.6217,1.6217,1.6105,1.5998,1.5891,1.5885,1.5885,1.5885,1.5891,1.5785,1.5464,1.5256,1.4934,1.4606,1.4401,1.4191,1.4196,1.4196,1.4196,1.4196,1.4196,1.4196,1.4196,1.4196,1.4196,1.4196,1.4196,1.4196,2.8653,2.8405,2.8196,2.782,2.7357,2.7272,2.7272,2.7272,2.7272,2.7272,2.7272,2.7272,2.7272,2.7262,2.7262,2.7177,2.6986,2.6699,2.6719,2.6714,2.6623,2.6586,2.6735,2.68,2.706,2.7266,2.7031,2.6953,2.7031,2.6934,2.6924,2.6924,2.7031,2.69,2.6851,2.6579,2.6251,2.5933,2.559,2.5219,2.4739,2.4149,2.3516,2.2808,2.2689,2.2663,2.2612,2.2266,2.1827,2.1318,2.1216,2.0822,2.0315,1.9635,1.9353,1.9261,1.9157,1.9004,1.8932,1.8861,1.8942,1.9015,1.8715,1.8527,1.8318,1.8115,1.7905,1.7694,1.7694,1.7589,1.7589,1.7589,1.7589,1.7589,1.7589,1.7483,1.7378,1.7041,1.7041,1.7166,1.7166,1.7067,1.6849,1.6636,1.6424,1.6311,1.6211,1.6105,1.5998,1.5998,1.5891,1.5885,1.5885,1.5885,1.5885,1.5891,1.5785,1.5577,1.5256,1.4928,1.4719,1.4401,1.4191,1.4191,1.4196,1.4196,1.4196,1.4196,1.4196,1.4196,1.4196,1.4196,1.4196,1.4196,1.4196,2.8092,2.8008,2.782,2.7631,2.7357,2.7272,2.7272,2.7272,2.7272,2.7272,2.7272,2.7272,2.7272,2.7262,2.7167,2.689,2.6699,2.64,2.6627,2.6848,2.6764,2.6804,2.7212,2.7334,2.7516,2.7627,2.7637,2.7646,2.7646,2.7451,2.7373,2.7412,2.7539,2.7578,2.7393,2.724,2.6956,2.6634,2.6238,2.5834,2.5245,2.4684,2.3894,2.3488,2.3014,2.2927,2.2832,2.2616,2.2199,2.174,2.1394,2.1107,2.0612,2.0066,1.9708,1.966,1.9528,1.9433,1.9236,1.9148,1.9022,1.8805,1.8534,1.8213,1.8003,1.7898,1.7806,1.7694,1.7589,1.7589,1.7589,1.7589,1.7589,1.7589,1.7602,1.7503,1.7272,1.6704,1.6711,1.6842,1.6743,1.6643,1.653,1.6318,1.6111,1.6004,1.5998,1.5891,1.5885,1.5885,1.5885,1.5885,1.5885,1.5885,1.5885,1.5891,1.5891,1.5684,1.5363,1.5041,1.4713,1.4504,1.4293,1.4191,1.4196,1.4196,1.4196,1.4196,1.4196,1.4196,1.4196,1.4196,1.4196,1.4196,1.4196,2.7536,2.7631,2.7536,2.7441,2.7357,2.7272,2.7272,2.7272,2.7272,2.7272,2.7272,2.7272,2.7272,2.7272,2.7081,2.6805,2.6602,2.6304,2.6533,2.6991,2.6794,2.694,2.7456,2.7737,2.7822,2.7891,2.8047,2.8291,2.8144,2.793,2.7812,2.7842,2.8144,2.8144,2.7842,2.7783,2.7756,2.7361,2.6903,2.6257,2.5651,2.508,2.4465,2.4088,2.3462,2.3216,2.3174,2.2847,2.2454,2.203,2.1658,2.1296,2.0775,2.0439,2.0197,2.0086,1.9887,1.9687,1.9383,1.9367,1.9277,1.8998,1.8604,1.83,1.8081,1.7995,1.7669,1.7609,1.7589,1.7589,1.7589,1.7589,1.7589,1.7602,1.7622,1.753,1.7179,1.6723,1.6399,1.6411,1.6318,1.6217,1.6211,1.6105,1.5998,1.5998,1.5891,1.5891,1.5885,1.5885,1.5885,1.5885,1.5885,1.5885,1.5885,1.5885,1.5885,1.5785,1.547,1.5148,1.4821,1.4493,1.4396,1.4191,1.4196,1.4196,1.4196,1.4196,1.4196,1.4196,1.4196,1.4196,1.4196,1.4196,1.4196,2.7452,2.7631,2.7452,2.7347,2.7272,2.7272,2.7272,2.7272,2.7272,2.7272,2.7262,2.7262,2.7262,2.7187,2.7027,2.6921,2.6699,2.642,2.6466,2.7122,2.7041,2.7221,2.789,2.8123,2.8125,2.8144,2.8242,2.8291,2.8271,2.8213,2.8193,2.8213,2.8213,2.8242,2.8154,2.8115,2.7815,2.7199,2.7128,2.6654,2.5852,2.5255,2.4765,2.4138,2.3644,2.326,2.3186,2.2972,2.2527,2.2006,2.1877,2.1531,2.1052,2.0854,2.0498,2.0285,1.9983,1.9887,1.9449,1.9506,1.9575,1.9405,1.9139,1.8974,1.8734,1.8239,1.7836,1.7595,1.7589,1.7589,1.7589,1.7589,1.7602,1.751,1.753,1.7205,1.6755,1.6636,1.6305,1.6199,1.6105,1.6105,1.5992,1.5992,1.5885,1.5885,1.5885,1.5885,1.5885,1.5885,1.5885,1.5885,1.5885,1.5885,1.5885,1.5885,1.5891,1.5891,1.5571,1.5148,1.4821,1.46,1.4396,1.4191,1.4191,1.4196,1.4196,1.4196,1.4196,1.4196,1.4196,1.4196,1.4196,1.4196,1.4196,2.7357,2.7441,2.7357,2.7272,2.7272,2.7272,2.7272,2.7272,2.7272,2.7272,2.7262,2.7081,2.6986,2.6921,2.6932,2.6825,2.6653,2.6314,2.6693,2.7212,2.7278,2.7486,2.814,2.831,2.8291,2.8301,2.8301,2.8291,2.8301,2.8301,2.8301,2.8301,2.8301,2.8291,2.8291,2.8184,2.7785,2.7406,2.7131,2.6698,2.6136,2.5639,2.5233,2.4733,2.3964,2.3527,2.3308,2.3104,2.2726,2.2307,2.2296,2.1981,2.1522,2.1164,2.0794,2.0481,2.0166,1.9971,1.9685,1.9703,1.9742,1.978,1.9481,1.9234,1.8905,1.8333,1.7916,1.7609,1.7589,1.7589,1.7589,1.7589,1.7609,1.7523,1.7318,1.6849,1.6418,1.633,1.6105,1.6105,1.5998,1.5992,1.5885,1.5885,1.5885,1.5885,1.5885,1.5885,1.5885,1.5885,1.5885,1.5885,1.5885,1.5885,1.5885,1.5885,1.5791,1.569,1.5583,1.5261,1.4821,1.4611,1.4401,1.4299,1.4191,1.4196,1.4196,1.4196,1.4196,1.4196,1.4196,1.4196,1.4196,1.4196,1.4196,2.7272,2.7272,2.7272,2.7272,2.7272,2.7272,2.7272,2.7272,2.7272,2.7272,2.7272,2.7092,2.689,2.6749,2.6962,2.6845,2.6623,2.6403,2.6814,2.7311,2.7505,2.7731,2.8278,2.8408,2.8301,2.8301,2.8301,2.8301,2.8301,2.8301,2.8301,2.8301,2.8301,2.8301,2.8184,2.8077,2.7726,2.7422,2.689,2.6673,2.6436,2.5881,2.5423,2.4974,2.4342,2.3689,2.3585,2.3215,2.2862,2.2736,2.2443,2.2104,2.1698,2.1255,2.094,2.0605,2.0392,2.026,2.0104,2.0091,2.0034,1.9931,1.9761,1.9388,1.8673,1.8218,1.7916,1.7609,1.7589,1.7589,1.7589,1.7589,1.751,1.7417,1.7099,1.6511,1.605,1.6086,1.6004,1.5998,1.5998,1.5885,1.5885,1.5885,1.5885,1.5885,1.5885,1.5885,1.5885,1.5885,1.5885,1.5885,1.5885,1.5885,1.5885,1.5891,1.569,1.5589,1.5482,1.5261,1.4821,1.4611,1.4407,1.4299,1.4196,1.4196,1.4196,1.4196,1.4196,1.4196,1.4196,1.4196,1.4196,1.4196,1.4196,2.7272,2.7272,2.7272,2.7272,2.7272,2.7272,2.7272,2.7272,2.7272,2.7262,2.7272,2.7282,2.7228,2.7123,2.7002,2.6937,2.6825,2.6821,2.7043,2.7389,2.7629,2.7937,2.828,2.8301,2.8301,2.8301,2.8301,2.8301,2.8301,2.8301,2.8301,2.8301,2.8301,2.8301,2.8184,2.796,2.7539,2.7116,2.6691,2.6582,2.6354,2.5789,2.5229,2.4898,2.4239,2.3585,2.3809,2.3352,2.2927,2.2783,2.2379,2.2025,2.1728,2.1294,2.0962,2.0738,2.0629,2.0515,2.0545,2.0501,2.0625,2.0446,2.0096,1.9424,1.8816,1.8196,1.7929,1.7682,1.7629,1.7589,1.7483,1.7378,1.7404,1.7192,1.6874,1.6537,1.608,1.598,1.5998,1.5891,1.5891,1.5885,1.5885,1.5885,1.5885,1.5885,1.5885,1.5885,1.5885,1.5885,1.5885,1.5885,1.5885,1.5885,1.5885,1.5785,1.5684,1.547,1.5256,1.5041,1.4606,1.4504,1.4299,1.4299,1.4196,1.4196,1.4196,1.4196,1.4196,1.4196,1.4196,1.4196,1.4196,1.4196,1.4196,2.7272,2.7272,2.7272,2.7272,2.7272,2.7272,2.7272,2.7272,2.7262,2.7177,2.7092,2.7242,2.7232,2.6916,2.6982,2.6835,2.6693,2.6763,2.7012,2.7317,2.7658,2.7891,2.8164,2.8301,2.8301,2.8301,2.8301,2.8301,2.8301,2.8291,2.8291,2.8301,2.8213,2.8184,2.797,2.7647,2.7215,2.6899,2.6691,2.6473,2.6136,2.5569,2.5008,2.4582,2.4024,2.3472,2.3352,2.3127,2.2927,2.2735,2.2464,2.2123,2.1762,2.1402,2.1098,2.0973,2.0752,2.0722,2.0698,2.0757,2.0815,2.0786,2.0323,1.9615,1.8955,1.8581,1.819,1.7943,1.7675,1.7595,1.7589,1.7483,1.7384,1.7067,1.6643,1.6324,1.6211,1.5998,1.5885,1.5891,1.5885,1.5885,1.5885,1.5885,1.5885,1.5885,1.5885,1.5885,1.5885,1.5885,1.5885,1.5885,1.5885,1.5885,1.5885,1.5785,1.5678,1.5464,1.5137,1.4804,1.4583,1.4401,1.4191,1.4196,1.4196,1.4196,1.4196,1.4196,1.4196,1.4196,1.4196,1.4196,1.4196,1.4196,1.4196,2.7272,2.7272,2.7272,2.7272,2.7272,2.7272,2.7272,2.7272,2.7272,2.7167,2.7017,2.7426,2.7298,2.6942,2.709,2.6991,2.6803,2.6913,2.7199,2.7501,2.779,2.7998,2.8203,2.8301,2.8301,2.8301,2.8301,2.8291,2.8184,2.8184,2.8077,2.8008,2.8203,2.8007,2.7853,2.7323,2.6899,2.6691,2.6473,2.6354,2.6017,2.5348,2.4795,2.4376,2.3697,2.336,2.3135,2.3022,2.2901,2.2652,2.2425,2.2214,2.1911,2.1587,2.1234,2.1092,2.0979,2.0867,2.0867,2.0776,2.075,2.0573,2.0123,1.9663,1.9258,1.882,1.817,1.8043,1.7769,1.7615,1.7655,1.7457,1.7377,1.7083,1.6549,1.6211,1.6111,1.6004,1.5998,1.5885,1.5885,1.5885,1.5885,1.5885,1.5885,1.5885,1.5885,1.5885,1.5885,1.5885,1.5885,1.5885,1.5885,1.5885,1.5885,1.5807,1.5647,1.5429,1.5102,1.4764,1.4449,1.4272,1.4191,1.4196,1.4196,1.4196,1.4196,1.4196,1.4196,1.4196,1.4196,1.4196,1.4196,1.4196,1.4196,2.7272,2.7272,2.7272,2.7272,2.7272,2.7272,2.7272,2.7272,2.7272,2.7262,2.7314,2.762,2.7523,2.71,2.7381,2.7252,2.7003,2.7343,2.7653,2.7751,2.7949,2.8213,2.8271,2.8301,2.8301,2.8301,2.8291,2.8184,2.796,2.796,2.7853,2.772,2.7929,2.7967,2.7803,2.7305,2.689,2.6582,2.6354,2.6127,2.5789,2.5026,2.4599,2.4153,2.3585,2.3135,2.3135,2.2909,2.2683,2.257,2.2116,2.1896,2.1638,2.1402,2.1244,2.1137,2.1152,2.1167,2.1067,2.0816,2.0486,2.0256,1.9766,1.9333,1.919,1.8601,1.815,1.811,1.7842,1.7802,1.7595,1.7407,1.7346,1.6978,1.6454,1.6215,1.6233,1.6083,1.5988,1.5976,1.5922,1.5885,1.5885,1.5885,1.5885,1.5885,1.5885,1.5885,1.5885,1.5885,1.5885,1.5885,1.5885,1.5885,1.5849,1.5674,1.5527,1.5323,1.5186,1.4871,1.4561,1.4379,1.4288,1.4191,1.4196,1.4196,1.4196,1.4196,1.4196,1.4196,1.4196,1.4196,1.4196,1.4196,1.4196,2.7272,2.7272,2.7272,2.7272,2.7272,2.7272,2.7272,2.7272,2.7272,2.7272,2.7365,2.7544,2.7394,2.7259,2.7392,2.7369,2.7166,2.7408,2.7676,2.7744,2.8105,2.8242,2.8301,2.8301,2.8301,2.8301,2.8291,2.8174,2.796,2.7891,2.7857,2.7858,2.7957,2.7986,2.7657,2.7094,2.6691,2.6582,2.6245,2.6017,2.5679,2.4915,2.4264,2.4041,2.336,2.3022,2.3022,2.2683,2.2456,2.223,2.1782,2.1554,2.1439,2.1211,2.1211,2.1211,2.1203,2.0974,2.063,2.027,2.0169,1.9869,1.961,1.9078,1.8751,1.8377,1.8223,1.823,1.7941,1.7975,1.7875,1.7799,1.7579,1.7104,1.6702,1.6618,1.6502,1.6084,1.5928,1.6,1.606,1.5964,1.5934,1.5958,1.5964,1.5897,1.5885,1.5885,1.5885,1.5885,1.5885,1.5885,1.5885,1.5885,1.5831,1.568,1.5569,1.5494,1.5334,1.5131,1.4815,1.439,1.4288,1.4191,1.4191,1.4196,1.4196,1.4196,1.4196,1.4196,1.4196,1.4196,1.4196,1.4196,1.4196,2.7272,2.7272,2.7272,2.7272,2.7272,2.7272,2.7272,2.7293,2.7321,2.7404,2.7441,2.7638,2.7622,2.7502,2.766,2.7614,2.7314,2.7685,2.7891,2.792,2.8144,2.8271,2.8301,2.8301,2.8301,2.8301,2.8291,2.8174,2.7764,2.7898,2.7981,2.8099,2.8163,2.8041,2.7715,2.7409,2.682,2.6544,2.6122,2.5812,2.5162,2.4556,2.4041,2.3697,2.3247,2.2909,2.2683,2.2456,2.2237,2.1782,2.1554,2.1439,2.1325,2.1211,2.1211,2.1203,2.1081,2.0852,2.0392,2.0046,1.9945,1.9829,1.9401,1.9092,1.8757,1.8552,1.8564,1.8504,1.8227,1.8196,1.8105,1.8026,1.7588,1.7104,1.6759,1.6673,1.6735,1.6416,1.63,1.6356,1.629,1.6169,1.6036,1.6024,1.6054,1.597,1.5885,1.5885,1.5885,1.5885,1.5885,1.5885,1.5885,1.5885,1.5837,1.5722,1.5647,1.5672,1.5452,1.5102,1.4934,1.4498,1.4288,1.4186,1.4191,1.4196,1.4196,1.4196,1.4196,1.4196,1.4196,1.4196,1.4196,1.4213,1.4229,2.7272,2.7272,2.7272,2.7272,2.7272,2.7272,2.7262,2.7303,2.7447,2.7523,2.7486,2.8107,2.8044,2.7739,2.8291,2.8209,2.7783,2.8086,2.8174,2.8232,2.8271,2.8301,2.8301,2.8301,2.8301,2.8301,2.8184,2.8077,2.7469,2.7767,2.8033,2.8307,2.8182,2.8256,2.8238,2.7861,2.7205,2.67,2.6229,2.5777,2.519,2.434,2.4028,2.3674,2.3295,2.2804,2.257,2.2343,2.201,2.1668,2.1439,2.1325,2.1211,2.1211,2.1211,2.1089,2.096,2.0615,2.0277,1.9931,1.9707,1.9604,1.9468,1.9345,1.9178,1.8878,1.8751,1.8605,1.8401,1.84,1.8285,1.7868,1.756,1.7053,1.6696,1.6785,1.6961,1.693,1.683,1.68,1.6628,1.6513,1.6338,1.6278,1.6181,1.6048,1.5964,1.5885,1.5885,1.5885,1.5885,1.5885,1.5885,1.5885,1.5825,1.5759,1.5677,1.5577,1.5258,1.5016,1.4753,1.4611,1.4401,1.4299,1.4191,1.4196,1.4196,1.4196,1.4196,1.4196,1.4229,1.4288,1.432,1.4184,1.4211,2.7272,2.7272,2.7272,2.7272,2.7272,2.7272,2.7167,2.7058,2.736,2.7445,2.721,2.7881,2.7994,2.7841,2.8259,2.827,2.8203,2.8223,2.8262,2.8301,2.8301,2.8301,2.8301,2.8301,2.8301,2.8301,2.8184,2.7979,2.7592,2.7734,2.802,2.8269,2.8471,2.8654,2.8573,2.8446,2.7687,2.707,2.6593,2.6075,2.5437,2.4725,2.4325,2.3886,2.3368,2.2859,2.2351,2.2116,2.1888,2.1439,2.1325,2.1211,2.1211,2.1211,2.1211,2.1089,2.0737,2.0385,2.0277,1.9822,1.9475,1.9482,1.9366,1.9212,1.9045,1.8905,1.8804,1.8738,1.8545,1.8395,1.8263,1.7893,1.7576,1.7171,1.6942,1.7074,1.7255,1.7212,1.7224,1.7086,1.6917,1.6785,1.6616,1.6453,1.6338,1.6181,1.6048,1.5958,1.5885,1.5885,1.5885,1.5885,1.5885,1.5885,1.5885,1.5837,1.5749,1.5553,1.5258,1.4898,1.4657,1.4504,1.4407,1.4299,1.4083,1.4083,1.4196,1.4196,1.4088,1.4266,1.4309,1.4385,1.4439,1.4339,1.4398,2.7272,2.7272,2.7272,2.7272,2.7272,2.7167,2.6996,2.6906,2.7347,2.7412,2.7322,2.7851,2.8121,2.814,2.828,2.8281,2.8281,2.8281,2.8301,2.8301,2.8301,2.8301,2.8301,2.8301,2.8301,2.8301,2.8184,2.797,2.7668,2.7707,2.8012,2.8636,2.892,2.8838,2.8719,2.8408,2.8,2.7417,2.6828,2.6438,2.5784,2.5135,2.4639,2.3982,2.3292,2.2726,2.2017,2.2002,2.166,2.1325,2.1211,2.1211,2.1211,2.1211,2.1211,2.1089,2.063,2.0385,2.0162,1.9707,1.9482,1.9366,1.9366,1.9285,1.9178,1.9065,1.8944,1.8849,1.8525,1.834,1.8216,1.7935,1.7597,1.7261,1.7322,1.7382,1.745,1.7389,1.7365,1.7225,1.7135,1.7008,1.6851,1.6676,1.6483,1.629,1.6139,1.6042,1.5946,1.5885,1.5885,1.5885,1.5885,1.5885,1.5885,1.5891,1.5678,1.5464,1.5232,1.4894,1.4611,1.4401,1.4196,1.3975,1.3753,1.3862,1.397,1.398,1.3991,1.4184,1.4412,1.4525,1.4632,1.4724,1.4815,2.7272,2.7262,2.7262,2.7272,2.7156,2.6986,2.6709,2.6607,2.7402,2.7592,2.7528,2.8111,2.8349,2.831,2.8281,2.8301,2.8301,2.8301,2.8301,2.8301,2.8301,2.8301,2.8301,2.8301,2.8301,2.8301,2.8233,2.8085,2.7782,2.7781,2.8159,2.8938,2.8856,2.8746,2.8517,2.8042,2.7688,2.744,2.6915,2.6345,2.5578,2.5052,2.4404,2.3549,2.3053,2.2705,2.1994,2.1668,2.1554,2.1325,2.1211,2.1211,2.1211,2.1089,2.1089,2.0974,2.0507,2.0277,2.0046,1.9707,1.9482,1.9366,1.9366,1.9339,1.9265,1.9225,1.9117,1.8886,1.8661,1.832,1.8052,1.7837,1.7535,1.7382,1.7412,1.7443,1.7418,1.7499,1.7376,1.7364,1.7334,1.7213,1.7129,1.696,1.6785,1.6495,1.6314,1.6217,1.6079,1.5982,1.5946,1.5934,1.5891,1.5897,1.5791,1.5684,1.5571,1.5363,1.516,1.4719,1.4288,1.4083,1.3991,1.365,1.3418,1.3532,1.364,1.38,1.3972,1.4238,1.4482,1.4659,1.4687,1.482,1.4986,2.7272,2.7272,2.7081,2.689,2.6688,2.6602,2.6496,2.6287,2.7332,2.75,2.7373,2.8062,2.8514,2.8291,2.8291,2.8301,2.8301,2.8301,2.8301,2.8301,2.8301,2.8301,2.8301,2.8301,2.8301,2.8301,2.8272,2.8317,2.8236,2.8087,2.8168,2.8893,2.8874,2.8636,2.8379,2.7851,2.7432,2.7357,2.6765,2.6432,2.5961,2.5234,2.4658,2.385,2.3278,2.2505,2.1932,2.1675,2.1447,2.1325,2.1211,2.1211,2.1211,2.096,2.0838,2.073,2.0277,2.0046,1.9938,1.9591,1.9482,1.9366,1.9366,1.9366,1.9359,1.9366,1.9243,1.8887,1.8655,1.8311,1.7966,1.7719,1.7485,1.7485,1.7485,1.7485,1.7485,1.7485,1.7485,1.7485,1.7485,1.7424,1.7346,1.7225,1.7056,1.6869,1.6688,1.6531,1.6332,1.6199,1.6109,1.6066,1.5928,1.591,1.5737,1.557,1.5509,1.5121,1.478,1.4434,1.3867,1.3697,1.3411,1.3335,1.3197,1.3282,1.3477,1.3842,1.4114,1.4409,1.4526,1.4735,1.4781,1.4798,1.4982,2.7262,2.7071,2.6805,2.6602,2.6496,2.64,2.6197,2.6356,2.7222,2.73,2.7016,2.7973,2.8514,2.8291,2.8291,2.8291,2.8291,2.8301,2.8301,2.8301,2.8301,2.8301,2.8301,2.8301,2.8301,2.831,2.8221,2.8267,2.8502,2.8394,2.8416,2.8902,2.8636,2.8388,2.8233,2.7568,2.7167,2.703,2.6439,2.6144,2.6083,2.5368,2.4506,2.3696,2.3009,2.233,2.1821,2.155,2.1325,2.1211,2.1211,2.1089,2.0967,2.0838,2.0601,2.05,2.0162,1.9815,1.9707,1.9597,1.9366,1.9366,1.9366,1.9366,1.9366,1.9366,1.9133,1.8777,1.8538,1.8311,1.7843,1.7485,1.7485,1.7485,1.7485,1.7485,1.7485,1.7485,1.7485,1.7485,1.7485,1.7473,1.7412,1.74,1.7225,1.7044,1.6893,1.6773,1.6585,1.6348,1.6246,1.6047,1.5964,1.5873,1.5678,1.5557,1.5401,1.4987,1.4516,1.4054,1.3718,1.3232,1.2932,1.2817,1.275,1.2971,1.3257,1.3724,1.4296,1.4761,1.4733,1.4724,1.474,1.4727,1.4718,2.7081,2.6805,2.6506,2.64,2.64,2.6197,2.6004,2.6152,2.7003,2.7061,2.6741,2.8078,2.8426,2.8329,2.8223,2.8262,2.8281,2.8291,2.8301,2.8301,2.8301,2.8301,2.8301,2.8301,2.8291,2.8222,2.8128,2.8198,2.8455,2.8353,2.8498,2.8765,2.8618,2.8241,2.7847,2.7443,2.7039,2.654,2.6127,2.5741,2.5448,2.4972,2.4231,2.3468,2.2841,2.2283,2.1833,2.1474,2.1298,2.1211,2.1211,2.0967,2.0845,2.0608,2.0385,2.0155,1.9931,1.97,1.97,1.9482,1.9482,1.9366,1.9366,1.9366,1.9366,1.9249,1.8894,1.8661,1.8421,1.8188,1.7719,1.7485,1.7485,1.7485,1.7485,1.7485,1.7485,1.7485,1.7485,1.7485,1.7485,1.7485,1.7479,1.7473,1.7376,1.7195,1.7074,1.6948,1.6839,1.6547,1.6352,1.6181,1.5899,1.5844,1.5654,1.5328,1.5105,1.4614,1.415,1.379,1.3462,1.2976,1.2613,1.2365,1.2425,1.2715,1.3122,1.3616,1.4213,1.4777,1.4771,1.4696,1.4341,1.4315,1.4143,2.6688,2.6294,2.6197,2.6014,2.583,2.582,2.5732,2.5967,2.6902,2.707,2.6869,2.7806,2.8347,2.7793,2.7793,2.7939,2.8291,2.8301,2.8301,2.8301,2.8301,2.8301,2.8291,2.8184,2.8184,2.8055,2.8024,2.8172,2.8464,2.8492,2.8473,2.8609,2.8259,2.7767,2.7248,2.6781,2.6371,2.6019,2.5528,2.4947,2.4933,2.454,2.4024,2.3459,2.2808,2.2296,2.184,2.1657,2.1452,2.1298,2.1233,2.1003,2.0759,2.0522,2.027,1.9931,1.9707,1.9591,1.9482,1.9482,1.9366,1.9366,1.9366,1.9359,1.9243,1.912,1.8771,1.8538,1.8305,1.8071,1.7719,1.7602,1.7485,1.7485,1.7485,1.7485,1.7485,1.7485,1.7485,1.7485,1.7485,1.7485,1.7485,1.7479,1.7473,1.7352,1.7346,1.7219,1.696,1.6803,1.6545,1.6166,1.5898,1.5671,1.5377,1.5046,1.4708,1.433,1.3799,1.3362,1.3044,1.2724,1.2361,1.206,1.2113,1.2382,1.291,1.3379,1.3818,1.426,1.4575,1.4543,1.4148,1.3902,1.3841]}]]